[[{"header":{"parameterUnit":"m.s-1","parameterCategory":1,"la1":31.0,"la2":29.5877,"lo1":-88.7671,"lo2":-86.6584,"dy":0.0162,"dx":0.0185,"nx":115,"ny":88,"refTime":"2025-08-04T12:00:00:Z","depth":0,"parameterNumber":2,"parameterNumberName":"U-component_of_WINDS"},"data":[0.0,0.0,0.0,0.0,0.0,0.0,0.0,0.0,0.0,0.0,0.0,0.0,0.0,0.0,0.0,0.0,0.0,0.0,0.0,0.0,0.0,0.0,0.0,0.0,0.0,0.0,0.0,0.0,0.0,0.0,0.0,0.0,0.0,0.0,0.0,0.0,0.0,0.0,0.0,0.0,0.0,0.0,0.0,0.0,0.0,0.0,0.0,0.0,0.0,0.0,0.0,0.0,0.0,0.0,0.0,0.0,0.0,0.0,0.0,0.0,0.0,0.0,0.0,0.0,0.0,0.0,0.0,0.0,0.0,0.0,0.0,0.0,0.0,0.0,0.0,0.0,0.0,0.0,0.0,0.0,0.0,0.0,0.0,0.0,0.0,0.0,0.0,0.0,0.0,0.0,0.0,0.0,0.0,0.0,0.0,0.0,0.0,0.0,0.0,0.0,0.0,0.0,0.0,0.0,0.0,0.0,0.0,0.0,0.0,0.0,0.0,0.0,0.0,0.0,0.0,0.0,0.0,0.0,0.0,0.0,0.0,0.0,0.0,0.0,0.0,0.0,0.0,0.0,0.0,0.0,0.0,0.0,0.0,0.0,0.0,0.0,0.0,0.0,0.0,0.0,0.0,0.0,0.0,0.0,0.0,0.0,0.0,0.0,0.0,0.0,0.0,0.0,0.0,0.0,0.0,0.0,0.0,0.0,0.0,0.0,0.0,0.0,0.0,0.0,0.0,0.0,0.0,0.0,0.0,0.0,0.0,0.0,0.0,0.0,0.0,0.0,0.0,0.0,0.0,0.0,0.0,0.0,0.0,0.0,0.0,0.0,0.0,0.0,0.0,0.0,0.0,0.0,0.0,0.0,0.0,0.0,0.0,0.0,0.0,0.0,0.0,0.0,0.0,0.0,0.0,0.0,0.0,0.0,0.0,0.0,0.0,0.0,0.0,0.0,0.0,0.0,0.0,0.0,0.0,0.0,0.0,0.0,0.0,0.0,0.0,0.0,0.0,0.0,0.0,0.0,0.0,0.0,0.0,0.0,0.0,0.0,0.0,0.0,0.0,0.0,0.0,0.0,0.0,0.0,0.0,0.0,0.0,0.0,0.0,0.0,0.0,0.0,0.0,0.0,0.0,0.0,0.0,0.0,0.0,0.0,0.0,0.0,0.0,0.0,0.0,0.0,0.0,0.0,0.0,0.0,0.0,0.0,0.0,0.0,0.0,0.0,0.0,0.0,0.0,0.0,0.0,0.0,0.0,0.0,0.0,0.0,0.0,0.0,0.0,0.0,0.0,0.0,0.0,0.0,0.0,0.0,0.0,0.0,0.0,0.0,0.0,0.0,0.0,0.0,0.0,0.0,0.0,0.0,0.0,0.0,0.0,0.0,0.0,0.0,0.0,0.0,0.0,0.0,0.0,0.0,0.0,0.0,0.0,0.0,0.0,0.0,0.0,0.0,0.0,0.0,0.0,0.0,0.0,0.0,0.0,0.0,0.0,0.0,0.0,0.0,0.0,0.0,0.0,0.0,0.0,0.0,0.0,0.0,0.0,0.0,0.0,0.0,0.0,0.0,0.0,0.0,0.0,0.0,0.0,0.0,0.0,0.0,0.0,0.0,0.0,0.0,0.0,0.0,0.0,0.0,0.0,0.0,0.0,0.0,0.0,0.0,0.0,0.0,0.0,0.0,0.0,0.0,0.0,0.0,0.0,0.0,0.0,0.0,0.0,0.0,0.0,0.0,0.0,0.0,0.0,0.0,0.0,0.0,0.0,0.0,0.0,0.0,0.0,0.0,0.0,0.0,0.0,0.0,0.0,0.0,0.0,0.0,0.0,0.0,0.0,0.0,0.0,0.0,0.0,0.0,0.0,0.0,0.0,0.0,0.0,0.0,0.0,0.0,0.0,0.0,0.0,0.0,0.0,0.0,0.0,0.0,0.0,0.0,0.0,0.0,0.0,0.0,0.0,0.0,0.0,0.0,0.0,0.0,0.0,0.0,0.0,0.0,0.0,0.0,0.0,0.0,0.0,0.0,0.0,0.0,0.0,0.0,0.0,0.0,0.0,0.0,0.0,0.0,0.0,0.0,0.0,0.0,0.0,0.0,0.0,0.0,0.0,0.0,0.0,0.0,0.0,0.0,0.0,0.0,0.0,0.0,0.0,0.0,0.0,0.0,0.0,0.0,0.0,0.0,0.0,0.0,0.0,0.0,0.0,0.0,0.0,0.0,0.0,0.0,0.0,0.0,0.0,0.0,0.0,0.0,0.0,0.0,0.0,0.0,0.0,0.0,0.0,0.0,0.0,0.0,0.0,0.0,0.0,0.0,0.0,0.0,0.0,0.0,0.0,0.0,0.0,0.0,0.0,0.0,0.0,0.0,0.0,0.0,0.0,0.0,0.0,0.0,0.0,0.0,0.0,0.0,0.0,0.0,0.0,0.0,0.0,0.0,0.0,0.0,0.0,0.0,0.0,0.0,0.0,0.0,0.0,0.0,0.0,0.0,0.0,0.0,0.0,0.0,0.0,0.0,0.0,0.0,0.0,0.0,0.0,0.0,0.0,0.0,0.0,0.0,0.0,0.0,0.0,0.0,0.0,0.0,0.0,0.0,0.0,0.0,0.0,0.0,0.0,0.0,0.0,0.0,0.0,0.0,0.0,0.0,0.0,0.0,0.0,0.0,0.0,0.0,0.0,0.0,0.0,0.0,0.0,0.0,0.0,0.0,0.0,0.0,0.0,0.0,0.0,0.0,0.0,0.0,0.0,0.0,0.0,0.0,0.0,0.0,0.0,0.0,0.0,0.0,0.0,0.0,0.0,0.0,0.0,0.0,0.0,0.0,0.0,0.0,0.0,0.0,0.0,0.0,0.0,0.0,0.0,0.0,0.0,0.0,0.0,0.0,0.0,0.0,0.0,0.0,0.0,0.0,0.0,0.0,0.0,0.0,0.0,0.0,0.0,0.0,0.0,0.0,0.0,0.0,0.0,0.0,0.0,0.0,0.0,0.0,0.0,0.0,0.0,0.0,0.0,0.0,0.0,0.0,0.0,0.0,0.0,0.0,0.0,0.0,0.0,0.0,0.0,0.0,0.0,0.0,0.0,0.0,0.0,0.0,0.0,0.0,0.0,0.0,0.0,0.0,0.0,0.0,0.0,0.0,0.0,0.0,0.0,0.0,0.0,0.0,0.0,0.0,0.0,0.0,0.0,0.0,0.0,0.0,0.0,0.0,0.0,0.0,0.0,0.0,0.0,0.0,0.0,0.0,0.0,0.0,0.0,0.0,0.0,0.0,0.0,0.0,0.0,0.0,0.0,0.0,0.0,0.0,0.0,0.0,0.0,0.0,0.0,0.0,0.0,0.0,0.0,0.0,0.0,0.0,0.0,0.0,0.0,0.0,0.0,0.0,0.0,0.0,0.0,0.0,0.0,0.0,0.0,0.0,0.0,0.0,0.0,0.0,0.0,0.0,0.0,0.0,0.0,0.0,0.0,0.0,0.0,0.0,0.0,0.0,0.0,0.0,0.0,0.0,0.0,0.0,0.0,0.0,0.0,0.0,0.0,0.0,0.0,0.0,0.0,0.0,0.0,0.0,0.0,0.0,0.0,0.0,0.0,0.0,0.0,0.0,0.0,0.0,0.0,0.0,0.0,0.0,0.0,0.0,0.0,0.0,0.0,0.0,0.0,0.0,0.0,0.0,0.0,0.0,0.0,0.0,0.0,0.0,0.0,0.0,0.0,0.0,0.0,0.0,0.0,0.0,0.0,0.0,0.0,0.0,0.0,0.0,0.0,0.0,0.0,0.0,0.0,0.0,0.0,0.0,0.0,0.0,0.0,0.0,0.0,0.0,0.0,0.0,0.0,0.0,0.0,0.0,0.0,0.0,0.0,0.0,0.0,0.0,0.0,0.0,0.0,0.0,0.0,0.0,0.0,0.0,0.0,0.0,0.0,0.0,0.0,0.0,0.0,0.0,0.0,0.0,0.0,0.0,0.0,0.0,0.0,0.0,0.0,0.0,0.0,0.0,0.0,0.0,0.0,0.0,0.0,0.0,0.0,0.0,0.0,0.0,0.0,0.0,0.0,0.0,0.0,0.0,0.0,0.0,0.0,0.0,0.0,0.0,0.0,0.0,0.0,0.0,0.0,0.0,0.0,0.0,0.0,0.0,0.0,0.0,0.0,0.0,0.0,0.0,0.0,0.0,0.0,0.0,0.0,0.0,0.0,0.0,0.0,0.0,0.0,0.0,0.0,0.0,0.0,0.0,0.0,0.0,0.0,0.0,-0.114,0.0,0.0,0.0,0.0,0.0,0.0,0.0,0.0,0.0,0.0,0.0,0.0,0.0,0.0,0.0,0.0,0.0,0.0,0.0,0.0,0.0,0.0,0.0,0.0,0.0,0.0,0.0,0.0,0.0,0.0,0.0,0.0,0.0,0.0,0.0,0.0,0.0,0.0,0.0,0.0,0.0,0.0,0.0,0.0,0.0,0.0,0.0,0.0,0.0,0.0,0.0,0.0,0.0,0.0,0.0,0.0,0.0,0.0,0.0,0.0,0.0,0.0,0.0,0.0,0.0,0.0,0.0,0.0,0.0,0.0,0.0,0.0,0.0,0.0,0.0,0.0,0.0,0.0,0.0,0.0,0.0,0.0,0.0,0.0,0.0,0.0,0.0,0.0,0.0,0.0,0.0,0.0,0.0,0.0,0.0,0.0,0.0,0.0,0.0,0.0,0.0,0.0,0.0,0.0,0.0,0.0,0.0,0.0,0.0,0.0,-0.287,-0.2673,-0.2817,-0.2911,-0.2835,0.0,0.0,0.0,0.0,0.0,0.0,0.0,0.0,0.0,0.0,0.0,0.0,0.0,0.0,0.0,0.0,0.0,0.0,0.0,0.0,0.0,0.0,0.0,0.0,0.0,0.0,0.0,0.0,0.0,0.0,0.0,0.0,0.0,0.0,0.0,0.0,0.0,0.0,0.0,0.0,0.0,0.0,0.0,0.0,0.0,0.0,0.0,0.0,0.0,0.0,0.0,0.0,0.0,0.0,0.0,0.0,0.0,0.0,0.0,0.0,0.0,0.0,0.0,0.0,0.0,0.0,0.0,0.0,0.0,0.0,0.0,0.0,0.0,0.0,0.0,0.0,0.0,0.0,0.0,0.0,0.0,0.0,0.0,0.0,0.0,0.0,0.0,0.0,0.0,0.0,0.0,0.0,0.0,0.0,0.0,0.0,0.0,0.0,0.0,0.0,0.0,0.0,0.0,0.0,0.0,0.0,0.0,0.0,0.0,0.0,0.0,0.0,-0.4818,-0.4617,-0.4211,0.0,0.0,0.0,0.0,0.0,0.0,0.0,0.0,0.0,0.0,0.0,0.0,0.0,0.0,0.0,0.0,0.0,0.0,0.0,0.0,0.0,0.0,0.0,0.0,0.0,0.0,0.0,0.0,0.0,0.0,0.0,0.0,0.0,0.0,0.0,0.0,0.0,0.0,0.0,0.0,0.0,0.0,0.0,0.0,0.0,0.0,0.0,0.0,0.0,0.0,0.0,0.0,0.0,0.0,0.0,0.0,0.0,0.0,0.0,0.0,0.0,0.0,0.0,0.0,0.0,0.0,0.0,0.0,0.0,0.0,0.0,0.0,0.0,0.0,0.0,0.0,0.0,0.0,0.0,0.0,0.0,0.0,0.0,0.0,0.0,0.0,0.0,0.0,0.0,0.0,0.0,0.0,0.0,0.0,0.0,0.0,0.0,0.0,0.0,0.0,0.0,0.0,0.0,0.0,0.0,0.0,0.0,0.0,0.0,0.0,-0.6638,-0.7537,-0.729,0.0,-0.529,0.0,0.0,0.0,0.0,0.0,0.0,0.0,0.0,0.0,0.0,0.0,0.0,0.0,0.0,0.0,0.0,0.0,0.0,0.0,0.0,0.0,0.0,0.0,0.0,0.0,0.0,0.0,0.0,0.0,0.0,0.0,0.0,0.0,0.0,0.0,0.0,0.0,0.0,0.0,0.0,0.0,0.0,0.0,0.0,0.0,0.0,0.0,0.0,0.0,0.0,0.0,0.0,0.0,0.0,0.0,0.0,0.0,0.0,0.0,0.0,0.0,0.0,0.0,0.0,0.0,0.0,0.0,0.0,0.0,0.0,0.0,0.0,0.0,0.0,0.0,0.0,0.0,0.0,0.0,0.0,0.0,0.0,0.0,0.0,0.0,0.0,0.0,0.0,0.0,0.0,0.0,0.0,0.0,0.0,0.0,0.0,0.0,0.0,0.0,0.0,0.0,0.0,0.0,0.0,0.0,0.0,0.0,0.0,0.0,0.0,-0.7628,-0.796,-0.7992,-0.7568,0.0,0.0,0.0,0.0,0.0,0.0,0.0,0.0,0.0,0.0,0.0,0.0,0.0,0.0,0.0,0.0,0.0,0.0,0.0,0.0,0.0,0.0,0.0,0.0,0.0,0.0,0.0,0.0,0.0,0.0,0.0,0.0,0.0,0.0,0.0,0.0,0.0,0.0,0.0,0.0,0.0,0.0,0.0,0.0,0.0,0.0,0.0,0.0,0.0,0.0,0.0,0.0,0.0,0.0,0.0,0.0,0.0,0.0,0.0,0.0,0.0,0.0,0.0,0.0,0.0,0.0,0.0,0.0,0.0,0.0,0.0,0.0,0.0,0.0,0.0,0.0,0.0,0.0,0.0,0.0,0.0,0.0,0.0,0.0,0.0,0.0,0.0,0.0,0.0,0.0,0.0,0.0,0.0,0.0,0.0,0.0,0.0,0.0,0.0,0.0,0.0,0.0,0.0,0.0,0.0,0.0,0.0,0.0,0.0,0.0,-0.8304,-0.8856,-0.9061,-0.9376,-0.9004,-0.7981,0.0,0.0,0.0,0.0,0.0,0.0,0.0,0.0,0.0,0.0,0.0,0.0,0.0,0.0,0.0,0.0,0.0,0.0,0.0,0.0,0.0,0.0,0.0,0.0,0.0,0.0,0.0,0.0,0.0,0.0,0.0,0.0,0.0,0.0,0.0,0.0,0.0,0.0,0.0,0.0,0.0,0.0,0.0,0.0,0.0,0.0,0.0,0.0,0.0,0.0,0.0,0.0,0.0,0.0,0.0,0.0,0.0,0.0,0.0,0.0,0.0,0.0,0.0,0.0,0.0,0.0,0.0,0.0,0.0,0.0,0.0,0.0,0.0,0.0,0.0,0.0,0.0,0.0,0.0,0.0,0.0,0.0,0.0,0.0,0.0,0.0,0.0,0.0,0.0,0.0,0.0,0.0,0.0,0.0,0.0,0.0,0.0,0.0,0.0,0.0,0.0,0.0,0.0,0.0,0.0,0.0,0.0,0.0,-0.9196,-0.9933,-1.072,-1.1561,-1.2068,-1.1278,0.0,0.0,0.0,0.0,0.0,0.0,0.0,0.0,0.0,0.0,0.0,0.0,0.0,0.0,0.0,0.0,0.0,0.0,0.0,0.0,0.0,0.0,0.0,0.0,0.0,0.0,0.0,0.0,0.0,0.0,0.0,0.0,0.0,0.0,0.0,0.0,0.0,0.0,0.0,0.0,0.0,0.0,0.0,0.0,0.0,0.0,0.0,0.0,0.0,0.0,0.0,0.0,0.0,0.0,0.0,0.0,0.0,0.0,0.0,0.0,0.0,0.0,0.0,0.0,0.0,0.0,0.0,0.0,0.0,0.0,0.0,0.0,0.0,0.0,0.0,0.0,0.0,0.0,0.0,0.0,0.0,0.0,0.0,0.0,0.0,0.0,0.0,0.0,0.0,0.0,0.0,0.0,0.0,0.0,0.0,0.0,0.0,0.0,0.0,0.0,0.0,0.0,0.0,0.0,0.0,0.0,0.0,0.0,0.0,-0.915,-1.0318,-1.1686,-1.309,-1.1996,-1.1143,0.0,0.0,0.0,0.0,0.0,0.0,0.0,0.0,0.0,0.0,0.0,0.0,0.0,0.0,0.0,0.0,0.0,0.0,0.0,0.0,0.0,0.0,0.0,0.0,0.0,0.0,0.0,0.0,0.0,0.0,0.0,0.0,0.0,0.0,0.0,0.0,0.0,0.0,0.0,0.0,0.0,0.0,0.0,0.0,0.0,0.0,0.0,0.0,0.0,0.0,0.0,0.0,0.0,0.0,0.0,0.0,0.0,0.0,0.0,0.0,0.0,0.0,0.0,0.0,0.0,0.0,0.0,0.0,0.0,0.0,0.0,0.0,0.0,0.0,0.0,0.0,0.0,0.0,0.0,0.0,0.0,0.0,0.0,0.0,0.0,0.0,0.0,0.0,0.0,0.0,0.0,0.0,0.0,0.0,0.0,0.0,0.0,0.0,0.0,0.0,0.0,0.0,0.0,0.0,0.0,0.0,0.0,0.0,0.0,-1.0032,0.0,-1.2907,-1.3581,-1.2484,-1.1556,0.0,0.0,0.0,0.0,0.0,0.0,0.0,0.0,0.0,0.0,0.0,0.0,0.0,0.0,0.0,0.0,0.0,0.0,0.0,0.0,0.0,0.0,0.0,0.0,0.0,0.0,0.0,0.0,0.0,0.0,0.0,0.0,0.0,0.0,0.0,0.0,0.0,0.0,0.0,0.0,0.0,0.0,0.0,0.0,0.0,0.0,0.0,0.0,0.0,0.0,0.0,0.0,0.0,0.0,0.0,0.0,0.0,0.0,0.0,0.0,0.0,0.0,0.0,0.0,0.0,0.0,0.0,0.0,0.0,0.0,0.0,0.0,0.0,0.0,0.0,0.0,0.0,0.0,0.0,0.0,0.0,0.0,0.0,0.0,0.0,0.0,0.0,0.0,0.0,0.0,0.0,0.0,0.0,0.0,0.0,0.0,0.0,0.0,0.0,0.0,0.0,0.0,0.0,0.0,0.0,0.0,0.0,0.0,-0.9629,-1.2123,-1.4029,-1.4362,-1.3117,-1.3709,-1.2698,0.0,0.0,0.0,0.0,0.0,0.0,0.0,0.0,0.0,0.0,0.0,0.0,0.0,0.0,0.0,0.0,0.0,0.0,0.0,0.0,0.0,0.0,0.0,0.0,0.0,0.0,0.0,0.0,0.0,0.0,0.0,0.0,0.0,0.0,0.0,0.0,0.0,0.0,0.0,0.0,0.0,0.0,0.0,0.0,0.0,0.0,0.0,0.0,0.0,0.0,0.0,0.0,0.0,0.0,0.0,0.0,0.0,0.0,0.0,0.0,0.0,0.0,0.0,0.0,0.0,0.0,0.0,0.0,0.0,0.0,0.0,0.0,0.0,0.0,0.0,0.0,0.0,0.0,0.0,0.0,0.0,0.0,0.0,0.0,0.0,0.0,0.0,0.0,0.0,0.0,0.0,0.0,0.0,0.0,0.0,0.0,0.0,0.0,0.0,0.0,0.0,0.0,0.0,0.0,0.0,0.0,0.0,0.0,0.0,-1.2756,-1.4344,-1.505,-1.4754,-1.387,-1.2937,0.0,0.0,0.0,0.0,0.0,0.0,0.0,0.0,0.0,0.0,0.0,0.0,0.0,0.0,0.0,0.0,0.0,0.0,0.0,0.0,0.0,0.0,0.0,0.0,0.0,0.0,0.0,0.0,0.0,0.0,0.0,0.0,0.0,0.0,0.0,0.0,0.0,0.0,0.0,0.0,0.0,0.0,0.0,0.0,0.0,0.0,0.0,0.0,0.0,0.0,0.0,0.0,0.0,0.0,0.0,0.0,0.0,0.0,0.0,0.0,0.0,0.0,0.0,0.0,0.0,0.0,0.0,0.0,0.0,0.0,0.0,0.0,0.0,0.0,0.0,0.0,0.0,0.0,0.0,0.0,0.0,0.0,0.0,0.0,0.0,0.0,0.0,0.0,0.0,0.0,0.0,0.0,0.0,0.0,0.0,0.0,0.0,0.0,0.0,0.0,0.0,0.0,0.0,0.0,0.0,0.0,0.0,0.0,0.0,-1.4405,-1.5364,-1.5876,-1.5831,-1.4574,-1.3427,-1.2364,0.0,0.0,0.0,0.0,0.0,0.0,0.0,0.0,0.0,0.0,0.0,0.0,0.0,0.0,0.0,0.0,0.0,0.0,0.0,0.0,0.0,0.0,0.0,0.0,0.0,0.0,0.0,0.0,0.0,0.0,0.0,0.0,0.0,0.0,0.0,0.0,0.0,0.0,0.0,0.0,0.0,0.0,0.0,0.0,0.0,0.0,0.0,0.0,0.0,0.0,0.0,0.0,0.0,0.0,0.0,0.0,0.0,0.0,0.0,0.0,0.0,0.0,0.0,0.0,0.0,0.0,0.0,0.0,0.0,0.0,0.0,0.0,0.0,0.0,0.0,0.0,0.0,0.0,0.0,0.0,0.0,0.0,0.0,0.0,0.0,0.0,0.0,0.0,0.0,0.0,0.0,0.0,0.0,0.0,0.0,0.0,0.0,0.0,0.0,0.0,0.0,0.0,0.0,0.0,0.0,0.0,0.0,0.0,-1.67,-1.6932,-1.6794,-1.6306,-1.5737,-1.4202,0.0,0.0,0.0,0.0,0.0,0.0,0.0,0.0,0.0,0.0,0.0,0.0,0.0,0.0,0.0,0.0,0.0,0.0,0.0,0.0,0.0,0.0,0.0,0.0,0.0,0.0,0.0,0.0,0.0,0.0,0.0,0.0,0.0,0.0,0.0,0.0,0.0,0.0,0.0,0.0,0.0,0.0,0.0,0.0,0.0,0.0,0.0,0.0,0.0,0.0,0.0,0.0,0.0,0.0,0.0,0.0,0.0,0.0,0.0,0.0,0.0,0.0,0.0,0.0,0.0,0.0,0.0,0.0,0.0,0.0,0.0,0.0,0.0,0.0,0.0,0.0,0.0,0.0,0.0,0.0,0.0,0.0,0.0,0.0,0.0,0.0,0.0,0.0,0.0,0.0,0.0,0.0,0.0,0.0,0.0,0.0,0.0,0.0,0.0,0.0,0.0,0.0,0.0,0.0,0.0,0.0,0.0,0.0,0.0,-1.6775,-1.7331,-1.7457,-1.7143,-1.6433,-1.5262,0.0,0.0,0.0,0.0,0.0,0.0,0.0,0.0,0.0,0.0,0.0,0.0,0.0,0.0,0.0,0.0,0.0,0.0,0.0,0.0,0.0,0.0,0.0,0.0,0.0,0.0,0.0,0.0,0.0,0.0,0.0,0.0,0.0,0.0,0.0,0.0,0.0,0.0,0.0,0.0,0.0,0.0,0.0,0.0,0.0,0.0,0.0,0.0,0.0,0.0,0.0,0.0,0.0,0.0,0.0,0.0,0.0,0.0,0.0,0.0,0.0,0.0,0.0,0.0,0.0,0.0,0.0,0.0,0.0,0.0,0.0,0.0,0.0,0.0,0.0,0.0,0.0,0.0,0.0,0.0,0.0,0.0,0.0,0.0,0.0,0.0,0.0,0.0,0.0,0.0,0.0,0.0,0.0,0.0,0.0,0.0,0.0,0.0,0.0,0.0,0.0,0.0,0.0,0.0,0.0,0.0,0.0,0.0,-1.5512,-1.7353,-1.8133,-1.8543,-1.8433,-1.7233,-1.6021,0.0,0.0,0.0,0.0,0.0,0.0,0.0,0.0,0.0,0.0,0.0,0.0,0.0,0.0,0.0,0.0,0.0,0.0,0.0,0.0,0.0,0.0,0.0,0.0,0.0,0.0,0.0,0.0,0.0,0.0,0.0,0.0,0.0,0.0,0.0,0.0,0.0,0.0,0.0,0.0,0.0,0.0,0.0,0.0,0.0,0.0,0.0,0.0,0.0,0.0,0.0,0.0,0.0,0.0,0.0,0.0,0.0,0.0,0.0,0.0,0.0,0.0,0.0,0.0,0.0,0.0,0.0,0.0,0.0,0.0,0.0,0.0,0.0,0.0,0.0,0.0,0.0,0.0,0.0,0.0,0.0,0.0,0.0,0.0,0.0,0.0,0.0,0.0,0.0,0.0,0.0,0.0,0.0,0.0,0.0,0.0,0.0,0.0,0.0,0.0,0.0,0.0,0.0,0.0,0.0,0.0,0.0,0.0,-1.6754,-1.7955,-1.9039,-1.965,-1.9743,-1.7994,-1.6499,0.0,0.0,0.0,0.0,0.0,0.0,0.0,0.0,0.0,0.0,0.0,0.0,0.0,0.0,0.0,0.0,0.0,0.0,0.0,0.0,0.0,0.0,0.0,0.0,0.0,0.0,0.0,0.0,0.0,0.0,0.0,0.0,0.0,0.0,0.0,0.0,0.0,0.0,0.0,0.0,0.0,0.0,0.0,0.0,0.0,0.0,0.0,0.0,0.0,0.0,0.0,0.0,0.0,0.0,0.0,0.0,0.0,0.0,0.0,0.0,0.0,0.0,0.0,0.0,0.0,0.0,0.0,0.0,0.0,0.0,0.0,0.0,0.0,0.0,0.0,0.0,0.0,0.0,0.0,0.0,0.0,0.0,0.0,0.0,0.0,0.0,0.0,0.0,0.0,0.0,0.0,0.0,0.0,0.0,0.0,0.0,0.0,0.0,0.0,0.0,0.0,0.0,0.0,0.0,0.0,0.0,0.0,0.0,-1.6085,-1.7737,-1.8862,-1.9751,-2.0363,-1.8466,-1.6784,0.0,0.0,0.0,0.0,0.0,0.0,0.0,0.0,0.0,0.0,0.0,0.0,0.0,0.0,0.0,0.0,0.0,0.0,0.0,0.0,0.0,0.0,0.0,0.0,0.0,0.0,0.0,0.0,0.0,0.0,0.0,0.0,0.0,0.0,0.0,0.0,0.0,0.0,0.0,0.0,0.0,0.0,0.0,0.0,0.0,0.0,0.0,0.0,-1.9793,0.0,0.0,0.0,0.0,0.0,0.0,0.0,0.0,0.0,0.0,0.0,0.0,0.0,0.0,0.0,0.0,0.0,0.0,0.0,0.0,0.0,0.0,0.0,0.0,0.0,0.0,0.0,0.0,0.0,0.0,0.0,0.0,0.0,0.0,0.0,0.0,0.0,0.0,0.0,0.0,0.0,0.0,0.0,0.0,0.0,0.0,0.0,0.0,0.0,0.0,0.0,0.0,0.0,0.0,0.0,0.0,0.0,0.0,0.0,-1.6391,-1.8012,-1.9269,-1.9925,-1.994,-1.9209,-1.7922,0.0,0.0,0.0,0.0,0.0,0.0,0.0,0.0,0.0,0.0,0.0,0.0,0.0,0.0,0.0,0.0,0.0,0.0,0.0,0.0,0.0,0.0,0.0,0.0,0.0,0.0,0.0,0.0,0.0,0.0,0.0,0.0,0.0,0.0,0.0,0.0,0.0,0.0,0.0,0.0,0.0,0.0,0.0,0.0,0.0,0.0,0.0,0.0,0.0,0.0,0.0,0.0,0.0,0.0,0.0,0.0,0.0,0.0,0.0,0.0,0.0,0.0,0.0,0.0,0.0,0.0,0.0,0.0,0.0,0.0,0.0,0.0,0.0,0.0,0.0,0.0,0.0,0.0,0.0,0.0,0.0,0.0,0.0,0.0,0.0,0.0,0.0,0.0,0.0,0.0,0.0,0.0,0.0,0.0,0.0,0.0,0.0,0.0,0.0,0.0,0.0,0.0,0.0,0.0,0.0,0.0,0.0,-1.5598,-1.6933,-1.8516,-1.9764,-2.0085,-1.9401,-2.0063,-1.9254,-1.6695,0.0,0.0,0.0,0.0,0.0,0.0,0.0,0.0,0.0,0.0,0.0,0.0,0.0,0.0,0.0,0.0,0.0,0.0,0.0,0.0,0.0,0.0,0.0,0.0,0.0,0.0,0.0,0.0,0.0,0.0,0.0,0.0,0.0,0.0,0.0,0.0,0.0,0.0,-1.1112,-1.3269,0.0,0.0,0.0,0.0,0.0,0.0,0.0,0.0,-2.2307,0.0,0.0,0.0,0.0,0.0,0.0,0.0,0.0,0.0,0.0,0.0,0.0,0.0,0.0,0.0,0.0,0.0,0.0,0.0,0.0,0.0,0.0,0.0,0.0,0.0,0.0,0.0,0.0,0.0,0.0,0.0,0.0,0.0,0.0,0.0,0.0,0.0,0.0,0.0,0.0,0.0,0.0,0.0,0.0,0.0,0.0,0.0,0.0,0.0,0.0,0.0,0.0,0.0,0.0,0.0,0.0,-1.6614,-1.5936,-1.678,-1.9249,-1.9696,-1.987,-1.972,-2.0678,-1.9892,-1.7156,0.0,0.0,0.0,0.0,0.0,0.0,0.0,0.0,0.0,0.0,0.0,0.0,0.0,0.0,0.0,0.0,0.0,0.0,0.0,0.0,0.0,0.0,0.0,0.0,0.0,0.0,0.0,0.0,0.0,0.0,0.0,0.0,0.0,0.0,0.0,0.0,0.0,0.0,0.0,-1.5649,-1.7506,0.0,0.0,0.0,0.0,0.0,0.0,0.0,0.0,-2.4094,0.0,0.0,0.0,0.0,0.0,0.0,0.0,0.0,0.0,0.0,0.0,0.0,0.0,0.0,0.0,0.0,0.0,0.0,0.0,0.0,0.0,0.0,0.0,0.0,0.0,0.0,0.0,0.0,0.0,0.0,0.0,0.0,0.0,0.0,0.0,0.0,0.0,0.0,0.0,0.0,0.0,0.0,0.0,0.0,0.0,0.0,0.0,0.0,0.0,0.0,0.0,0.0,0.0,0.0,0.0,-1.6491,-1.7201,-1.8294,-1.9987,-2.0638,-2.0749,-2.0301,-2.0796,-1.9907,0.0,0.0,0.0,0.0,0.0,0.0,0.0,0.0,0.0,0.0,0.0,0.0,0.0,0.0,0.0,0.0,0.0,0.0,0.0,0.0,0.0,0.0,0.0,0.0,0.0,0.0,0.0,0.0,0.0,0.0,0.0,0.0,0.0,0.0,0.0,0.0,0.0,0.0,0.0,0.0,-1.7024,-1.8869,-2.0239,0.0,0.0,0.0,0.0,0.0,0.0,-2.4524,-2.4579,0.0,0.0,0.0,0.0,0.0,0.0,0.0,0.0,0.0,0.0,0.0,0.0,0.0,0.0,0.0,0.0,0.0,0.0,0.0,0.0,0.0,0.0,0.0,0.0,0.0,0.0,0.0,0.0,0.0,0.0,0.0,0.0,0.0,0.0,0.0,0.0,0.0,0.0,0.0,0.0,0.0,0.0,0.0,0.0,0.0,0.0,0.0,0.0,0.0,0.0,0.0,0.0,0.0,0.0,0.0,-1.6172,-1.8201,-1.9682,-2.0586,-2.1426,-2.1602,-2.0933,-2.0899,-1.9958,0.0,0.0,0.0,0.0,0.0,0.0,0.0,0.0,0.0,0.0,0.0,0.0,0.0,0.0,0.0,0.0,0.0,0.0,0.0,0.0,0.0,0.0,0.0,0.0,0.0,0.0,0.0,0.0,0.0,0.0,0.0,0.0,0.0,0.0,0.0,0.0,0.0,0.0,0.0,0.0,0.0,-2.0452,-2.2153,-2.2502,0.0,0.0,0.0,0.0,-2.4713,-2.5105,0.0,0.0,0.0,0.0,0.0,0.0,0.0,0.0,0.0,0.0,0.0,0.0,0.0,0.0,0.0,0.0,0.0,0.0,0.0,0.0,0.0,0.0,0.0,0.0,0.0,0.0,0.0,0.0,0.0,0.0,0.0,0.0,0.0,0.0,0.0,0.0,0.0,0.0,0.0,0.0,0.0,0.0,0.0,0.0,0.0,0.0,0.0,0.0,0.0,0.0,0.0,0.0,0.0,0.0,0.0,0.0,-1.6147,-1.7782,-1.9349,-2.0874,-2.1123,-2.1344,-2.1671,-2.1455,-2.0439,0.0,0.0,0.0,0.0,0.0,0.0,0.0,0.0,0.0,0.0,0.0,0.0,0.0,0.0,0.0,0.0,0.0,0.0,0.0,0.0,0.0,0.0,0.0,0.0,0.0,0.0,0.0,0.0,0.0,0.0,0.0,0.0,0.0,0.0,0.0,0.0,0.0,0.0,0.0,0.0,0.0,-2.3244,-2.3101,-2.3936,-2.4435,0.0,0.0,-2.6464,-2.6587,-2.7898,0.0,0.0,0.0,0.0,0.0,0.0,0.0,0.0,0.0,0.0,0.0,0.0,0.0,0.0,0.0,0.0,0.0,0.0,0.0,0.0,0.0,0.0,0.0,0.0,0.0,0.0,0.0,0.0,0.0,0.0,0.0,0.0,0.0,0.0,0.0,0.0,0.0,0.0,0.0,0.0,0.0,0.0,0.0,0.0,0.0,0.0,0.0,0.0,0.0,0.0,0.0,0.0,0.0,0.0,0.0,-1.5238,-1.7067,-1.9275,-2.0833,-2.1657,-2.1935,-2.2261,-2.2632,-2.1179,-1.9822,0.0,0.0,0.0,0.0,0.0,0.0,0.0,0.0,0.0,0.0,0.0,0.0,0.0,0.0,0.0,0.0,0.0,0.0,0.0,0.0,0.0,0.0,0.0,0.0,0.0,0.0,0.0,0.0,0.0,0.0,0.0,0.0,0.0,0.0,0.0,0.0,0.0,0.0,0.0,0.0,0.0,0.0,-2.4615,-2.5291,0.0,0.0,0.0,-2.6731,-2.6289,0.0,0.0,0.0,0.0,0.0,0.0,0.0,0.0,0.0,0.0,0.0,0.0,0.0,0.0,0.0,0.0,0.0,0.0,0.0,0.0,0.0,0.0,0.0,0.0,0.0,0.0,0.0,0.0,0.0,0.0,0.0,0.0,0.0,0.0,0.0,0.0,0.0,0.0,0.0,0.0,0.0,0.0,0.0,0.0,0.0,0.0,0.0,0.0,0.0,0.0,0.0,0.0,0.0,0.0,0.0,0.0,0.0,-1.7479,-2.0416,-2.2047,-2.2375,-2.2652,-2.2966,-2.3251,-2.1309,0.0,0.0,0.0,0.0,0.0,0.0,0.0,0.0,0.0,0.0,0.0,0.0,0.0,0.0,0.0,0.0,0.0,0.0,0.0,0.0,0.0,0.0,0.0,0.0,0.0,0.0,0.0,-0.9824,0.0,0.0,0.0,0.0,0.0,0.0,0.0,0.0,0.0,0.0,0.0,0.0,0.0,0.0,-2.4723,-2.5914,-2.642,-2.6843,0.0,0.0,-2.7097,-2.6715,-2.8406,-2.9201,0.0,0.0,0.0,0.0,0.0,0.0,0.0,0.0,0.0,0.0,0.0,0.0,0.0,0.0,0.0,0.0,0.0,0.0,0.0,0.0,0.0,0.0,0.0,0.0,0.0,0.0,0.0,0.0,0.0,0.0,0.0,0.0,0.0,0.0,0.0,0.0,0.0,0.0,0.0,0.0,0.0,0.0,0.0,0.0,0.0,0.0,0.0,0.0,0.0,0.0,0.0,0.0,0.0,0.0,0.0,-1.6948,-2.0183,-2.2198,-2.2825,-2.2807,-2.296,-2.328,-2.2477,-2.0532,0.0,0.0,0.0,0.0,0.0,0.0,0.0,0.0,0.0,0.0,0.0,0.0,0.0,0.0,0.0,0.0,0.0,0.0,0.0,0.0,0.0,0.0,0.0,0.0,0.0,0.0,0.0,0.0,0.0,0.0,0.0,0.0,0.0,0.0,0.0,0.0,0.0,0.0,0.0,0.0,0.0,-2.6905,-2.66,-2.721,-2.8074,0.0,0.0,-2.8378,-2.9111,-2.9988,-3.0015,-2.8223,0.0,0.0,0.0,0.0,0.0,0.0,0.0,0.0,0.0,0.0,0.0,0.0,0.0,0.0,0.0,0.0,0.0,0.0,0.0,0.0,0.0,0.0,0.0,0.0,0.0,0.0,0.0,0.0,0.0,0.0,0.0,0.0,0.0,0.0,0.0,0.0,0.0,0.0,0.0,0.0,0.0,0.0,0.0,0.0,0.0,0.0,0.0,0.0,0.0,0.0,0.0,0.0,0.0,-1.7222,-1.7763,-2.0814,-2.2339,-2.2228,-2.2227,-2.2249,-2.2325,-2.1753,-2.0257,0.0,0.0,0.0,0.0,0.0,0.0,0.0,0.0,0.0,0.0,0.0,0.0,0.0,0.0,0.0,0.0,0.0,0.0,0.0,0.0,0.0,0.0,0.0,0.0,0.0,0.0,0.0,0.0,-1.3642,-1.3911,-1.4324,0.0,0.0,0.0,0.0,0.0,0.0,0.0,0.0,0.0,0.0,-2.6925,-2.8087,-2.8528,0.0,0.0,-2.9221,-2.8925,-2.8723,-2.9304,-2.9195,-2.7526,-2.715,0.0,0.0,0.0,0.0,0.0,0.0,0.0,0.0,0.0,0.0,0.0,0.0,0.0,0.0,0.0,0.0,0.0,0.0,0.0,0.0,0.0,0.0,0.0,0.0,0.0,0.0,0.0,0.0,0.0,0.0,0.0,0.0,0.0,0.0,0.0,0.0,0.0,0.0,0.0,0.0,0.0,0.0,0.0,0.0,0.0,0.0,0.0,0.0,0.0,0.0,0.0,0.0,-1.7689,-1.8043,-2.1158,-2.2372,-2.1557,-2.19,-2.1926,-2.1589,-2.1308,-2.0111,0.0,0.0,0.0,0.0,0.0,0.0,0.0,0.0,0.0,0.0,0.0,0.0,0.0,0.0,0.0,0.0,0.0,0.0,0.0,0.0,0.0,0.0,0.0,0.0,0.0,0.0,0.0,0.0,-1.48,-1.506,-1.5541,0.0,0.0,0.0,0.0,0.0,0.0,0.0,0.0,0.0,0.0,-2.7351,-2.8666,-2.8888,-2.8954,-2.91,-2.8896,-2.8605,-2.8217,-2.8565,-2.8461,-2.7308,0.0,0.0,0.0,0.0,0.0,0.0,0.0,0.0,0.0,0.0,0.0,0.0,0.0,0.0,0.0,0.0,0.0,0.0,0.0,0.0,0.0,0.0,0.0,0.0,0.0,0.0,0.0,0.0,0.0,0.0,-2.1042,0.0,0.0,0.0,0.0,0.0,0.0,0.0,0.0,0.0,0.0,0.0,0.0,0.0,0.0,0.0,0.0,0.0,0.0,0.0,0.0,0.0,0.0,-1.7981,-1.7506,-2.1027,-2.224,-2.1008,-2.192,-2.2037,-2.1312,-2.1424,-2.0289,-1.7807,0.0,0.0,0.0,0.0,0.0,0.0,0.0,0.0,0.0,0.0,0.0,0.0,0.0,0.0,0.0,0.0,0.0,0.0,0.0,0.0,0.0,0.0,0.0,0.0,0.0,0.0,-1.4499,-1.4909,-1.5661,0.0,0.0,0.0,0.0,0.0,0.0,0.0,0.0,0.0,0.0,-2.6545,-2.856,-2.7943,-2.7958,-2.8126,-2.827,-2.7554,-2.7257,-2.7994,-2.8112,-2.8072,0.0,0.0,0.0,0.0,0.0,0.0,0.0,0.0,0.0,0.0,0.0,0.0,0.0,0.0,0.0,0.0,0.0,0.0,0.0,0.0,0.0,0.0,0.0,0.0,0.0,0.0,0.0,-2.285,-2.2803,0.0,0.0,0.0,0.0,0.0,0.0,0.0,0.0,0.0,0.0,0.0,-2.2353,-2.2205,0.0,0.0,0.0,0.0,0.0,0.0,0.0,0.0,0.0,0.0,0.0,0.0,-1.851,-1.8394,-2.0939,-2.1867,-2.101,-2.0838,-2.0552,-2.0049,-2.0417,-1.9932,-1.848,0.0,0.0,0.0,0.0,0.0,0.0,0.0,0.0,0.0,0.0,0.0,0.0,0.0,0.0,0.0,0.0,0.0,0.0,0.0,0.0,0.0,0.0,0.0,0.0,0.0,-1.7814,0.0,0.0,0.0,0.0,0.0,0.0,0.0,0.0,0.0,0.0,0.0,-2.3444,-2.5581,-2.6622,-2.733,-2.774,-2.7988,-2.8357,0.0,0.0,0.0,0.0,0.0,0.0,0.0,0.0,0.0,0.0,0.0,0.0,0.0,0.0,-2.6081,-2.5525,-2.5897,-2.627,-2.6181,0.0,0.0,0.0,0.0,0.0,0.0,0.0,0.0,0.0,0.0,0.0,0.0,0.0,0.0,0.0,0.0,-2.2703,0.0,0.0,0.0,0.0,0.0,0.0,0.0,0.0,-2.29,-2.3223,-2.3786,-2.3602,-2.3458,0.0,-2.3235,-2.2347,0.0,0.0,0.0,0.0,0.0,0.0,0.0,0.0,-1.8993,-1.8795,-2.1158,-2.187,-2.0751,-2.0573,-2.0146,-1.9438,-1.9765,-1.9651,-1.9001,-1.7485,-1.6701,0.0,0.0,0.0,0.0,0.0,0.0,0.0,0.0,0.0,0.0,0.0,0.0,0.0,0.0,0.0,0.0,0.0,0.0,0.0,0.0,0.0,0.0,0.0,-1.9391,0.0,0.0,0.0,0.0,0.0,0.0,0.0,0.0,0.0,-2.2771,-2.3441,-2.4724,-2.6804,-2.7185,-2.7322,-2.742,0.0,0.0,0.0,0.0,0.0,0.0,0.0,-2.6562,-2.6313,-2.6146,-2.5962,-2.569,-2.5843,-2.6195,-2.6777,0.0,0.0,-2.6348,-2.66,-2.6916,-2.6868,-2.675,-2.6566,-2.6322,-2.6101,-2.5877,0.0,0.0,0.0,0.0,0.0,0.0,0.0,0.0,-2.3702,-2.3669,0.0,-2.3477,0.0,0.0,0.0,0.0,0.0,0.0,0.0,0.0,-2.3714,-2.4192,-2.4097,-2.437,-2.4515,-2.4518,-2.4154,-2.3902,-2.3696,-2.1969,0.0,0.0,0.0,0.0,0.0,0.0,-1.9429,-1.8818,-2.1658,-2.222,-2.0271,-2.1107,-2.09,-1.9448,-1.9452,-1.9443,-1.9335,-1.896,-1.8956,-1.9394,-1.787,0.0,0.0,0.0,0.0,0.0,0.0,0.0,0.0,0.0,0.0,0.0,0.0,0.0,0.0,0.0,0.0,0.0,0.0,0.0,0.0,-1.873,0.0,0.0,0.0,0.0,0.0,0.0,0.0,0.0,0.0,0.0,-2.4403,-2.5209,-2.6148,-2.6862,0.0,0.0,0.0,0.0,-2.7567,-2.6005,-2.5701,-2.5744,-2.5799,-2.6304,-2.6956,-2.7701,0.0,0.0,-2.6673,-2.6294,-2.6176,-2.625,-2.7341,-2.7901,-2.7233,-2.6959,-2.682,-2.6919,-2.6686,-2.6284,-2.6123,-2.6135,-2.5929,-2.5443,0.0,0.0,0.0,0.0,-2.3325,-2.3684,-2.4131,-2.3988,-2.3972,-2.4006,-2.3912,0.0,0.0,0.0,0.0,0.0,0.0,-2.3375,-2.4308,-2.445,-2.4746,-2.5134,-2.5247,-2.5292,-2.5276,-2.5163,-2.5013,-2.4862,-2.4609,-2.3046,-2.0333,0.0,0.0,0.0,0.0,-1.9707,-2.0283,-2.1599,-2.1852,-2.0908,-2.0669,-2.0056,-1.9011,-1.9236,-1.9555,-1.9994,-2.0127,-2.0285,-2.0443,-1.9124,0.0,0.0,0.0,0.0,0.0,0.0,0.0,0.0,0.0,0.0,0.0,0.0,0.0,0.0,0.0,0.0,0.0,0.0,0.0,-2.0231,-1.9833,-1.9916,0.0,0.0,0.0,0.0,0.0,0.0,0.0,0.0,0.0,-2.5319,-2.5494,-2.5823,0.0,0.0,-2.6246,-2.5822,-2.6635,-2.7312,-2.7432,0.0,0.0,0.0,-2.7472,-2.6827,-2.6949,-2.6916,-2.6981,-2.7304,-2.7619,-2.8074,-2.8644,-2.8782,-2.8738,-2.8788,-2.8734,-2.8586,-2.8467,-2.8264,-2.8006,-2.7653,-2.7451,-2.7259,-2.6396,-2.4941,-2.4648,-2.4051,-2.3301,-2.3399,-2.3676,-2.4013,-2.3894,-2.3902,-2.3952,-2.3867,-2.3435,-2.2732,-2.2544,0.0,0.0,0.0,-2.3785,-2.5041,-2.4756,-2.493,-2.544,-2.5494,-2.5494,-2.5486,-2.5741,-2.577,-2.553,-2.5291,-2.4032,-2.1772,0.0,0.0,-1.8993,-1.9842,-2.0679,-2.144,-2.2106,-2.2197,-2.1714,-2.0665,-1.9838,-1.9344,-1.9305,-1.9595,-2.0236,-2.0855,-2.1324,-2.1702,-2.1039,-2.0146,0.0,0.0,0.0,0.0,0.0,0.0,0.0,0.0,0.0,0.0,0.0,-1.9245,-1.6762,0.0,0.0,0.0,-2.0284,-2.1326,-2.2464,-2.1835,0.0,0.0,0.0,0.0,0.0,0.0,0.0,-2.456,-2.576,-2.6477,-2.6126,-2.6197,-2.6463,-2.6945,-2.6892,-2.6718,-2.6504,0.0,-2.7992,-2.8172,-2.7936,-2.7903,-2.8379,-2.7544,-2.6873,-2.7083,-2.7349,-2.7611,-2.8039,-2.8407,-2.8874,-2.9507,-2.9464,-2.9246,-2.936,-2.9453,-2.9433,-2.9156,-2.8938,-2.8707,-2.8335,-2.8228,-2.8053,-2.7079,-2.5811,-2.4784,-2.404,-2.3522,-2.3514,-2.3562,-2.3662,-2.3684,-2.3684,-2.3641,-2.362,-2.3383,-2.2988,-2.2531,0.0,0.0,-2.3309,-2.3856,-2.4863,-2.4704,-2.4887,-2.5232,-2.5248,-2.5286,-2.5286,-2.5893,-2.6049,-2.5697,-2.4679,-2.384,-2.327,-2.334,-2.2538,-2.0964,-2.1444,-2.1949,-2.2345,-2.2964,-2.2993,-2.2437,-2.0929,-2.0104,-2.0132,-1.9664,-1.9706,-2.0308,-2.1243,-2.2152,-2.2978,-2.3206,-2.2964,-2.2174,0.0,0.0,0.0,0.0,0.0,0.0,0.0,0.0,0.0,0.0,0.0,0.0,0.0,0.0,0.0,-2.1552,0.0,-2.4173,-2.4294,0.0,0.0,0.0,-2.512,-2.6674,-2.6036,-2.5757,-2.6477,0.0,0.0,-2.6887,0.0,-2.7746,-2.8712,-2.8936,-2.8763,-2.8083,-2.8764,-2.9201,-2.832,-2.7664,-2.7201,-2.7293,-2.7079,-2.7119,-2.7594,-2.838,-2.8622,-2.872,-2.8564,-2.877,-2.953,-2.9476,-2.9311,-2.9141,-2.9178,-2.9246,-2.8857,-2.8777,-2.8669,-2.8423,-2.8362,-2.8291,-2.6016,-2.5218,-2.4932,-2.4407,-2.3724,-2.3724,-2.3975,-2.4373,-2.4388,-2.4358,-2.4283,-2.429,-2.3829,-2.3047,-2.2841,-2.305,-2.3568,-2.3883,-2.4289,-2.4696,-2.4981,-2.5036,-2.4855,-2.5005,-2.4997,-2.4879,-2.5145,-2.5043,-2.4534,-2.4476,-2.3638,-2.2112,-2.2329,-2.2002,-2.1206,-2.1394,-2.1899,-2.2746,-2.2956,-2.274,-2.2059,-2.0933,-2.0354,-2.0416,-2.0366,-2.07,-2.1381,-2.1737,-2.241,-2.3382,-2.3395,-2.3148,-2.2655,-2.1838,0.0,0.0,0.0,0.0,0.0,0.0,0.0,0.0,0.0,-2.2015,-1.8099,0.0,-2.4606,0.0,-2.4113,-2.52,-2.5318,-2.5161,0.0,0.0,-2.5329,-2.5588,-2.6282,-2.6881,-2.6982,-2.6345,-2.6999,-2.7582,-2.777,-2.8092,-2.8702,-2.9738,-2.8916,-2.7894,-2.72,-2.8437,-2.9123,-2.8433,-2.8574,-2.8651,-2.793,-2.7785,-2.7556,-2.7123,-2.717,-2.7542,-2.869,-2.8251,-2.822,-2.9427,-2.8932,-2.8407,-2.844,-2.7822,-2.7299,-2.7209,-2.8027,-2.877,-2.8484,-2.8336,-2.8174,-2.5447,-2.4806,-2.4806,-2.4407,-2.3739,-2.3789,-2.3921,-2.4171,-2.4134,-2.4112,-2.4045,-2.3955,-2.3613,-2.3097,-2.2947,-2.3187,-2.3716,-2.3986,-2.4362,-2.4783,-2.491,-2.4879,-2.4657,-2.4767,-2.4775,-2.4649,-2.4926,-2.4978,-2.4809,-2.4351,-2.3653,-2.2696,-2.224,-2.1851,-2.1537,-2.1079,-2.1288,-2.2095,-2.2402,-2.2509,-2.242,-2.1814,-2.1283,-2.0744,-2.0718,-2.0784,-2.0947,-2.0982,-2.1491,-2.2491,-2.2596,-2.2632,-2.2748,-2.2132,-2.1546,0.0,0.0,0.0,0.0,0.0,0.0,0.0,0.0,0.0,0.0,0.0,-2.5861,0.0,-2.566,0.0,-2.6097,-2.5862,-2.589,-2.6371,-2.6413,-2.6664,-2.736,-2.7852,-2.7873,-2.7302,-2.788,-2.8371,-2.8503,-2.8938,-2.9336,-2.9625,-2.93,-2.8917,-2.8577,-2.9059,-2.9231,-2.8821,-2.8874,-2.851,-2.7303,-2.7298,-2.7438,-2.7392,-2.7572,-2.8132,-2.9167,-2.8669,-2.8445,-2.9386,-2.8559,-2.7715,-2.7993,-2.7406,-2.6731,-2.6671,-2.7526,-2.8237,-2.8069,-2.8232,-2.8379,-2.4909,-2.4462,-2.441,-2.406,-2.3595,-2.3696,-2.3703,-2.3559,-2.3545,-2.3473,-2.3414,-2.3171,-2.3089,-2.3045,-2.2947,-2.3224,-2.3794,-2.3879,-2.4238,-2.4854,-2.4678,-2.4597,-2.4549,-2.4549,-2.4556,-2.4556,-2.4902,-2.519,-2.5447,-2.4204,-2.3671,-2.374,-2.2418,-2.1687,-2.1516,-2.0565,-2.0481,-2.1281,-2.1717,-2.2247,-2.2919,-2.277,-2.2113,-2.0982,-2.0797,-2.0499,-1.9935,-1.9941,-2.0377,-2.124,-2.1545,-2.2057,-2.2772,-2.2335,-2.1999,0.0,-2.1369,0.0,0.0,0.0,0.0,0.0,0.0,0.0,0.0,-2.5772,-2.6723,-2.6963,-2.6606,-2.6468,-2.6808,-2.6667,-2.6886,-2.7753,-2.7705,-2.7955,-2.8777,-2.8678,-2.8527,-2.8536,-2.8794,-2.9006,-2.9055,-2.9661,-2.978,-2.9284,-2.967,-3.0056,-3.0259,-2.9745,-2.9333,-2.9279,-2.8507,-2.7366,-2.6233,-2.6387,-2.7062,-2.7741,-2.8372,-2.9212,-2.9493,-2.9069,-2.876,-2.8968,-2.8003,-2.7256,-2.7665,-2.7168,-2.66,-2.613,-2.6799,-2.7449,-2.7629,-2.8185,-2.8691,-2.3548,-2.3746,-2.34,-2.3334,-2.3494,-2.3553,-2.3553,-2.3502,-2.3502,-2.3378,-2.3171,-2.2978,-2.2917,-2.2848,-2.2848,-2.2992,-2.3297,-2.3653,-2.3967,-2.42,-2.4467,-2.4515,-2.4343,-2.4343,-2.431,-2.4284,-2.4678,-2.4704,-2.4388,-2.3819,-2.3088,-2.2307,-2.1334,-2.0608,-2.0172,0.0,0.0,0.0,-2.1831,-2.1715,-2.2083,-2.161,-2.1097,-2.0541,-2.0849,0.0,-2.0049,-2.0552,-2.0977,-2.13,-2.1893,0.0,0.0,0.0,0.0,0.0,0.0,0.0,0.0,0.0,0.0,0.0,-2.4986,-2.469,-2.4595,-2.58,-2.682,-2.7312,-2.7213,-2.7377,-2.806,-2.8249,-2.8312,-2.8375,-2.8549,-2.8679,-2.8543,-2.8603,-2.8678,-2.8669,-2.885,-2.9051,-2.9242,-2.9759,-3.0027,-2.9832,-2.9613,-2.9476,-2.9496,-2.9417,-2.9114,-2.8432,-2.7211,-2.6154,-2.5693,-2.6265,-2.6786,-2.712,-2.7751,-2.8232,-2.8197,-2.8123,-2.7908,-2.7878,-2.7034,-2.6371,-2.6409,-2.5632,-2.5055,-2.4727,-2.5289,-2.6078,-2.7333,-2.8202,-2.8776,-2.2634,0.0,-2.2823,-2.2927,0.0,-2.3319,-2.3363,-2.3327,-2.329,-2.3216,-2.3,-2.2917,-2.2833,-2.2802,-2.2735,-2.2797,-2.3024,-2.3421,-2.3696,-2.3925,-2.4261,-2.4392,-2.431,-2.4276,-2.4242,-2.42,-2.3963,-2.3904,-2.3986,-2.3048,-2.2482,-2.2344,-2.1488,-2.0936,-2.0679,-2.0615,-2.1011,-2.1855,-2.1384,-2.1429,-2.1979,-2.2173,-2.1841,-2.096,0.0,0.0,0.0,0.0,0.0,0.0,0.0,0.0,0.0,0.0,0.0,-2.5017,-2.5359,-2.5578,-2.563,-2.5688,-2.6127,-2.7004,-2.7126,-2.6908,-2.6283,-2.7152,-2.7812,-2.7961,-2.7904,-2.7982,-2.8308,-2.8612,-2.8734,-2.8764,-2.8815,-2.8801,-2.87,-2.8594,-2.8562,-2.8653,-2.8791,-2.8929,-2.9163,-2.9635,-2.9959,-2.9968,-2.9513,-2.9127,-2.9119,-2.8912,-2.8452,-2.7674,-2.6514,-2.5666,-2.5632,-2.5862,-2.634,-2.6684,-2.7119,-2.745,-2.7618,-2.7355,-2.716,-2.7239,-2.6413,-2.5603,-2.5812,-2.5229,-2.455,-2.4394,-2.4883,-2.559,-2.6484,-2.746,-2.841,-2.1981,-2.2081,-2.2314,-2.2505,-2.2663,-2.2882,-2.2889,-2.2792,0.0,0.0,0.0,-2.2781,-2.2749,-2.2711,-2.2622,-2.2692,-2.2897,-2.3143,-2.3457,-2.3789,-2.4051,-2.4227,-2.4276,-2.4216,-2.4124,-2.4094,-2.3292,-2.3231,-2.3774,-2.2326,-2.1961,-2.254,-2.1854,-2.1472,-2.155,-2.1648,-2.1453,-2.1064,-2.0914,-2.115,-2.1829,-2.2607,-2.2376,-2.1057,-2.1747,-2.1884,-2.1465,-2.1179,-2.1532,-2.2564,-2.2735,-2.3283,-2.4372,-2.4505,-2.4899,-2.5651,-2.5967,-2.641,-2.7068,-2.7401,-2.7857,-2.8542,-2.881,-2.8718,-2.8084,-2.8521,-2.8703,-2.8475,-2.8353,-2.8237,-2.8146,-2.8396,-2.8676,-2.8855,-2.8788,-2.874,-2.8808,-2.8558,-2.8406,-2.8492,-2.8603,-2.8767,-2.9043,-2.9317,-2.96,-2.9602,-2.9174,-2.8775,-2.8635,-2.8169,-2.759,-2.682,-2.6069,-2.5625,-2.56,-2.5566,-2.5766,-2.632,-2.6587,-2.6834,-2.7004,-2.6785,-2.6641,-2.682,-2.5796,-2.5305,-2.554,-2.5197,-2.471,-2.4373,-2.492,-2.5503,-2.5605,-2.6434,-2.7508,-2.1568,-2.1894,-2.1424,-2.165,-2.2321,-2.1988,-2.1697,-2.1568,-2.2438,-2.2841,-2.2788,-2.2668,-2.2569,-2.247,-2.2417,-2.2548,-2.2709,-2.2785,-2.3157,0.0,-2.3739,-2.3882,-2.42,-2.4074,-2.3982,-2.3829,-2.3425,-2.3248,-2.3118,-2.2129,-2.1832,-2.2042,-2.1399,-2.1103,-2.1309,-2.1254,-2.1213,-2.126,-2.0854,-2.0708,-2.0808,-2.0726,-2.031,-1.9592,-2.0059,-2.0329,-2.0416,-2.0996,-2.1829,-2.3038,-2.365,-2.4408,-2.5323,-2.5648,-2.6161,-2.6878,-2.7394,-2.7759,-2.7912,-2.8067,-2.828,-2.8578,-2.8737,-2.8779,-2.8688,-2.8615,-2.8448,-2.8264,-2.8054,-2.7876,-2.7867,-2.8102,-2.8317,-2.8422,-2.8581,-2.8606,-2.8387,-2.8405,-2.8353,-2.8138,-2.8344,-2.8648,-2.8914,-2.8848,-2.882,-2.8835,-2.8431,-2.775,-2.719,-2.6987,-2.6649,-2.6013,-2.5756,-2.5661,-2.5603,-2.5551,-2.5599,-2.5632,-2.6233,-2.6408,-2.5938,-2.6197,-2.6242,-2.5677,-2.5265,-2.5111,-2.5253,-2.5027,-2.478,-2.4654,-2.4762,-2.4895,-2.5329,-2.5695,-2.6108,-2.0795,-2.0999,-2.0944,-2.114,-2.1458,-2.1431,-2.1293,-2.1124,-2.1518,-2.1924,-2.2252,-2.2137,-2.2184,-2.2377,-2.2331,-2.2317,-2.2441,-2.2466,-2.2649,-2.2965,-2.2995,-2.3106,-2.3297,-2.3443,-2.3487,-2.3376,-2.2645,-2.2419,-2.2424,-2.1259,-2.0787,-2.108,-2.0663,-2.0538,-2.0654,-2.0687,-2.072,-2.0648,-2.0639,-2.0635,-2.0594,-2.0654,-2.0487,-2.0108,-2.0798,-2.1454,-2.1979,-2.2702,-2.3586,-2.4629,-2.5163,-2.5665,-2.6167,-2.6396,-2.6727,-2.7062,-2.7465,-2.7677,-2.7707,-2.8025,-2.8273,-2.8493,-2.8578,-2.8628,-2.8628,-2.8413,-2.8317,-2.8405,-2.8119,-2.798,-2.8119,-2.8369,-2.8516,-2.8414,-2.8525,-2.8456,-2.8165,-2.8073,-2.8036,-2.7991,-2.8201,-2.8491,-2.8706,-2.8535,-2.842,-2.8477,-2.7769,-2.6817,-2.6044,-2.5985,-2.597,-2.5668,-2.5663,-2.5698,-2.566,-2.5605,-2.554,-2.546,-2.5745,-2.5778,-2.5361,-2.5658,-2.5599,-2.5298,-2.5091,-2.5016,-2.499,-2.4883,-2.476,-2.4594,-2.4591,-2.4707,-2.491,-2.4903,-2.5309,-2.0125,-2.0118,-2.0416,-2.051,-2.0553,-2.0982,-2.0946,-2.0599,-2.059,-2.0901,-2.134,-2.1458,-2.1807,-2.213,-2.213,-2.2123,-2.213,-2.2102,-2.2135,-2.2235,-2.2282,-2.2374,-2.2466,-2.274,-2.2817,-2.268,-2.1757,-2.1423,-2.1492,-2.0295,-1.9823,-2.0074,-2.0127,-2.0073,-2.005,-2.0154,-2.0162,-2.0065,-2.0289,-2.0452,-2.0473,-2.0704,-2.0786,-2.0632,-2.1316,-2.217,-2.3173,-2.3758,-2.458,-2.5644,-2.6099,-2.6417,-2.6539,-2.6759,-2.6926,-2.7016,-2.7256,-2.7404,-2.7426,-2.7748,-2.8053,-2.8137,-2.821,-2.8246,-2.8228,-2.7992,-2.8038,-2.8404,-2.8174,-2.8027,-2.8237,-2.8404,-2.8525,-2.837,-2.8282,-2.8129,-2.7897,-2.7733,-2.7675,-2.782,-2.8045,-2.8299,-2.8479,-2.8237,-2.7844,-2.7437,-2.6776,-2.5958,-2.5409,-2.533,-2.543,-2.5525,-2.5637,-2.5683,-2.5664,-2.5412,-2.5342,-2.536,-2.5246,-2.5215,-2.5168,-2.5243,-2.5223,-2.5185,-2.4874,-2.4676,-2.4593,-2.4344,-2.4233,-2.4145,-2.4226,-2.4382,-2.4541,-2.4503,-2.4709,-1.9978,-1.9811,-1.9766,-1.9662,-1.9662,-2.059,-2.0396,-1.9503,-1.9881,-2.0035,-2.0118,-2.1019,-2.1416,-2.1513,-2.1752,-2.18,-2.18,-2.1609,-2.1657,-2.1942,-2.1888,-2.2023,-2.2221,-2.2088,-2.1946,-2.1786,-2.0948,-2.0486,-2.0419,-1.9609,-1.9303,-1.9588,-1.9917,-2.0007,-1.9907,-1.9803,-1.9775,-1.9831,-1.9703,-1.9782,-2.01,-2.0122,-2.0053,-1.9888,-1.9999,-2.0778,-2.2324,-2.2483,-2.331,-2.4931,-2.5577,-2.5933,-2.6085,-2.6572,-2.6917,-2.6975,-2.7256,-2.7426,-2.7496,-2.7591,-2.7565,-2.7426,-2.747,-2.7538,-2.7508,-2.7238,-2.74,-2.8036,-2.7989,-2.7858,-2.7897,-2.7809,-2.7818,-2.7926,-2.7725,-2.747,-2.7478,-2.7439,-2.7474,-2.7539,-2.7818,-2.8192,-2.8544,-2.7766,-2.6647,-2.583,-2.5602,-2.5344,-2.5252,-2.5273,-2.534,-2.5432,-2.5566,-2.5634,-2.5535,-2.489,-2.4774,-2.525,-2.4848,-2.4716,-2.5008,-2.5226,-2.5196,-2.5005,-2.4548,-2.4064,-2.3803,-2.343,-2.306,-2.3526,-2.3724,-2.3879,-2.4388,-2.4515,-2.4684,-1.9629,-1.9565,-1.9512,-1.942,-1.9374,-1.9779,-1.9625,-1.9123,-1.9232,-1.9273,-1.9316,-1.9952,-2.0446,-2.0838,-2.1097,-2.1104,-2.0838,-2.0815,-2.0852,-2.0937,-2.0752,-2.0795,-2.1035,-2.1272,-2.1213,-2.0854,-2.0297,-1.9993,-1.9792,-1.9306,-1.9078,-1.9087,-1.9206,-1.9236,-1.9191,-1.9236,-1.9199,-1.9102,-1.9125,-1.9281,-1.9551,-1.9747,-1.9805,-1.9807,-2.0115,-2.0625,-2.1447,-2.1994,-2.287,-2.3998,-2.4553,-2.5118,-2.5779,-2.6093,-2.6392,-2.6708,-2.6867,-2.6973,-2.7115,-2.71,-2.7083,-2.7129,-2.7152,-2.7192,-2.7289,-2.7164,-2.7281,-2.7577,-2.7487,-2.75,-2.7917,-2.7736,-2.7577,-2.753,-2.7409,-2.7303,-2.719,-2.7338,-2.747,-2.7413,-2.7838,-2.7969,-2.7689,-2.6801,-2.5841,-2.5139,-2.5019,-2.5054,-2.5079,-2.5209,-2.5322,-2.5343,-2.5141,-2.5128,-2.5346,-2.4427,-2.4146,-2.4498,-2.4528,-2.4476,-2.4587,-2.5168,-2.5252,-2.4751,-2.4111,-2.355,-2.3197,-2.2891,-2.2583,-2.2927,-2.3379,-2.3696,-2.3963,-2.4241,-2.4437,-1.9368,-1.9374,-1.9309,-1.9216,-1.917,-1.9103,-1.905,-1.894,-1.881,-1.8756,-1.8786,-1.9028,-1.9377,-1.9876,-2.0295,-2.0339,-1.9972,-2.0003,-1.9895,-1.9715,-1.9527,-1.9643,-1.9997,-2.0115,-2.0151,-1.9874,-1.9461,-1.9207,-1.9069,-1.876,-1.8521,-1.8422,-1.8482,-1.8517,-1.8471,-1.8613,-1.8676,-1.8592,-1.8686,-1.88,-1.9027,-1.9266,-1.945,-1.9698,-2.0168,-2.0558,-2.0843,-2.1485,-2.2317,-2.324,-2.3685,-2.4358,-2.5273,-2.5511,-2.5815,-2.626,-2.6408,-2.6479,-2.6607,-2.6573,-2.6624,-2.6674,-2.6707,-2.674,-2.6816,-2.6858,-2.6906,-2.7019,-2.6831,-2.7017,-2.7756,-2.7622,-2.7361,-2.7215,-2.7147,-2.7053,-2.6933,-2.7046,-2.7039,-2.7104,-2.724,-2.7342,-2.667,-2.6055,-2.5512,-2.4997,-2.4915,-2.499,-2.5016,-2.5169,-2.5312,-2.5335,-2.4607,-2.4486,-2.5213,-2.3978,-2.3437,-2.3806,-2.4017,-2.3494,-2.3753,-2.4426,-2.4685,-2.3787,-2.3552,-2.3112,-2.2412,-2.2098,-2.1912,-2.2173,-2.2653,-2.3213,-2.326,-2.3592,-2.3854,-1.9322,-1.9229,-1.904,-1.9046,-1.8987,-1.888,-1.8792,-1.8798,-1.8679,-1.8619,-1.8619,-1.8518,-1.847,-1.8631,-1.9436,-1.9619,-1.9347,-1.9174,-1.891,-1.8632,-1.8566,-1.8892,-1.934,-1.8786,-1.8664,-1.889,-1.8434,-1.8054,-1.7808,-1.7666,-1.751,-1.7429,-1.7828,-1.7955,-1.7915,-1.8095,-1.8333,-1.839,-1.8293,-1.834,-1.8514,-1.8539,-1.8921,-1.9537,-1.9727,-2.0064,-2.0602,-2.0744,-2.1382,-2.269,-2.3161,-2.3763,-2.4426,-2.4989,-2.5343,-2.5585,-2.5916,-2.6024,-2.5924,-2.6066,-2.6118,-2.6018,-2.601,-2.5982,-2.609,-2.6099,-2.6189,-2.6426,-2.6208,-2.6419,-2.7175,-2.708,-2.6937,-2.6896,-2.6767,-2.6666,-2.6632,-2.6452,-2.6247,-2.6345,-2.6206,-2.5991,-2.5608,-2.579,-2.5469,-2.497,-2.4818,-2.4929,-2.5019,-2.5165,-2.5282,-2.5004,-2.4277,-2.3679,-2.5015,-2.3505,-2.2842,-2.3273,-2.2965,-2.22,-2.2566,-2.29,-2.2946,-2.2794,-2.2358,-2.1903,-2.1436,-2.1119,-2.0936,-2.1207,-2.195,-2.2391,-2.2461,-2.229,-2.269,-1.9099,-1.9052,-1.8993,-1.894,-1.8893,-1.8839,-1.8727,-1.8625,-1.8516,-1.8457,-1.8422,-1.8313,-1.8199,-1.8205,-1.8554,-1.8548,-1.8327,-1.8441,-1.8321,-1.805,-1.7984,-1.8201,-1.8525,-1.8295,-1.7881,-1.749,-1.7503,-1.732,-1.7106,-1.7271,-1.7312,-1.7256,-1.7386,-1.7488,-1.7482,-1.7767,-1.7888,-1.7727,-1.7862,-1.8029,-1.8035,-1.8075,-1.8337,-1.8884,-1.9206,-1.9531,-2.0049,-2.0475,-2.1134,-2.2024,-2.2624,-2.3384,-2.4253,-2.4808,-2.516,-2.5291,-2.5406,-2.5451,-2.5414,-2.5408,-2.5492,-2.5567,-2.5575,-2.5704,-2.5852,-2.5926,-2.5962,-2.6026,-2.6018,-2.6173,-2.6332,-2.6385,-2.6358,-2.6479,-2.6461,-2.646,-2.6564,-2.6732,-2.6762,-2.6356,-2.5771,-2.5352,-2.525,-2.5134,-2.4883,-2.481,-2.4837,-2.4944,-2.506,-2.5161,-2.5091,-2.4585,-2.3725,-2.3168,-2.3767,-2.2362,-2.1378,-2.2077,-2.2164,-2.1925,-2.2056,-2.2489,-2.2658,-2.2101,-2.1503,-2.1216,-2.0935,-2.067,-2.0394,-2.0517,-2.1257,-2.1624,-2.1656,-2.1638,-2.2214,-1.8946,-1.8946,-1.8881,-1.8833,-1.8727,-1.8679,-1.8632,-1.8524,-1.8354,-1.8299,-1.8259,-1.8144,-1.809,-1.7981,-1.7975,-1.7761,-1.7484,-1.7793,-1.7733,-1.729,-1.729,-1.7368,-1.752,-1.7381,-1.6987,-1.6374,-1.6297,-1.6298,-1.6281,-1.6478,-1.6655,-1.6723,-1.6856,-1.6934,-1.6976,-1.7214,-1.7262,-1.7186,-1.7399,-1.7529,-1.7557,-1.7591,-1.7801,-1.824,-1.8539,-1.8974,-1.9487,-2.0273,-2.1014,-2.168,-2.2356,-2.3126,-2.3987,-2.4405,-2.4664,-2.4807,-2.4895,-2.4942,-2.5013,-2.4997,-2.5084,-2.527,-2.5347,-2.547,-2.5659,-2.5778,-2.5787,-2.5824,-2.5852,-2.5881,-2.5901,-2.5893,-2.601,-2.6241,-2.6304,-2.633,-2.6452,-2.6717,-2.6446,-2.5713,-2.5024,-2.4744,-2.4789,-2.4514,-2.4501,-2.4719,-2.4818,-2.4916,-2.5047,-2.4903,-2.4735,-2.4201,-2.3197,-2.2639,-2.2647,-2.1582,-2.1073,-2.165,-2.1545,-2.1399,-2.1444,-2.192,-2.1975,-2.1382,-2.102,-2.0778,-2.0521,-2.0252,-2.0162,-2.0145,-2.0442,-2.0889,-2.0976,-2.11,-2.1685,-1.8798,-1.8738,-1.8614,-1.8554,-1.8548,-1.8347,-1.8334,-1.829,-1.8084,-1.792,-1.7854,-1.7969,-1.775,-1.7706,-1.754,-1.7312,-1.6987,-1.7099,-1.6982,-1.655,-1.6446,-1.6475,-1.6504,-1.6096,-1.5836,-1.564,-1.4903,-1.4863,-1.5305,-1.5355,-1.5507,-1.5824,-1.6194,-1.6361,-1.6312,-1.6497,-1.671,-1.6831,-1.6837,-1.6899,-1.6996,-1.7157,-1.7399,-1.7679,-1.7834,-1.8247,-1.9076,-2.0144,-2.1034,-2.17,-2.2383,-2.2981,-2.3555,-2.3809,-2.3875,-2.4101,-2.4325,-2.4523,-2.4622,-2.4799,-2.4926,-2.5005,-2.517,-2.5248,-2.5325,-2.5494,-2.5608,-2.5608,-2.5645,-2.5659,-2.5701,-2.5729,-2.5864,-2.6123,-2.6206,-2.626,-2.6275,-2.6104,-2.5594,-2.4638,-2.4075,-2.3743,-2.3795,-2.4056,-2.4357,-2.4571,-2.4729,-2.4865,-2.4927,-2.4608,-2.4228,-2.3833,-2.2908,-2.2067,-2.1593,-2.1152,-2.1261,-2.134,-2.0914,-2.0638,-2.0677,-2.0988,-2.1051,-2.0639,-2.0637,-2.0423,-2.0411,-2.0187,-2.0162,-2.0174,-2.0289,-2.0318,-2.0378,-2.058,-2.0985,-1.8284,-1.85,-1.7644,-1.7765,-1.8298,-1.7498,-1.7239,-1.754,-1.7107,-1.681,-1.6754,-1.6703,-1.6775,-1.6775,-1.6544,-1.6554,-1.6756,-1.628,-1.6119,-1.6265,-1.5951,-1.5765,-1.5708,-1.5275,-1.4931,-1.4802,-1.4293,-1.4212,-1.4577,-1.4915,-1.5204,-1.5379,-1.573,-1.5907,-1.5856,-1.6194,-1.6318,-1.6238,-1.6661,-1.6879,-1.6808,-1.6947,-1.7115,-1.724,-1.7475,-1.7923,-1.8563,-2.0012,-2.1126,-2.1774,-2.2762,-2.3337,-2.3565,-2.3645,-2.3754,-2.3839,-2.3967,-2.4101,-2.4284,-2.4408,-2.4523,-2.4678,-2.4791,-2.4918,-2.5092,-2.5248,-2.5371,-2.5418,-2.5546,-2.5663,-2.5701,-2.5791,-2.5873,-2.5962,-2.6043,-2.6126,-2.6189,-2.5688,-2.5031,-2.4392,-2.38,-2.3531,-2.3692,-2.3978,-2.4201,-2.4493,-2.4645,-2.478,-2.4835,-2.4335,-2.3772,-2.3252,-2.2257,-2.1457,-2.1076,-2.083,-2.0878,-2.0955,-2.0627,-2.037,-2.0328,-2.0282,-2.0269,-2.0254,-2.0242,-2.0235,-2.0214,-2.0188,-2.0162,-2.0162,-2.0239,-2.0136,-1.9959,-2.0185,-2.0584,-1.7496,-1.7716,-1.6922,-1.6928,-1.7517,-1.6732,-1.6557,-1.6805,-1.6409,-1.6148,-1.6093,-1.6011,-1.6021,-1.6036,-1.5801,-1.5748,-1.5874,-1.5294,-1.5235,-1.5467,-1.5385,-1.5214,-1.5055,-1.4434,-1.4066,-1.3947,-1.3621,-1.3663,-1.403,-1.4357,-1.4645,-1.4817,-1.4994,-1.5045,-1.5006,-1.5209,-1.5299,-1.5507,-1.5964,-1.6269,-1.6374,-1.668,-1.6735,-1.6497,-1.6788,-1.7235,-1.7637,-1.8786,-2.008,-2.1403,-2.2504,-2.3046,-2.3238,-2.3326,-2.3465,-2.3739,-2.3832,-2.3882,-2.4116,-2.4208,-2.4151,-2.4253,-2.4336,-2.4418,-2.4533,-2.4655,-2.4775,-2.4815,-2.5036,-2.5245,-2.5329,-2.5559,-2.5696,-2.5795,-2.586,-2.599,-2.6069,-2.5331,-2.4709,-2.4289,-2.3717,-2.3463,-2.3562,-2.3795,-2.4049,-2.4353,-2.4505,-2.4447,-2.4386,-2.3814,-2.3141,-2.2427,-2.1624,-2.102,-2.064,-2.0508,-2.0475,-2.0496,-2.0449,-2.0363,-2.0314,-2.0287,-2.0265,-2.0267,-2.0248,-2.0252,-2.023,-2.0215,-2.0189,-2.0198,-2.0198,-2.0117,-2.0001,-1.9897,-2.0231,-1.6492,-1.643,-1.626,-1.6255,-1.6389,-1.6203,-1.6149,-1.6218,-1.6009,-1.5841,-1.5831,-1.5618,-1.5507,-1.5352,-1.5113,-1.4932,-1.4583,-1.4346,-1.4277,-1.4264,-1.4331,-1.4349,-1.4188,-1.3566,-1.3285,-1.3177,-1.3022,-1.3152,-1.3568,-1.3716,-1.3758,-1.4124,-1.4165,-1.3972,-1.4019,-1.3747,-1.4217,-1.4863,-1.5,-1.526,-1.5623,-1.6232,-1.6232,-1.549,-1.5932,-1.6296,-1.652,-1.703,-1.8371,-2.0625,-2.1636,-2.2253,-2.2575,-2.2785,-2.3068,-2.3508,-2.3653,-2.3703,-2.3847,-2.389,-2.389,-2.3645,-2.3844,-2.3937,-2.3767,-2.3929,-2.4013,-2.4063,-2.4282,-2.4519,-2.4688,-2.5044,-2.5347,-2.5608,-2.5778,-2.5974,-2.6015,-2.5054,-2.4506,-2.4304,-2.3707,-2.3166,-2.335,-2.3593,-2.3871,-2.4109,-2.419,-2.398,-2.3662,-2.3108,-2.2287,-2.1656,-2.1162,-2.0767,-2.0452,-2.042,-2.0374,-2.0302,-2.0266,-2.0218,-2.0288,-2.0284,-2.027,-2.027,-2.0265,-2.0269,-2.0246,-2.0223,-2.018,-2.0171,-2.0162,-2.0144,-2.0012,-1.9828,-1.9523,-1.5974,-1.626,-1.5352,-1.5468,-1.6078,-1.537,-1.5211,-1.5405,-1.4951,-1.4713,-1.4474,-1.435,-1.4469,-1.4419,-1.3937,-1.3872,-1.4107,-1.3433,-1.3373,-1.3608,-1.291,-1.2757,-1.2851,-1.2909,-1.2934,-1.2886,-1.2827,-1.2973,-1.3113,-1.3387,-1.3563,-1.3605,-1.3894,-1.3983,-1.3826,-1.3684,-1.403,-1.4501,-1.4777,-1.4988,-1.5311,-1.5668,-1.5712,-1.5394,-1.5361,-1.5607,-1.5992,-1.661,-1.7923,-2.004,-2.0866,-2.1442,-2.1834,-2.2065,-2.2211,-2.2395,-2.2536,-2.2596,-2.2785,-2.2972,-2.3061,-2.3113,-2.3231,-2.3487,-2.34,-2.3559,-2.3681,-2.3724,-2.3879,-2.4032,-2.4199,-2.4575,-2.5036,-2.5516,-2.5733,-2.5785,-2.5487,-2.4965,-2.4397,-2.401,-2.3235,-2.2963,-2.31,-2.3321,-2.3522,-2.3665,-2.3621,-2.3349,-2.2995,-2.2401,-2.1598,-2.1466,-2.1084,-2.0672,-2.038,-2.0353,-2.0288,-2.0188,-2.0098,-1.9982,-2.0137,-2.0294,-2.0284,-2.0284,-2.0267,-2.0264,-2.023,-2.0205,-2.017,-2.0116,-2.0079,-2.0021,-1.9751,-1.9492,-1.8835,-1.5181,-1.541,-1.467,-1.4775,-1.5216,-1.4597,-1.4424,-1.4597,-1.4281,-1.3981,-1.3834,-1.3705,-1.3761,-1.3816,-1.3285,-1.322,-1.3498,-1.2567,-1.2305,-1.2353,-1.1853,-1.1616,-1.1789,-1.2067,-1.217,-1.217,-1.222,-1.2328,-1.2524,-1.2856,-1.2939,-1.304,-1.3329,-1.3372,-1.3069,-1.3112,-1.3299,-1.3637,-1.3956,-1.4143,-1.4422,-1.4778,-1.4601,-1.4376,-1.4294,-1.4581,-1.4797,-1.5404,-1.6818,-1.8545,-1.9402,-1.9927,-2.0555,-2.1068,-2.1279,-2.1325,-2.1619,-2.1826,-2.1751,-2.1892,-2.1953,-2.2,-2.2239,-2.2346,-2.2307,-2.2589,-2.283,-2.2837,-2.3179,-2.3399,-2.3658,-2.415,-2.468,-2.5028,-2.5362,-2.5387,-2.4935,-2.4497,-2.3955,-2.3397,-2.2929,-2.265,-2.2918,-2.3149,-2.3167,-2.3108,-2.3132,-2.2745,-2.2271,-2.1616,-2.1138,-2.1007,-2.0486,-1.9863,-1.8261,-1.7663,-1.5956,-1.6118,-1.7136,-1.754,-1.8821,-1.928,-2.0263,-2.0255,-2.0262,-2.024,-2.0197,-2.0144,-2.0098,-2.0041,-1.998,-1.9,-1.8171,-1.7815,-1.733,-1.4387,-1.4263,-1.4263,-1.4207,-1.407,-1.3983,-1.4056,-1.401,-1.3824,-1.3721,-1.3683,-1.3528,-1.3446,-1.339,-1.3042,-1.2732,-1.2405,-1.1737,-1.1271,-1.1094,-1.0825,-1.089,-1.0942,-1.1305,-1.1405,-1.1355,-1.1255,-1.1506,-1.1914,-1.2067,-1.2229,-1.2421,-1.2471,-1.2382,-1.2368,-1.2215,-1.2398,-1.2812,-1.2996,-1.3203,-1.3489,-1.3841,-1.3711,-1.3233,-1.3357,-1.3442,-1.3508,-1.4015,-1.5334,-1.7183,-1.7538,-1.8188,-1.8884,-1.9707,-2.0093,-2.0307,-2.0703,-2.0883,-2.0844,-2.0864,-2.0857,-2.0736,-2.0982,-2.1051,-2.1071,-2.1472,-2.182,-2.1867,-2.2282,-2.2694,-2.3046,-2.3756,-2.4161,-2.4374,-2.4711,-2.4696,-2.4215,-2.3837,-2.3416,-2.2838,-2.2621,-2.2567,-2.2824,-2.303,-2.3122,-2.3021,-2.2873,-2.2425,-2.189,-2.1234,-2.0821,-2.0561,-1.9808,-1.8847,-1.6761,-1.463,-1.2241,-1.0854,-1.2276,-1.3463,-1.5873,-1.7158,-1.9276,-2.0209,-2.0196,-2.0162,-2.0107,-2.006,-1.9607,-1.996,-1.9896,-1.7321,-1.4899,-1.4908,-1.4635,-1.4074,-1.4074,-1.407,-1.401,-1.4014,-1.4023,-1.395,-1.3777,-1.3444,-1.3366,-1.3446,-1.322,-1.3084,-1.3086,-1.2716,-1.2239,-1.1538,-1.0973,-1.0356,-0.9925,-1.0155,-1.0124,-1.0189,-1.069,-1.115,-1.1103,-1.1154,-1.1196,-1.1338,-1.1606,-1.1823,-1.1773,-1.2017,-1.2234,-1.2081,-1.2026,-1.2309,-1.2716,-1.2764,-1.2871,-1.3069,-1.3256,-1.3165,-1.2779,-1.2861,-1.2949,-1.31,-1.355,-1.4414,-1.5355,-1.6061,-1.6713,-1.7609,-1.7928,-1.8357,-1.8851,-1.9133,-1.9378,-1.9673,-1.9825,-2.0035,-1.9908,-2.0105,-2.0421,-2.0377,-2.0696,-2.1042,-2.1341,-2.1725,-2.2088,-2.2385,-2.2854,-2.3274,-2.3661,-2.4202,-2.4146,-2.329,-2.3171,-2.3184,-2.2889,-2.2413,-2.2166,-2.2516,-2.2981,-2.3049,-2.2963,-2.2637,-2.2195,-2.1488,-2.0728,-1.9672,-1.8902,-1.7621,-1.595,-1.2157,-0.994,-0.7832,-0.6516,-0.7679,-0.9399,-1.1822,-1.4411,-1.6305,-1.8356,-2.0126,-1.9782,-1.8538,-1.8221,-1.7431,-1.8575,-1.8661,-1.5107,-1.231,-1.2203,-0.9599,-1.3667,-1.3626,-1.3622,-1.3626,-1.3536,-1.3329,-1.3233,-1.3128,-1.2928,-1.2713,-1.2668,-1.2705,-1.2608,-1.2366,-1.2273,-1.1858,-1.1099,-1.0352,-0.9824,-0.9522,-0.9594,-0.9468,-0.9411,-0.9825,-1.0233,-1.0387,-1.0387,-1.0427,-1.0677,-1.0884,-1.0994,-1.1099,-1.1401,-1.156,-1.1728,-1.1773,-1.1968,-1.2349,-1.2491,-1.2545,-1.2589,-1.2594,-1.2452,-1.2323,-1.2337,-1.2532,-1.3015,-1.3224,-1.3815,-1.4481,-1.4797,-1.5361,-1.6394,-1.665,-1.6831,-1.6875,-1.7566,-1.7768,-1.8101,-1.84,-1.8634,-1.8596,-1.8915,-1.885,-1.9002,-1.9368,-1.9953,-2.0257,-2.0713,-2.1265,-2.1493,-2.1784,-2.2222,-2.2743,-2.3296,-2.3107,-2.2392,-2.2721,-2.2928,-2.2524,-2.2153,-2.2194,-2.2472,-2.2831,-2.2826,-2.2678,-2.2245,-2.1742,-2.027,-1.9287,-1.7244,-1.6062,-1.4779,-1.2271,-0.7783,-0.4975,-0.313,-0.2688,-0.3494,-0.5395,-0.7648,-1.0357,-1.3034,-1.4777,-1.6274,-1.6446,-1.5476,-1.5314,-1.3944,-1.2617,-1.1471,-1.0235,-0.855,-0.6155,-0.2774,-1.3156,-1.3063,-1.3005,-1.289,-1.2719,-1.2444,-1.2325,-1.2304,-1.227,-1.2039,-1.1692,-1.2073,-1.1867,-1.1497,-1.1662,-1.1311,-1.0425,-0.9717,-0.9131,-0.8992,-0.8985,-0.8944,-0.8952,-0.9054,-0.9208,-0.9409,-0.9566,-0.9714,-0.9858,-1.0009,-1.0269,-1.0415,-1.0572,-1.0834,-1.1108,-1.1322,-1.1519,-1.1923,-1.2116,-1.2121,-1.2017,-1.1972,-1.1873,-1.1723,-1.1782,-1.2145,-1.2702,-1.2978,-1.3332,-1.3995,-1.3706,-1.4223,-1.5004,-1.5569,-1.5599,-1.5022,-1.6137,-1.6593,-1.6638,-1.6924,-1.7297,-1.7074,-1.7413,-1.7401,-1.7324,-1.7921,-1.862,-1.9159,-1.9678,-2.0276,-2.0333,-2.0568,-2.0899,-2.1322,-2.1789,-2.1782,-2.1415,-2.2071,-2.2043,-2.1649,-2.1612,-2.1797,-2.2223,-2.2617,-2.2498,-2.233,-2.1926,-2.1143,-1.9705,-1.7605,-1.55,-1.3606,-1.2344,-0.8407,-0.3786,0.0782,0.2519,0.2022,0.1187,-0.013,-0.2247,-0.4214,-0.6549,-0.9956,-1.1354,-1.1432,-1.1075,-1.008,-0.8394,-0.622,-0.6006,-0.6517,-0.386,0.0067,0.3043,-1.2539,-1.2488,-1.2043,-1.1817,-1.1813,-1.1744,-1.1683,-1.1731,-1.1551,-1.1503,-1.1356,-1.1312,-1.0849,-1.0397,-1.0574,-0.9989,-0.9083,-0.8586,-0.8321,-0.8247,-0.8347,-0.8477,-0.8533,-0.8474,-0.8524,-0.8732,-0.8991,-0.9141,-0.9141,-0.9454,-0.9547,-0.9806,-1.0104,-1.036,-1.0576,-1.1002,-1.1217,-1.1423,-1.1719,-1.1823,-1.1769,-1.1665,-1.1569,-1.1322,-1.1364,-1.167,-1.2119,-1.2713,-1.3064,-1.3,-1.3132,-1.332,-1.3625,-1.4053,-1.4319,-1.4656,-1.5084,-1.5439,-1.5464,-1.605,-1.6381,-1.6461,-1.6394,-1.6456,-1.6451,-1.6701,-1.7026,-1.7864,-1.8531,-1.9159,-1.8897,-1.8764,-1.9019,-1.9234,-1.9779,-2.0213,-1.9754,-2.0133,-2.0825,-2.047,-2.082,-2.1321,-2.1795,-2.2371,-2.2693,-2.2634,-2.2318,-2.1191,-1.9629,-1.6699,-1.3545,-1.1718,-1.0066,-0.5037,0.0281,0.5113,0.8238,0.7444,0.6778,0.6779,0.4859,0.3022,0.0446,-0.2479,-0.5018,-0.5945,-0.5403,-0.4548,-0.3651,-0.2074,-0.2635,-0.3291,0.0064,0.3516,0.471,-1.1776,-1.1554,-1.1119,-1.0839,-1.0631,-1.0639,-1.0566,-1.0378,-1.0508,-1.0409,-1.0316,-1.0303,-1.0064,-0.9735,-1.0025,-0.9508,-0.8561,-0.799,-0.792,-0.7927,-0.8012,-0.8099,-0.8109,-0.8106,-0.772,-0.7714,-0.8087,-0.8408,-0.815,-0.8246,-0.8452,-0.8455,-0.8807,-0.9221,-0.9647,-1.0075,-1.0545,-1.0846,-1.1095,-1.1145,-1.0994,-1.0889,-1.074,-1.0639,-1.0632,-1.0877,-1.1539,-1.1605,-1.2052,-1.226,-1.1995,-1.1835,-1.1878,-1.2071,-1.2518,-1.3199,-1.3771,-1.4026,-1.4021,-1.4454,-1.4863,-1.5139,-1.473,-1.4309,-1.4246,-1.42,-1.4589,-1.5127,-1.5449,-1.5782,-1.5434,-1.5751,-1.5761,-1.6119,-1.7078,-1.7553,-1.7556,-1.8044,-1.8239,-1.851,-1.9245,-1.9881,-2.1256,-2.1916,-2.2737,-2.2868,-2.22,-2.0452,-1.8229,-1.3988,-0.9333,-0.468,-0.1964,0.1528,0.5777,0.8621,1.1475,1.108,1.0769,1.0776,1.038,0.7821,0.7012,0.5638,0.3298,0.0056,0.0654,0.1615,0.1873,0.2238,0.3006,0.3797,0.4916,0.6516,0.7506,-1.0867,-1.0482,-1.011,-0.9785,-0.9465,-0.9517,-0.9361,-0.9134,-0.9462,-0.9364,-0.8956,-0.9278,-0.9231,-0.8919,-0.9009,-0.8887,-0.8238,-0.7761,-0.7692,-0.7747,-0.7652,-0.7619,-0.7678,-0.7515,-0.7235,-0.6966,-0.6969,-0.7399,-0.7453,-0.7399,-0.7187,-0.7453,-0.7714,-0.8081,-0.8666,-0.9454,-0.981,-1.0119,-1.0364,-1.0261,-0.9953,-0.9695,-0.9492,-0.9458,-0.9396,-0.9767,-1.0376,-1.0401,-1.0512,-1.0756,-1.0532,-1.004,-0.9901,-0.9895,-1.0236,-1.1037,-1.2047,-1.2317,-1.2244,-1.2509,-1.3042,-1.3254,-1.2538,-1.2119,-1.1855,-1.1745,-1.157,-1.1832,-1.2274,-1.2461,-1.2652,-1.243,-1.2349,-1.2362,-1.3327,-1.4059,-1.3415,-1.3373,-1.355,-1.4549,-1.6503,-1.6455,-1.5872,-1.6891,-1.6775,-1.3759,-1.3006,-1.332,-1.0931,-0.7175,-0.2292,0.3897,0.7733,0.9943,1.1939,1.1942,1.333,1.2621,1.2218,1.2031,1.2142,1.1687,1.1143,1.0239,0.8772,0.6117,0.697,0.719,0.7016,0.7584,0.9338,0.9768,0.899,0.8862,0.9535,-0.9762,-0.9344,-0.8841,-0.8576,-0.8582,-0.859,-0.8527,-0.8521,-0.8778,-0.8666,-0.829,-0.8447,-0.8173,-0.7709,-0.7555,-0.7463,-0.7326,-0.7312,-0.7274,-0.7261,-0.7214,-0.7192,-0.7192,-0.6923,-0.675,-0.6482,-0.622,-0.6324,-0.6591,-0.6864,-0.7028,-0.7136,-0.7503,-0.7922,-0.8084,-0.8984,-0.9607,-0.9714,-0.9957,-0.9784,-0.9096,-0.8839,-0.8577,-0.8368,-0.8304,-0.8429,-0.8843,-0.8928,-0.9068,-0.8536,-0.8675,-0.8297,-0.7904,-0.7767,-0.7765,-0.8692,-1.0059,-1.1502,-1.0561,-1.0638,-1.0735,-1.0626,-1.0217,-1.0233,-0.9697,-0.9447,-0.9336,-1.0096,-1.0278,-1.0075,-0.9803,-1.0411,-0.9858,-0.915,-0.9053,-0.8422,-0.7673,-0.8349,-0.8544,-0.7733,-0.8807,-0.8122,-0.7378,-0.899,-0.9922,-0.6529,-0.4085,-0.4593,-0.3182,0.0825,0.4064,0.9969,1.292,1.5005,1.5964,1.6263,1.5686,1.4685,1.396,1.3533,1.3624,1.3766,1.3651,1.2718,1.162,1.0966,1.0643,1.0801,1.1447,1.1434,1.1281,1.1354,1.1368,1.147,1.1423,-0.861,-0.8544,-0.8196,-0.7883,-0.7729,-0.7886,-0.7886,-0.778,-0.8037,-0.809,-0.7928,-0.7937,-0.7777,-0.7399,-0.7241,-0.7141,-0.7136,-0.7136,-0.7028,-0.692,-0.6866,-0.6871,-0.6709,-0.6539,-0.6317,-0.5993,-0.5839,-0.5791,-0.6005,-0.6057,-0.622,-0.6647,-0.713,-0.7396,-0.7503,-0.8573,-0.8781,-0.8771,-0.8652,-0.8386,-0.7903,-0.7525,-0.7312,-0.7162,-0.712,-0.7224,-0.742,-0.772,-0.7611,-0.7067,-0.693,-0.6155,-0.5489,-0.5153,-0.5083,-0.481,-0.6157,-0.7215,-0.7631,-0.7886,-0.7761,-0.7298,-0.6854,-0.6238,-0.6175,-0.5682,-0.5462,-0.5739,-0.5174,-0.5028,-0.5036,-0.4858,-0.4471,-0.4129,-0.4373,-0.4142,-0.3292,-0.308,-0.313,-0.204,-0.0706,0.044,0.118,0.0165,-0.1215,-0.0482,0.1646,0.1747,0.4765,0.975,1.2634,1.5544,1.7277,1.8389,1.8898,1.9204,1.8593,1.7594,1.6133,1.5749,1.5352,1.5308,1.502,1.502,1.4383,1.3949,1.3805,1.3139,1.2612,1.2466,1.2354,1.246,1.2571,1.2601,1.2525,-0.7664,-0.7815,-0.761,-0.7348,-0.7136,-0.7456,-0.7405,-0.7187,-0.7456,-0.7563,-0.7563,-0.7563,-0.7563,-0.7509,-0.7241,-0.7136,-0.7136,-0.7136,-0.692,-0.6758,-0.6707,-0.6596,-0.6436,-0.6213,-0.5884,-0.5391,-0.5624,-0.5574,-0.5411,-0.5409,-0.5679,-0.5996,-0.6591,-0.6804,-0.7133,-0.7723,-0.8096,-0.7658,-0.7329,-0.7004,-0.6522,-0.6136,-0.6012,-0.5936,-0.5918,-0.587,-0.6172,-0.6041,-0.5821,-0.5282,-0.4847,-0.4057,-0.3058,-0.2791,-0.2522,-0.2254,-0.2836,-0.289,-0.3531,-0.3926,-0.4263,-0.3802,-0.3146,-0.2637,-0.211,-0.1125,-0.0329,-0.0849,-0.0195,0.0391,0.059,0.0392,0.0713,0.0643,0.0575,0.0383,0.0629,0.2022,0.3261,0.4387,0.6366,0.9562,0.9962,0.9393,0.8261,0.6863,0.7094,0.7957,1.158,1.6452,1.7741,1.9174,1.9601,2.0239,2.0511,2.0866,2.0647,2.0024,1.8552,1.7473,1.6797,1.6304,1.5955,1.6088,1.6346,1.5889,1.5118,1.4283,1.355,1.371,1.3782,1.3644,1.3657,1.365,1.359,-0.7136,-0.7136,-0.719,-0.7139,-0.7136,-0.7136,-0.7136,-0.7136,-0.7139,-0.719,-0.7187,-0.719,-0.719,-0.7136,-0.7136,-0.7136,-0.7136,-0.7136,-0.6866,-0.6758,-0.6652,-0.6376,-0.6107,-0.5839,-0.5734,-0.5572,-0.5464,-0.5299,-0.5301,-0.5301,-0.5354,-0.5458,-0.6157,-0.6261,-0.6477,-0.7023,-0.7214,-0.683,-0.6436,-0.5884,-0.5458,-0.5035,-0.4813,-0.4793,-0.4395,-0.4097,-0.4404,-0.4121,-0.3585,-0.3138,-0.2871,-0.2002,-0.1002,-0.0735,-0.04,0.0332,0.0465,0.0792,0.1181,-0.0394,-0.112,-0.066,0.0,0.0527,0.105,0.2034,0.2941,0.3632,0.4082,0.4264,0.3999,0.3797,0.4812,0.5299,0.5577,0.6125,0.6946,0.8908,1.0108,1.0958,1.2894,1.5417,1.6841,1.5857,1.6349,1.5088,1.5269,1.6114,1.6357,1.9866,2.0298,2.1081,2.1248,2.1498,2.1453,2.1538,2.1596,2.0773,1.9417,1.8463,1.7698,1.7284,1.6898,1.6955,1.7115,1.6791,1.6489,1.5805,1.5321,1.5272,1.5153,1.4816,1.464,1.4654,1.4551,-0.7136,-0.7136,-0.7136,-0.7136,-0.7136,-0.7136,-0.7136,-0.7136,-0.7136,-0.7136,-0.7136,-0.7136,-0.7136,-0.7136,-0.7136,-0.7136,-0.7082,-0.6918,-0.6699,-0.6376,-0.6218,-0.578,-0.5456,-0.5238,-0.513,-0.5132,-0.4965,-0.5077,-0.5301,-0.5244,-0.5301,-0.5515,-0.583,-0.61,-0.6317,-0.6361,-0.6411,-0.6404,-0.5965,-0.543,-0.4637,-0.4599,-0.4261,-0.3558,-0.41,-0.3737,-0.3542,-0.3036,-0.2401,-0.1807,-0.1338,-0.0268,0.0937,0.1205,0.1936,0.2993,0.3192,0.4172,0.482,0.2965,0.1654,0.2844,0.3244,0.3433,0.4118,0.5223,0.5921,0.6674,0.7737,0.809,0.8226,0.8499,0.9168,0.9797,1.0464,1.12,1.2413,1.4042,1.4627,1.4502,1.7104,1.9954,2.1061,2.1793,2.2692,2.3377,2.3789,2.3748,2.2887,2.2341,2.253,2.2647,2.2774,2.2882,2.2866,2.2777,2.2616,2.1516,2.0353,1.9609,1.8865,1.8239,1.7933,1.7959,1.7881,1.7662,1.7462,1.7258,1.684,1.6203,1.592,1.5753,1.5675,1.5613,1.544,-0.7136,-0.7085,-0.692,-0.692,-0.7085,-0.7136,-0.7136,-0.7136,-0.7136,-0.7136,-0.7136,-0.7136,-0.7136,-0.7136,-0.7136,-0.7136,-0.7028,-0.681,-0.6539,-0.6161,-0.5782,-0.5238,-0.4853,-0.4632,-0.4631,-0.4634,-0.4577,-0.4688,-0.5079,-0.4963,-0.4853,-0.4961,-0.5289,-0.5468,-0.5714,-0.5701,-0.5726,-0.5789,-0.5126,-0.4794,-0.4034,-0.3749,-0.3804,-0.2919,-0.3239,-0.2966,-0.248,-0.1927,-0.1069,-0.0335,0.0402,0.1272,0.2344,0.3347,0.4136,0.5058,0.5977,0.6624,0.6876,0.608,0.4768,0.5698,0.6323,0.6496,0.7184,0.8565,0.9532,1.0027,1.1258,1.2053,1.2103,1.2209,1.2869,1.3437,1.4104,1.4863,1.6013,1.7397,1.7561,1.7772,2.0426,2.2248,2.2574,2.3115,2.3846,2.4621,2.4699,2.458,2.435,2.3986,2.4075,2.4138,2.4164,2.4257,2.431,2.3752,2.3175,2.2688,2.1607,2.0891,2.0156,1.9432,1.8797,1.8628,1.8555,1.8533,1.8353,1.8102,1.7471,1.674,1.6655,1.6645,1.6454,1.6383,1.6208,-0.7085,-0.7028,-0.648,-0.6537,-0.7082,-0.7079,-0.7087,-0.7082,-0.7136,-0.7136,-0.7136,-0.7136,-0.7085,-0.7082,-0.7028,-0.7028,-0.6864,-0.6647,-0.6376,-0.5941,-0.5342,-0.4961,-0.4575,-0.4242,-0.4189,-0.4468,-0.4356,-0.4244,-0.4691,-0.4411,-0.4189,-0.4146,-0.4381,-0.4557,-0.4791,-0.4511,-0.4459,-0.4473,-0.3542,-0.3474,-0.3435,-0.289,-0.2752,-0.243,-0.2325,-0.2029,-0.1326,-0.0534,0.0335,0.1408,0.1943,0.2879,0.4078,0.4735,0.5521,0.6506,0.7147,0.806,0.918,0.8458,0.831,0.831,0.8836,0.9556,1.0942,1.2236,1.3105,1.3313,1.4503,1.473,1.4861,1.5187,1.6048,1.6599,1.7189,1.7932,1.8974,2.0061,2.0193,2.0221,2.1682,2.3158,2.3336,2.3663,2.4289,2.4823,2.5118,2.5205,2.5162,2.5142,2.5024,2.4963,2.4897,2.4844,2.4699,2.422,2.374,2.3354,2.2825,2.2046,2.1167,2.0296,1.9758,1.9365,1.9037,1.8833,1.8894,1.8921,1.8244,1.764,1.7572,1.7514,1.7326,1.715,1.7052,-0.6753,-0.7028,-0.6043,-0.6152,-0.6974,-0.6645,-0.6699,-0.7085,-0.7136,-0.7082,-0.7136,-0.7136,-0.6974,-0.6866,-0.6812,-0.6701,-0.6428,-0.5834,-0.5506,-0.5395,-0.4737,-0.4185,-0.3855,-0.3745,-0.3692,-0.3748,-0.3691,-0.3801,-0.4245,-0.3967,-0.3967,-0.3976,-0.3757,-0.3995,-0.4353,-0.4354,-0.4343,-0.4434,-0.3739,-0.322,-0.3032,-0.2666,-0.212,-0.1452,-0.1386,-0.0996,-0.0134,0.0805,0.1744,0.2682,0.315,0.4277,0.5399,0.6052,0.6831,0.8071,0.9102,1.0106,1.1304,1.1574,1.166,1.1363,1.1287,1.2228,1.3454,1.4573,1.5479,1.6249,1.6802,1.6925,1.7203,1.7637,1.8253,1.846,1.9004,1.9788,2.0786,2.2006,2.265,2.248,2.333,2.3597,2.3823,2.3664,2.4141,2.4711,2.5009,2.5262,2.5295,2.5389,2.5377,2.5315,2.5255,2.5225,2.5052,2.4666,2.4539,2.4329,2.3772,2.3063,2.2169,2.1148,2.0284,1.9662,1.9377,1.9137,1.9321,1.9378,1.9008,1.8626,1.8457,1.8298,1.8109,1.8051,1.8021,-0.6428,-0.6647,-0.5716,-0.5823,-0.6537,-0.6317,-0.648,-0.6866,-0.6866,-0.6756,-0.6645,-0.6477,-0.6423,-0.6374,-0.632,-0.6263,-0.5934,-0.5395,-0.4961,-0.4796,-0.4135,-0.3745,-0.3469,-0.3247,-0.3303,-0.3304,-0.3249,-0.3359,-0.3747,-0.3635,-0.3524,-0.3433,-0.3381,-0.3476,-0.3736,-0.3793,-0.3927,-0.3922,-0.3414,-0.2893,-0.2602,-0.2159,-0.1448,-0.0801,-0.0402,-0.0067,0.1007,0.1947,0.2749,0.3481,0.4475,0.5599,0.6517,0.7428,0.8202,0.9564,1.0944,1.1873,1.2911,1.3682,1.3703,1.3868,1.3828,1.4501,1.562,1.6555,1.7153,1.7861,1.8478,1.8685,1.8791,1.9347,1.9844,2.0042,2.0723,2.1493,2.246,2.3673,2.4209,2.4099,2.404,2.4232,2.4126,2.3869,2.3821,2.4365,2.4859,2.5117,2.5383,2.5488,2.5554,2.5496,2.5449,2.5376,2.5318,2.519,2.5136,2.5254,2.4659,2.3917,2.2907,2.1852,2.0906,2.012,2.0085,2.0024,1.9935,1.9834,1.9733,1.947,1.9148,1.9012,1.8895,1.8771,1.8699,-0.6152,-0.6098,-0.5496,-0.5391,-0.5773,-0.5987,-0.6258,-0.6593,-0.6265,-0.5991,-0.5775,-0.5384,-0.5439,-0.5662,-0.5605,-0.5494,-0.5386,-0.5064,-0.4736,-0.4298,-0.3635,-0.3412,-0.319,-0.2969,-0.3025,-0.308,-0.3025,-0.2968,-0.3247,-0.2967,-0.2745,-0.2751,-0.2838,-0.2942,-0.3047,-0.3016,-0.3222,-0.3156,-0.2785,-0.2251,-0.1929,-0.0934,-0.0267,0.0269,0.0604,0.1341,0.2279,0.2947,0.3878,0.4872,0.6059,0.685,0.7767,0.8809,0.97,1.0881,1.2419,1.3339,1.4186,1.4836,1.5636,1.612,1.6905,1.7274,1.751,1.8061,1.8584,1.8967,1.9451,1.9511,1.9692,2.0386,2.1081,2.1615,2.2243,2.3098,2.4047,2.4776,2.5205,2.5249,2.5157,2.5026,2.445,2.4103,2.3996,2.416,2.4663,2.5023,2.5269,2.5478,2.5526,2.5522,2.5491,2.5477,2.5434,2.5392,2.5356,2.5338,2.5242,2.4603,2.3568,2.2496,2.1579,2.0974,2.0987,2.0977,2.0957,2.0863,2.0741,2.0468,2.0311,1.9634,1.9494,1.918,1.911,-0.5167,-0.5328,-0.4346,-0.4405,-0.5115,-0.5259,-0.5374,-0.5391,-0.5283,-0.5226,-0.5171,-0.5007,-0.4895,-0.4899,-0.484,-0.4679,-0.4405,-0.4132,-0.3855,-0.3523,-0.3246,-0.2969,-0.2858,-0.2747,-0.2801,-0.2801,-0.2689,-0.2463,-0.2294,-0.2071,-0.2015,-0.2074,-0.2343,-0.2432,-0.2269,-0.2155,-0.2216,-0.2197,-0.1746,-0.141,-0.0738,0.0335,0.1006,0.1542,0.2076,0.2879,0.3613,0.4602,0.5462,0.6052,0.7302,0.835,0.9624,1.0135,1.0759,1.2972,1.4007,1.4732,1.5434,1.6615,1.7401,1.7907,1.8779,1.902,1.9032,1.9143,1.9759,2.0055,2.0383,2.0544,2.0759,2.1342,2.1864,2.2328,2.2943,2.3684,2.4536,2.5012,2.5478,2.5911,2.5824,2.5458,2.4892,2.4554,2.4451,2.4377,2.4479,2.4844,2.5149,2.5343,2.5517,2.5522,2.5537,2.5535,2.5505,2.5464,2.5435,2.54,2.5333,2.494,2.3702,2.2713,2.2082,2.1881,2.1981,2.2029,2.2046,2.1949,2.1862,2.1942,2.1769,2.0838,2.0081,1.9894,1.9839,-0.4508,-0.4615,-0.3959,-0.3959,-0.44,-0.4328,-0.4223,-0.4125,-0.4401,-0.451,-0.4403,-0.4182,-0.413,-0.4182,-0.4128,-0.3965,-0.3801,-0.3635,-0.3357,-0.308,-0.2801,-0.2747,-0.2691,-0.2465,-0.2296,-0.2296,-0.2072,-0.1734,-0.151,-0.1342,-0.1342,-0.1234,-0.1735,-0.1672,-0.1416,-0.1076,-0.0847,-0.093,-0.0738,-0.0268,0.0537,0.1475,0.2145,0.288,0.3543,0.4212,0.5072,0.6185,0.6576,0.7293,0.8544,0.9567,1.0763,1.1315,1.235,1.4364,1.54,1.5985,1.662,1.7677,1.8352,1.8845,1.9683,1.9882,2.0042,2.0137,2.0566,2.0871,2.1299,2.167,2.1941,2.2214,2.2508,2.2802,2.3375,2.3945,2.4513,2.5027,2.5607,2.6207,2.6162,2.5862,2.5491,2.5165,2.4753,2.4401,2.4379,2.4694,2.4979,2.5196,2.5417,2.5532,2.5566,2.5583,2.5562,2.5542,2.5549,2.5541,2.5547,2.496,2.3766,2.3368,2.3135,2.3046,2.3035,2.3091,2.3164,2.3117,2.3069,2.2969,2.2535,2.1616,2.101,2.1038,2.1065,-0.4111,-0.4124,-0.3955,-0.3792,-0.3684,-0.3458,-0.3128,-0.2801,-0.357,-0.3735,-0.3518,-0.3078,-0.3246,-0.3463,-0.3467,-0.3412,-0.3357,-0.3247,-0.308,-0.2691,-0.2521,-0.2465,-0.2353,-0.2071,-0.179,-0.151,-0.1342,-0.1118,-0.0838,-0.0671,-0.0559,-0.0336,-0.0578,-0.0716,-0.0615,-0.0127,0.0195,0.0667,0.0671,0.0871,0.1472,0.2209,0.2947,0.3678,0.441,0.5209,0.6121,0.6839,0.7233,0.8597,0.9694,1.0518,1.1684,1.2967,1.4309,1.5298,1.644,1.7002,1.7567,1.8405,1.891,1.9239,1.9592,2.0194,2.0597,2.0809,2.1124,2.1444,2.1813,2.2149,2.242,2.2725,2.3024,2.3413,2.3941,2.4471,2.4973,2.5516,2.6071,2.6455,2.6315,2.6014,2.5579,2.5159,2.4612,2.4293,2.4257,2.4538,2.4795,2.5025,2.5252,2.5471,2.5541,2.5577,2.5611,2.5614,2.5654,2.5674,2.5675,2.5201,2.4183,2.4124,2.4337,2.4102,2.3887,2.4179,2.428,2.4216,2.3825,2.3005,2.2559,2.2062,2.1874,2.2008,2.2264,-0.3437,-0.3351,-0.3131,-0.2968,-0.2968,-0.2911,-0.2799,-0.2691,-0.2912,-0.3021,-0.2911,-0.2802,-0.2802,-0.2968,-0.2969,-0.2913,-0.2913,-0.2856,-0.28,-0.252,-0.224,-0.2015,-0.1903,-0.1454,-0.1174,-0.1062,-0.0894,-0.0503,-0.0112,0.0,0.0056,0.0169,0.0058,0.0,0.0369,0.0822,0.1362,0.2075,0.2402,0.2465,0.2796,0.3935,0.4877,0.5338,0.5937,0.666,0.757,0.828,0.9049,1.0078,1.0783,1.1896,1.3291,1.4732,1.5628,1.6317,1.7252,1.7797,1.8286,1.8945,1.9494,1.9907,2.0302,2.0858,2.1209,2.1319,2.1554,2.1915,2.2275,2.261,2.2972,2.3319,2.3666,2.4105,2.4541,2.502,2.5511,2.5997,2.653,2.6519,2.6421,2.6104,2.5694,2.5169,2.4541,2.426,2.4159,2.4292,2.4582,2.4823,2.5069,2.527,2.5466,2.5532,2.5592,2.5629,2.5654,2.5686,2.5683,2.5156,2.456,2.4606,2.4705,2.4737,2.4713,2.4902,2.5099,2.5274,2.471,2.3597,2.3173,2.2944,2.2888,2.2984,2.3343,-0.3012,-0.296,-0.2785,-0.2691,-0.2691,-0.2691,-0.2691,-0.2691,-0.2691,-0.2691,-0.2691,-0.2691,-0.2691,-0.2691,-0.2691,-0.2635,-0.2635,-0.2409,-0.2296,-0.2127,-0.1734,-0.151,-0.1174,-0.0839,-0.0615,-0.0448,-0.0112,0.0336,0.0674,0.1119,0.1288,0.1129,0.0983,0.131,0.1718,0.207,0.2573,0.3341,0.3976,0.4344,0.4411,0.5289,0.6316,0.6785,0.7444,0.8161,0.8927,0.9697,1.0388,1.1384,1.2262,1.3412,1.4615,1.5628,1.6498,1.7218,1.7978,1.8578,1.8998,1.9527,2.0118,2.0422,2.0858,2.1257,2.1792,2.1988,2.2353,2.2711,2.3223,2.3602,2.3837,2.4131,2.4511,2.4918,2.5277,2.568,2.5929,2.6225,2.6657,2.6838,2.6768,2.6692,2.6344,2.6197,2.5488,2.455,2.4411,2.4422,2.462,2.4801,2.4991,2.5098,2.5302,2.546,2.5537,2.5584,2.5619,2.5649,2.5683,2.5457,2.5117,2.5049,2.5047,2.511,2.5229,2.5427,2.5634,2.5694,2.5255,2.4186,2.402,2.4009,2.3943,2.383,2.413,-0.2764,-0.2799,-0.2714,-0.2691,-0.2691,-0.2691,-0.2691,-0.2691,-0.2691,-0.2691,-0.2635,-0.2578,-0.2635,-0.2691,-0.2578,-0.2578,-0.2409,-0.1903,-0.1734,-0.151,-0.1062,-0.0839,-0.056,-0.0224,0.0056,0.0395,0.0854,0.1192,0.1532,0.2108,0.2467,0.24,0.2847,0.3462,0.3479,0.3818,0.4382,0.4696,0.5243,0.6056,0.6273,0.6392,0.715,0.7904,0.8701,0.9345,1.0116,1.0888,1.1454,1.2553,1.3717,1.4732,1.5512,1.628,1.6995,1.7771,1.8429,1.9069,1.9643,2.0169,2.0485,2.0785,2.1222,2.1718,2.2246,2.2779,2.3143,2.3585,2.4105,2.4369,2.4599,2.4791,2.516,2.554,2.5856,2.6159,2.6337,2.6511,2.6759,2.7038,2.7002,2.6974,2.692,2.6782,2.6134,2.5189,2.4879,2.4855,2.4903,2.5061,2.5233,2.5172,2.518,2.5332,2.542,2.5506,2.5537,2.5601,2.5629,2.5669,2.5644,2.5436,2.5379,2.5526,2.5669,2.5696,2.5693,2.5697,2.5152,2.4606,2.4405,2.4287,2.4222,2.4209,2.4684,-0.2691,-0.2724,-0.2741,-0.2691,-0.2691,-0.2691,-0.2691,-0.2691,-0.2691,-0.2691,-0.2522,-0.2184,-0.2184,-0.2635,-0.2128,-0.1964,-0.1862,-0.135,-0.112,-0.1006,-0.0448,-0.0224,-0.0056,0.0282,0.073,0.1142,0.1579,0.2134,0.2456,0.3201,0.3666,0.3659,0.357,0.3966,0.4128,0.4675,0.5229,0.5782,0.6472,0.7183,0.7933,0.7893,0.7373,0.8196,0.9251,0.988,1.0622,1.1571,1.2679,1.3833,1.486,1.569,1.6223,1.6627,1.7285,1.805,1.8756,1.9285,1.9862,2.0385,2.0649,2.0885,2.1348,2.2107,2.2727,2.3542,2.3926,2.4366,2.4736,2.4791,2.495,2.4997,2.5253,2.5705,2.6074,2.6347,2.6572,2.6767,2.6982,2.6986,2.6883,2.6864,2.6856,2.6575,2.6162,2.5574,2.5739,2.573,2.5697,2.5625,2.5543,2.544,2.5314,2.512,2.5197,2.5366,2.5441,2.5515,2.5579,2.5622,2.5656,2.5644,2.5654,2.5682,2.5693,2.5702,2.5701,2.5699,2.5319,2.484,2.4549,2.4379,2.4394,2.4557,2.4994]},{"header":{"parameterUnit":"m.s-1","parameterCategory":1,"la1":31.0,"la2":29.5877,"lo1":-88.7671,"lo2":-86.6584,"dy":0.0162,"dx":0.0185,"nx":115,"ny":88,"refTime":"2025-08-04T12:00:00:Z","depth":0,"parameterNumber":3,"parameterNumberName":"V-component_of_WINDS"},"data":[0.0,0.0,0.0,0.0,0.0,0.0,0.0,0.0,0.0,0.0,0.0,0.0,0.0,0.0,0.0,0.0,0.0,0.0,0.0,0.0,0.0,0.0,0.0,0.0,0.0,0.0,0.0,0.0,0.0,0.0,0.0,0.0,0.0,0.0,0.0,0.0,0.0,0.0,0.0,0.0,0.0,0.0,0.0,0.0,0.0,0.0,0.0,0.0,0.0,0.0,0.0,0.0,0.0,0.0,0.0,0.0,0.0,0.0,0.0,0.0,0.0,0.0,0.0,0.0,0.0,0.0,0.0,0.0,0.0,0.0,0.0,0.0,0.0,0.0,0.0,0.0,0.0,0.0,0.0,0.0,0.0,0.0,0.0,0.0,0.0,0.0,0.0,0.0,0.0,0.0,0.0,0.0,0.0,0.0,0.0,0.0,0.0,0.0,0.0,0.0,0.0,0.0,0.0,0.0,0.0,0.0,0.0,0.0,0.0,0.0,0.0,0.0,0.0,0.0,0.0,0.0,0.0,0.0,0.0,0.0,0.0,0.0,0.0,0.0,0.0,0.0,0.0,0.0,0.0,0.0,0.0,0.0,0.0,0.0,0.0,0.0,0.0,0.0,0.0,0.0,0.0,0.0,0.0,0.0,0.0,0.0,0.0,0.0,0.0,0.0,0.0,0.0,0.0,0.0,0.0,0.0,0.0,0.0,0.0,0.0,0.0,0.0,0.0,0.0,0.0,0.0,0.0,0.0,0.0,0.0,0.0,0.0,0.0,0.0,0.0,0.0,0.0,0.0,0.0,0.0,0.0,0.0,0.0,0.0,0.0,0.0,0.0,0.0,0.0,0.0,0.0,0.0,0.0,0.0,0.0,0.0,0.0,0.0,0.0,0.0,0.0,0.0,0.0,0.0,0.0,0.0,0.0,0.0,0.0,0.0,0.0,0.0,0.0,0.0,0.0,0.0,0.0,0.0,0.0,0.0,0.0,0.0,0.0,0.0,0.0,0.0,0.0,0.0,0.0,0.0,0.0,0.0,0.0,0.0,0.0,0.0,0.0,0.0,0.0,0.0,0.0,0.0,0.0,0.0,0.0,0.0,0.0,0.0,0.0,0.0,0.0,0.0,0.0,0.0,0.0,0.0,0.0,0.0,0.0,0.0,0.0,0.0,0.0,0.0,0.0,0.0,0.0,0.0,0.0,0.0,0.0,0.0,0.0,0.0,0.0,0.0,0.0,0.0,0.0,0.0,0.0,0.0,0.0,0.0,0.0,0.0,0.0,0.0,0.0,0.0,0.0,0.0,0.0,0.0,0.0,0.0,0.0,0.0,0.0,0.0,0.0,0.0,0.0,0.0,0.0,0.0,0.0,0.0,0.0,0.0,0.0,0.0,0.0,0.0,0.0,0.0,0.0,0.0,0.0,0.0,0.0,0.0,0.0,0.0,0.0,0.0,0.0,0.0,0.0,0.0,0.0,0.0,0.0,0.0,0.0,0.0,0.0,0.0,0.0,0.0,0.0,0.0,0.0,0.0,0.0,0.0,0.0,0.0,0.0,0.0,0.0,0.0,0.0,0.0,0.0,0.0,0.0,0.0,0.0,0.0,0.0,0.0,0.0,0.0,0.0,0.0,0.0,0.0,0.0,0.0,0.0,0.0,0.0,0.0,0.0,0.0,0.0,0.0,0.0,0.0,0.0,0.0,0.0,0.0,0.0,0.0,0.0,0.0,0.0,0.0,0.0,0.0,0.0,0.0,0.0,0.0,0.0,0.0,0.0,0.0,0.0,0.0,0.0,0.0,0.0,0.0,0.0,0.0,0.0,0.0,0.0,0.0,0.0,0.0,0.0,0.0,0.0,0.0,0.0,0.0,0.0,0.0,0.0,0.0,0.0,0.0,0.0,0.0,0.0,0.0,0.0,0.0,0.0,0.0,0.0,0.0,0.0,0.0,0.0,0.0,0.0,0.0,0.0,0.0,0.0,0.0,0.0,0.0,0.0,0.0,0.0,0.0,0.0,0.0,0.0,0.0,0.0,0.0,0.0,0.0,0.0,0.0,0.0,0.0,0.0,0.0,0.0,0.0,0.0,0.0,0.0,0.0,0.0,0.0,0.0,0.0,0.0,0.0,0.0,0.0,0.0,0.0,0.0,0.0,0.0,0.0,0.0,0.0,0.0,0.0,0.0,0.0,0.0,0.0,0.0,0.0,0.0,0.0,0.0,0.0,0.0,0.0,0.0,0.0,0.0,0.0,0.0,0.0,0.0,0.0,0.0,0.0,0.0,0.0,0.0,0.0,0.0,0.0,0.0,0.0,0.0,0.0,0.0,0.0,0.0,0.0,0.0,0.0,0.0,0.0,0.0,0.0,0.0,0.0,0.0,0.0,0.0,0.0,0.0,0.0,0.0,0.0,0.0,0.0,0.0,0.0,0.0,0.0,0.0,0.0,0.0,0.0,0.0,0.0,0.0,0.0,0.0,0.0,0.0,0.0,0.0,0.0,0.0,0.0,0.0,0.0,0.0,0.0,0.0,0.0,0.0,0.0,0.0,0.0,0.0,0.0,0.0,0.0,0.0,0.0,0.0,0.0,0.0,0.0,0.0,0.0,0.0,0.0,0.0,0.0,0.0,0.0,0.0,0.0,0.0,0.0,0.0,0.0,0.0,0.0,0.0,0.0,0.0,0.0,0.0,0.0,0.0,0.0,0.0,0.0,0.0,0.0,0.0,0.0,0.0,0.0,0.0,0.0,0.0,0.0,0.0,0.0,0.0,0.0,0.0,0.0,0.0,0.0,0.0,0.0,0.0,0.0,0.0,0.0,0.0,0.0,0.0,0.0,0.0,0.0,0.0,0.0,0.0,0.0,0.0,0.0,0.0,0.0,0.0,0.0,0.0,0.0,0.0,0.0,0.0,0.0,0.0,0.0,0.0,0.0,0.0,0.0,0.0,0.0,0.0,0.0,0.0,0.0,0.0,0.0,0.0,0.0,0.0,0.0,0.0,0.0,0.0,0.0,0.0,0.0,0.0,0.0,0.0,0.0,0.0,0.0,0.0,0.0,0.0,0.0,0.0,0.0,0.0,0.0,0.0,0.0,0.0,0.0,0.0,0.0,0.0,0.0,0.0,0.0,0.0,0.0,0.0,0.0,0.0,0.0,0.0,0.0,0.0,0.0,0.0,0.0,0.0,0.0,0.0,0.0,0.0,0.0,0.0,0.0,0.0,0.0,0.0,0.0,0.0,0.0,0.0,0.0,0.0,0.0,0.0,0.0,0.0,0.0,0.0,0.0,0.0,0.0,0.0,0.0,0.0,0.0,0.0,0.0,0.0,0.0,0.0,0.0,0.0,0.0,0.0,0.0,0.0,0.0,0.0,0.0,0.0,0.0,0.0,0.0,0.0,0.0,0.0,0.0,0.0,0.0,0.0,0.0,0.0,0.0,0.0,0.0,0.0,0.0,0.0,0.0,0.0,0.0,0.0,0.0,0.0,0.0,0.0,0.0,0.0,0.0,0.0,0.0,0.0,0.0,0.0,0.0,0.0,0.0,0.0,0.0,0.0,0.0,0.0,0.0,0.0,0.0,0.0,0.0,0.0,0.0,0.0,0.0,0.0,0.0,0.0,0.0,0.0,0.0,0.0,0.0,0.0,0.0,0.0,0.0,0.0,0.0,0.0,0.0,0.0,0.0,0.0,0.0,0.0,0.0,0.0,0.0,0.0,0.0,0.0,0.0,0.0,0.0,0.0,0.0,0.0,0.0,0.0,0.0,0.0,0.0,0.0,0.0,0.0,0.0,0.0,0.0,0.0,0.0,0.0,0.0,0.0,0.0,0.0,0.0,0.0,0.0,0.0,0.0,0.0,0.0,0.0,0.0,0.0,0.0,0.0,0.0,0.0,0.0,0.0,0.0,0.0,0.0,0.0,0.0,0.0,0.0,0.0,0.0,0.0,0.0,0.0,0.0,0.0,0.0,0.0,0.0,0.0,0.0,0.0,0.0,0.0,0.0,0.0,0.0,0.0,0.0,0.0,0.0,0.0,0.0,0.0,0.0,0.0,0.0,0.0,0.0,0.0,0.0,0.0,0.0,0.0,0.0,0.0,0.0,0.0,0.0,0.0,0.0,0.0,0.0,0.0,0.0,0.0,0.0,0.0,0.0,0.0,0.0,0.0,0.0,0.0,0.0,0.0,0.0,0.0,0.0,0.0,0.0,0.0,0.0,0.0,0.0,0.0,0.0,0.0,0.0,0.0,0.0,0.0,0.0,0.0,0.0,0.0,0.0,0.0,0.0,1.6298,0.0,0.0,0.0,0.0,0.0,0.0,0.0,0.0,0.0,0.0,0.0,0.0,0.0,0.0,0.0,0.0,0.0,0.0,0.0,0.0,0.0,0.0,0.0,0.0,0.0,0.0,0.0,0.0,0.0,0.0,0.0,0.0,0.0,0.0,0.0,0.0,0.0,0.0,0.0,0.0,0.0,0.0,0.0,0.0,0.0,0.0,0.0,0.0,0.0,0.0,0.0,0.0,0.0,0.0,0.0,0.0,0.0,0.0,0.0,0.0,0.0,0.0,0.0,0.0,0.0,0.0,0.0,0.0,0.0,0.0,0.0,0.0,0.0,0.0,0.0,0.0,0.0,0.0,0.0,0.0,0.0,0.0,0.0,0.0,0.0,0.0,0.0,0.0,0.0,0.0,0.0,0.0,0.0,0.0,0.0,0.0,0.0,0.0,0.0,0.0,0.0,0.0,0.0,0.0,0.0,0.0,0.0,0.0,0.0,0.0,1.8648,1.8154,1.7786,1.7167,1.6288,0.0,0.0,0.0,0.0,0.0,0.0,0.0,0.0,0.0,0.0,0.0,0.0,0.0,0.0,0.0,0.0,0.0,0.0,0.0,0.0,0.0,0.0,0.0,0.0,0.0,0.0,0.0,0.0,0.0,0.0,0.0,0.0,0.0,0.0,0.0,0.0,0.0,0.0,0.0,0.0,0.0,0.0,0.0,0.0,0.0,0.0,0.0,0.0,0.0,0.0,0.0,0.0,0.0,0.0,0.0,0.0,0.0,0.0,0.0,0.0,0.0,0.0,0.0,0.0,0.0,0.0,0.0,0.0,0.0,0.0,0.0,0.0,0.0,0.0,0.0,0.0,0.0,0.0,0.0,0.0,0.0,0.0,0.0,0.0,0.0,0.0,0.0,0.0,0.0,0.0,0.0,0.0,0.0,0.0,0.0,0.0,0.0,0.0,0.0,0.0,0.0,0.0,0.0,0.0,0.0,0.0,0.0,0.0,0.0,0.0,0.0,0.0,1.7827,1.7082,1.5715,0.0,0.0,0.0,0.0,0.0,0.0,0.0,0.0,0.0,0.0,0.0,0.0,0.0,0.0,0.0,0.0,0.0,0.0,0.0,0.0,0.0,0.0,0.0,0.0,0.0,0.0,0.0,0.0,0.0,0.0,0.0,0.0,0.0,0.0,0.0,0.0,0.0,0.0,0.0,0.0,0.0,0.0,0.0,0.0,0.0,0.0,0.0,0.0,0.0,0.0,0.0,0.0,0.0,0.0,0.0,0.0,0.0,0.0,0.0,0.0,0.0,0.0,0.0,0.0,0.0,0.0,0.0,0.0,0.0,0.0,0.0,0.0,0.0,0.0,0.0,0.0,0.0,0.0,0.0,0.0,0.0,0.0,0.0,0.0,0.0,0.0,0.0,0.0,0.0,0.0,0.0,0.0,0.0,0.0,0.0,0.0,0.0,0.0,0.0,0.0,0.0,0.0,0.0,0.0,0.0,0.0,0.0,0.0,0.0,0.0,1.7755,1.9764,1.9116,0.0,1.4733,0.0,0.0,0.0,0.0,0.0,0.0,0.0,0.0,0.0,0.0,0.0,0.0,0.0,0.0,0.0,0.0,0.0,0.0,0.0,0.0,0.0,0.0,0.0,0.0,0.0,0.0,0.0,0.0,0.0,0.0,0.0,0.0,0.0,0.0,0.0,0.0,0.0,0.0,0.0,0.0,0.0,0.0,0.0,0.0,0.0,0.0,0.0,0.0,0.0,0.0,0.0,0.0,0.0,0.0,0.0,0.0,0.0,0.0,0.0,0.0,0.0,0.0,0.0,0.0,0.0,0.0,0.0,0.0,0.0,0.0,0.0,0.0,0.0,0.0,0.0,0.0,0.0,0.0,0.0,0.0,0.0,0.0,0.0,0.0,0.0,0.0,0.0,0.0,0.0,0.0,0.0,0.0,0.0,0.0,0.0,0.0,0.0,0.0,0.0,0.0,0.0,0.0,0.0,0.0,0.0,0.0,0.0,0.0,0.0,0.0,1.7544,1.8528,1.8163,1.6898,0.0,0.0,0.0,0.0,0.0,0.0,0.0,0.0,0.0,0.0,0.0,0.0,0.0,0.0,0.0,0.0,0.0,0.0,0.0,0.0,0.0,0.0,0.0,0.0,0.0,0.0,0.0,0.0,0.0,0.0,0.0,0.0,0.0,0.0,0.0,0.0,0.0,0.0,0.0,0.0,0.0,0.0,0.0,0.0,0.0,0.0,0.0,0.0,0.0,0.0,0.0,0.0,0.0,0.0,0.0,0.0,0.0,0.0,0.0,0.0,0.0,0.0,0.0,0.0,0.0,0.0,0.0,0.0,0.0,0.0,0.0,0.0,0.0,0.0,0.0,0.0,0.0,0.0,0.0,0.0,0.0,0.0,0.0,0.0,0.0,0.0,0.0,0.0,0.0,0.0,0.0,0.0,0.0,0.0,0.0,0.0,0.0,0.0,0.0,0.0,0.0,0.0,0.0,0.0,0.0,0.0,0.0,0.0,0.0,0.0,1.6385,1.7287,1.7687,1.7821,1.6846,1.4624,0.0,0.0,0.0,0.0,0.0,0.0,0.0,0.0,0.0,0.0,0.0,0.0,0.0,0.0,0.0,0.0,0.0,0.0,0.0,0.0,0.0,0.0,0.0,0.0,0.0,0.0,0.0,0.0,0.0,0.0,0.0,0.0,0.0,0.0,0.0,0.0,0.0,0.0,0.0,0.0,0.0,0.0,0.0,0.0,0.0,0.0,0.0,0.0,0.0,0.0,0.0,0.0,0.0,0.0,0.0,0.0,0.0,0.0,0.0,0.0,0.0,0.0,0.0,0.0,0.0,0.0,0.0,0.0,0.0,0.0,0.0,0.0,0.0,0.0,0.0,0.0,0.0,0.0,0.0,0.0,0.0,0.0,0.0,0.0,0.0,0.0,0.0,0.0,0.0,0.0,0.0,0.0,0.0,0.0,0.0,0.0,0.0,0.0,0.0,0.0,0.0,0.0,0.0,0.0,0.0,0.0,0.0,0.0,1.776,1.6862,1.6908,1.8236,1.8943,1.7617,0.0,0.0,0.0,0.0,0.0,0.0,0.0,0.0,0.0,0.0,0.0,0.0,0.0,0.0,0.0,0.0,0.0,0.0,0.0,0.0,0.0,0.0,0.0,0.0,0.0,0.0,0.0,0.0,0.0,0.0,0.0,0.0,0.0,0.0,0.0,0.0,0.0,0.0,0.0,0.0,0.0,0.0,0.0,0.0,0.0,0.0,0.0,0.0,0.0,0.0,0.0,0.0,0.0,0.0,0.0,0.0,0.0,0.0,0.0,0.0,0.0,0.0,0.0,0.0,0.0,0.0,0.0,0.0,0.0,0.0,0.0,0.0,0.0,0.0,0.0,0.0,0.0,0.0,0.0,0.0,0.0,0.0,0.0,0.0,0.0,0.0,0.0,0.0,0.0,0.0,0.0,0.0,0.0,0.0,0.0,0.0,0.0,0.0,0.0,0.0,0.0,0.0,0.0,0.0,0.0,0.0,0.0,0.0,0.0,1.5533,1.6353,1.7572,1.9135,1.7953,1.6443,0.0,0.0,0.0,0.0,0.0,0.0,0.0,0.0,0.0,0.0,0.0,0.0,0.0,0.0,0.0,0.0,0.0,0.0,0.0,0.0,0.0,0.0,0.0,0.0,0.0,0.0,0.0,0.0,0.0,0.0,0.0,0.0,0.0,0.0,0.0,0.0,0.0,0.0,0.0,0.0,0.0,0.0,0.0,0.0,0.0,0.0,0.0,0.0,0.0,0.0,0.0,0.0,0.0,0.0,0.0,0.0,0.0,0.0,0.0,0.0,0.0,0.0,0.0,0.0,0.0,0.0,0.0,0.0,0.0,0.0,0.0,0.0,0.0,0.0,0.0,0.0,0.0,0.0,0.0,0.0,0.0,0.0,0.0,0.0,0.0,0.0,0.0,0.0,0.0,0.0,0.0,0.0,0.0,0.0,0.0,0.0,0.0,0.0,0.0,0.0,0.0,0.0,0.0,0.0,0.0,0.0,0.0,0.0,0.0,1.4872,0.0,1.8011,1.8438,1.7027,1.5405,0.0,0.0,0.0,0.0,0.0,0.0,0.0,0.0,0.0,0.0,0.0,0.0,0.0,0.0,0.0,0.0,0.0,0.0,0.0,0.0,0.0,0.0,0.0,0.0,0.0,0.0,0.0,0.0,0.0,0.0,0.0,0.0,0.0,0.0,0.0,0.0,0.0,0.0,0.0,0.0,0.0,0.0,0.0,0.0,0.0,0.0,0.0,0.0,0.0,0.0,0.0,0.0,0.0,0.0,0.0,0.0,0.0,0.0,0.0,0.0,0.0,0.0,0.0,0.0,0.0,0.0,0.0,0.0,0.0,0.0,0.0,0.0,0.0,0.0,0.0,0.0,0.0,0.0,0.0,0.0,0.0,0.0,0.0,0.0,0.0,0.0,0.0,0.0,0.0,0.0,0.0,0.0,0.0,0.0,0.0,0.0,0.0,0.0,0.0,0.0,0.0,0.0,0.0,0.0,0.0,0.0,0.0,0.0,1.4142,1.6383,1.8038,1.7975,1.6055,1.6338,1.4608,0.0,0.0,0.0,0.0,0.0,0.0,0.0,0.0,0.0,0.0,0.0,0.0,0.0,0.0,0.0,0.0,0.0,0.0,0.0,0.0,0.0,0.0,0.0,0.0,0.0,0.0,0.0,0.0,0.0,0.0,0.0,0.0,0.0,0.0,0.0,0.0,0.0,0.0,0.0,0.0,0.0,0.0,0.0,0.0,0.0,0.0,0.0,0.0,0.0,0.0,0.0,0.0,0.0,0.0,0.0,0.0,0.0,0.0,0.0,0.0,0.0,0.0,0.0,0.0,0.0,0.0,0.0,0.0,0.0,0.0,0.0,0.0,0.0,0.0,0.0,0.0,0.0,0.0,0.0,0.0,0.0,0.0,0.0,0.0,0.0,0.0,0.0,0.0,0.0,0.0,0.0,0.0,0.0,0.0,0.0,0.0,0.0,0.0,0.0,0.0,0.0,0.0,0.0,0.0,0.0,0.0,0.0,0.0,0.0,1.6108,1.7246,1.7467,1.6676,1.554,1.3934,0.0,0.0,0.0,0.0,0.0,0.0,0.0,0.0,0.0,0.0,0.0,0.0,0.0,0.0,0.0,0.0,0.0,0.0,0.0,0.0,0.0,0.0,0.0,0.0,0.0,0.0,0.0,0.0,0.0,0.0,0.0,0.0,0.0,0.0,0.0,0.0,0.0,0.0,0.0,0.0,0.0,0.0,0.0,0.0,0.0,0.0,0.0,0.0,0.0,0.0,0.0,0.0,0.0,0.0,0.0,0.0,0.0,0.0,0.0,0.0,0.0,0.0,0.0,0.0,0.0,0.0,0.0,0.0,0.0,0.0,0.0,0.0,0.0,0.0,0.0,0.0,0.0,0.0,0.0,0.0,0.0,0.0,0.0,0.0,0.0,0.0,0.0,0.0,0.0,0.0,0.0,0.0,0.0,0.0,0.0,0.0,0.0,0.0,0.0,0.0,0.0,0.0,0.0,0.0,0.0,0.0,0.0,0.0,0.0,1.6644,1.7139,1.7175,1.6829,1.5425,1.3723,1.1784,0.0,0.0,0.0,0.0,0.0,0.0,0.0,0.0,0.0,0.0,0.0,0.0,0.0,0.0,0.0,0.0,0.0,0.0,0.0,0.0,0.0,0.0,0.0,0.0,0.0,0.0,0.0,0.0,0.0,0.0,0.0,0.0,0.0,0.0,0.0,0.0,0.0,0.0,0.0,0.0,0.0,0.0,0.0,0.0,0.0,0.0,0.0,0.0,0.0,0.0,0.0,0.0,0.0,0.0,0.0,0.0,0.0,0.0,0.0,0.0,0.0,0.0,0.0,0.0,0.0,0.0,0.0,0.0,0.0,0.0,0.0,0.0,0.0,0.0,0.0,0.0,0.0,0.0,0.0,0.0,0.0,0.0,0.0,0.0,0.0,0.0,0.0,0.0,0.0,0.0,0.0,0.0,0.0,0.0,0.0,0.0,0.0,0.0,0.0,0.0,0.0,0.0,0.0,0.0,0.0,0.0,0.0,0.0,1.7675,1.7534,1.7164,1.6521,1.5806,1.3957,0.0,0.0,0.0,0.0,0.0,0.0,0.0,0.0,0.0,0.0,0.0,0.0,0.0,0.0,0.0,0.0,0.0,0.0,0.0,0.0,0.0,0.0,0.0,0.0,0.0,0.0,0.0,0.0,0.0,0.0,0.0,0.0,0.0,0.0,0.0,0.0,0.0,0.0,0.0,0.0,0.0,0.0,0.0,0.0,0.0,0.0,0.0,0.0,0.0,0.0,0.0,0.0,0.0,0.0,0.0,0.0,0.0,0.0,0.0,0.0,0.0,0.0,0.0,0.0,0.0,0.0,0.0,0.0,0.0,0.0,0.0,0.0,0.0,0.0,0.0,0.0,0.0,0.0,0.0,0.0,0.0,0.0,0.0,0.0,0.0,0.0,0.0,0.0,0.0,0.0,0.0,0.0,0.0,0.0,0.0,0.0,0.0,0.0,0.0,0.0,0.0,0.0,0.0,0.0,0.0,0.0,0.0,0.0,0.0,1.62,1.6664,1.6858,1.6773,1.5526,1.4047,0.0,0.0,0.0,0.0,0.0,0.0,0.0,0.0,0.0,0.0,0.0,0.0,0.0,0.0,0.0,0.0,0.0,0.0,0.0,0.0,0.0,0.0,0.0,0.0,0.0,0.0,0.0,0.0,0.0,0.0,0.0,0.0,0.0,0.0,0.0,0.0,0.0,0.0,0.0,0.0,0.0,0.0,0.0,0.0,0.0,0.0,0.0,0.0,0.0,0.0,0.0,0.0,0.0,0.0,0.0,0.0,0.0,0.0,0.0,0.0,0.0,0.0,0.0,0.0,0.0,0.0,0.0,0.0,0.0,0.0,0.0,0.0,0.0,0.0,0.0,0.0,0.0,0.0,0.0,0.0,0.0,0.0,0.0,0.0,0.0,0.0,0.0,0.0,0.0,0.0,0.0,0.0,0.0,0.0,0.0,0.0,0.0,0.0,0.0,0.0,0.0,0.0,0.0,0.0,0.0,0.0,0.0,0.0,1.5243,1.5971,1.6983,1.7216,1.6743,1.5654,1.4489,0.0,0.0,0.0,0.0,0.0,0.0,0.0,0.0,0.0,0.0,0.0,0.0,0.0,0.0,0.0,0.0,0.0,0.0,0.0,0.0,0.0,0.0,0.0,0.0,0.0,0.0,0.0,0.0,0.0,0.0,0.0,0.0,0.0,0.0,0.0,0.0,0.0,0.0,0.0,0.0,0.0,0.0,0.0,0.0,0.0,0.0,0.0,0.0,0.0,0.0,0.0,0.0,0.0,0.0,0.0,0.0,0.0,0.0,0.0,0.0,0.0,0.0,0.0,0.0,0.0,0.0,0.0,0.0,0.0,0.0,0.0,0.0,0.0,0.0,0.0,0.0,0.0,0.0,0.0,0.0,0.0,0.0,0.0,0.0,0.0,0.0,0.0,0.0,0.0,0.0,0.0,0.0,0.0,0.0,0.0,0.0,0.0,0.0,0.0,0.0,0.0,0.0,0.0,0.0,0.0,0.0,0.0,0.0,1.6179,1.6238,1.76,1.7771,1.664,1.599,1.5053,0.0,0.0,0.0,0.0,0.0,0.0,0.0,0.0,0.0,0.0,0.0,0.0,0.0,0.0,0.0,0.0,0.0,0.0,0.0,0.0,0.0,0.0,0.0,0.0,0.0,0.0,0.0,0.0,0.0,0.0,0.0,0.0,0.0,0.0,0.0,0.0,0.0,0.0,0.0,0.0,0.0,0.0,0.0,0.0,0.0,0.0,0.0,0.0,0.0,0.0,0.0,0.0,0.0,0.0,0.0,0.0,0.0,0.0,0.0,0.0,0.0,0.0,0.0,0.0,0.0,0.0,0.0,0.0,0.0,0.0,0.0,0.0,0.0,0.0,0.0,0.0,0.0,0.0,0.0,0.0,0.0,0.0,0.0,0.0,0.0,0.0,0.0,0.0,0.0,0.0,0.0,0.0,0.0,0.0,0.0,0.0,0.0,0.0,0.0,0.0,0.0,0.0,0.0,0.0,0.0,0.0,0.0,0.0,1.4739,1.5216,1.6542,1.7245,1.7238,1.5911,1.4719,0.0,0.0,0.0,0.0,0.0,0.0,0.0,0.0,0.0,0.0,0.0,0.0,0.0,0.0,0.0,0.0,0.0,0.0,0.0,0.0,0.0,0.0,0.0,0.0,0.0,0.0,0.0,0.0,0.0,0.0,0.0,0.0,0.0,0.0,0.0,0.0,0.0,0.0,0.0,0.0,0.0,0.0,0.0,0.0,0.0,0.0,0.0,0.0,0.6004,0.0,0.0,0.0,0.0,0.0,0.0,0.0,0.0,0.0,0.0,0.0,0.0,0.0,0.0,0.0,0.0,0.0,0.0,0.0,0.0,0.0,0.0,0.0,0.0,0.0,0.0,0.0,0.0,0.0,0.0,0.0,0.0,0.0,0.0,0.0,0.0,0.0,0.0,0.0,0.0,0.0,0.0,0.0,0.0,0.0,0.0,0.0,0.0,0.0,0.0,0.0,0.0,0.0,0.0,0.0,0.0,0.0,0.0,0.0,1.3693,1.4456,1.5604,1.6207,1.6219,1.5694,1.4906,0.0,0.0,0.0,0.0,0.0,0.0,0.0,0.0,0.0,0.0,0.0,0.0,0.0,0.0,0.0,0.0,0.0,0.0,0.0,0.0,0.0,0.0,0.0,0.0,0.0,0.0,0.0,0.0,0.0,0.0,0.0,0.0,0.0,0.0,0.0,0.0,0.0,0.0,0.0,0.0,0.0,0.0,0.0,0.0,0.0,0.0,0.0,0.0,0.0,0.0,0.0,0.0,0.0,0.0,0.0,0.0,0.0,0.0,0.0,0.0,0.0,0.0,0.0,0.0,0.0,0.0,0.0,0.0,0.0,0.0,0.0,0.0,0.0,0.0,0.0,0.0,0.0,0.0,0.0,0.0,0.0,0.0,0.0,0.0,0.0,0.0,0.0,0.0,0.0,0.0,0.0,0.0,0.0,0.0,0.0,0.0,0.0,0.0,0.0,0.0,0.0,0.0,0.0,0.0,0.0,0.0,0.0,1.2077,1.2935,1.408,1.4826,1.5066,1.482,1.5256,1.5043,1.4196,0.0,0.0,0.0,0.0,0.0,0.0,0.0,0.0,0.0,0.0,0.0,0.0,0.0,0.0,0.0,0.0,0.0,0.0,0.0,0.0,0.0,0.0,0.0,0.0,0.0,0.0,0.0,0.0,0.0,0.0,0.0,0.0,0.0,0.0,0.0,0.0,0.0,0.0,0.8839,0.895,0.0,0.0,0.0,0.0,0.0,0.0,0.0,0.0,0.4387,0.0,0.0,0.0,0.0,0.0,0.0,0.0,0.0,0.0,0.0,0.0,0.0,0.0,0.0,0.0,0.0,0.0,0.0,0.0,0.0,0.0,0.0,0.0,0.0,0.0,0.0,0.0,0.0,0.0,0.0,0.0,0.0,0.0,0.0,0.0,0.0,0.0,0.0,0.0,0.0,0.0,0.0,0.0,0.0,0.0,0.0,0.0,0.0,0.0,0.0,0.0,0.0,0.0,0.0,0.0,0.0,1.2981,1.2118,1.2587,1.4439,1.4442,1.437,1.4327,1.4412,1.4189,1.3525,0.0,0.0,0.0,0.0,0.0,0.0,0.0,0.0,0.0,0.0,0.0,0.0,0.0,0.0,0.0,0.0,0.0,0.0,0.0,0.0,0.0,0.0,0.0,0.0,0.0,0.0,0.0,0.0,0.0,0.0,0.0,0.0,0.0,0.0,0.0,0.0,0.0,0.0,0.0,0.945,0.9406,0.0,0.0,0.0,0.0,0.0,0.0,0.0,0.0,0.2639,0.0,0.0,0.0,0.0,0.0,0.0,0.0,0.0,0.0,0.0,0.0,0.0,0.0,0.0,0.0,0.0,0.0,0.0,0.0,0.0,0.0,0.0,0.0,0.0,0.0,0.0,0.0,0.0,0.0,0.0,0.0,0.0,0.0,0.0,0.0,0.0,0.0,0.0,0.0,0.0,0.0,0.0,0.0,0.0,0.0,0.0,0.0,0.0,0.0,0.0,0.0,0.0,0.0,0.0,0.0,1.1709,1.1989,1.2691,1.3866,1.3725,1.3539,1.3437,1.3376,1.2259,0.0,0.0,0.0,0.0,0.0,0.0,0.0,0.0,0.0,0.0,0.0,0.0,0.0,0.0,0.0,0.0,0.0,0.0,0.0,0.0,0.0,0.0,0.0,0.0,0.0,0.0,0.0,0.0,0.0,0.0,0.0,0.0,0.0,0.0,0.0,0.0,0.0,0.0,0.0,0.0,0.9291,0.9051,0.9117,0.0,0.0,0.0,0.0,0.0,0.0,0.2469,0.2096,0.0,0.0,0.0,0.0,0.0,0.0,0.0,0.0,0.0,0.0,0.0,0.0,0.0,0.0,0.0,0.0,0.0,0.0,0.0,0.0,0.0,0.0,0.0,0.0,0.0,0.0,0.0,0.0,0.0,0.0,0.0,0.0,0.0,0.0,0.0,0.0,0.0,0.0,0.0,0.0,0.0,0.0,0.0,0.0,0.0,0.0,0.0,0.0,0.0,0.0,0.0,0.0,0.0,0.0,0.0,1.0402,1.1707,1.2599,1.3052,1.2938,1.2661,1.2392,1.2372,1.0556,0.0,0.0,0.0,0.0,0.0,0.0,0.0,0.0,0.0,0.0,0.0,0.0,0.0,0.0,0.0,0.0,0.0,0.0,0.0,0.0,0.0,0.0,0.0,0.0,0.0,0.0,0.0,0.0,0.0,0.0,0.0,0.0,0.0,0.0,0.0,0.0,0.0,0.0,0.0,0.0,0.0,0.8576,0.9063,0.7474,0.0,0.0,0.0,0.0,0.162,0.1755,0.0,0.0,0.0,0.0,0.0,0.0,0.0,0.0,0.0,0.0,0.0,0.0,0.0,0.0,0.0,0.0,0.0,0.0,0.0,0.0,0.0,0.0,0.0,0.0,0.0,0.0,0.0,0.0,0.0,0.0,0.0,0.0,0.0,0.0,0.0,0.0,0.0,0.0,0.0,0.0,0.0,0.0,0.0,0.0,0.0,0.0,0.0,0.0,0.0,0.0,0.0,0.0,0.0,0.0,0.0,0.0,1.0386,1.1274,1.1973,1.2357,1.2319,1.1953,1.1221,1.1649,1.0414,0.0,0.0,0.0,0.0,0.0,0.0,0.0,0.0,0.0,0.0,0.0,0.0,0.0,0.0,0.0,0.0,0.0,0.0,0.0,0.0,0.0,0.0,0.0,0.0,0.0,0.0,0.0,0.0,0.0,0.0,0.0,0.0,0.0,0.0,0.0,0.0,0.0,0.0,0.0,0.0,0.0,0.8575,0.7173,0.6358,0.5194,0.0,0.0,0.1909,0.0522,0.0365,0.0,0.0,0.0,0.0,0.0,0.0,0.0,0.0,0.0,0.0,0.0,0.0,0.0,0.0,0.0,0.0,0.0,0.0,0.0,0.0,0.0,0.0,0.0,0.0,0.0,0.0,0.0,0.0,0.0,0.0,0.0,0.0,0.0,0.0,0.0,0.0,0.0,0.0,0.0,0.0,0.0,0.0,0.0,0.0,0.0,0.0,0.0,0.0,0.0,0.0,0.0,0.0,0.0,0.0,0.0,0.943,1.0408,1.187,1.2579,1.2567,1.2096,1.1527,1.0916,1.0617,0.8363,0.0,0.0,0.0,0.0,0.0,0.0,0.0,0.0,0.0,0.0,0.0,0.0,0.0,0.0,0.0,0.0,0.0,0.0,0.0,0.0,0.0,0.0,0.0,0.0,0.0,0.0,0.0,0.0,0.0,0.0,0.0,0.0,0.0,0.0,0.0,0.0,0.0,0.0,0.0,0.0,0.0,0.0,0.6538,0.5665,0.0,0.0,0.0,0.1401,-0.0057,0.0,0.0,0.0,0.0,0.0,0.0,0.0,0.0,0.0,0.0,0.0,0.0,0.0,0.0,0.0,0.0,0.0,0.0,0.0,0.0,0.0,0.0,0.0,0.0,0.0,0.0,0.0,0.0,0.0,0.0,0.0,0.0,0.0,0.0,0.0,0.0,0.0,0.0,0.0,0.0,0.0,0.0,0.0,0.0,0.0,0.0,0.0,0.0,0.0,0.0,0.0,0.0,0.0,0.0,0.0,0.0,0.0,1.0194,1.2267,1.3117,1.253,1.1981,1.1388,1.0842,1.0107,0.0,0.0,0.0,0.0,0.0,0.0,0.0,0.0,0.0,0.0,0.0,0.0,0.0,0.0,0.0,0.0,0.0,0.0,0.0,0.0,0.0,0.0,0.0,0.0,0.0,0.0,0.0,0.5815,0.0,0.0,0.0,0.0,0.0,0.0,0.0,0.0,0.0,0.0,0.0,0.0,0.0,0.0,0.7031,0.5923,0.5135,0.4191,0.0,0.0,0.0828,-0.0466,-0.0372,-0.0701,0.0,0.0,0.0,0.0,0.0,0.0,0.0,0.0,0.0,0.0,0.0,0.0,0.0,0.0,0.0,0.0,0.0,0.0,0.0,0.0,0.0,0.0,0.0,0.0,0.0,0.0,0.0,0.0,0.0,0.0,0.0,0.0,0.0,0.0,0.0,0.0,0.0,0.0,0.0,0.0,0.0,0.0,0.0,0.0,0.0,0.0,0.0,0.0,0.0,0.0,0.0,0.0,0.0,0.0,0.0,0.9589,1.2067,1.288,1.1819,1.181,1.151,1.0918,1.0421,0.717,0.0,0.0,0.0,0.0,0.0,0.0,0.0,0.0,0.0,0.0,0.0,0.0,0.0,0.0,0.0,0.0,0.0,0.0,0.0,0.0,0.0,0.0,0.0,0.0,0.0,0.0,0.0,0.0,0.0,0.0,0.0,0.0,0.0,0.0,0.0,0.0,0.0,0.0,0.0,0.0,0.0,0.6771,0.481,0.4492,0.3945,0.0,0.0,0.0186,-0.0762,-0.1375,-0.223,-0.3716,0.0,0.0,0.0,0.0,0.0,0.0,0.0,0.0,0.0,0.0,0.0,0.0,0.0,0.0,0.0,0.0,0.0,0.0,0.0,0.0,0.0,0.0,0.0,0.0,0.0,0.0,0.0,0.0,0.0,0.0,0.0,0.0,0.0,0.0,0.0,0.0,0.0,0.0,0.0,0.0,0.0,0.0,0.0,0.0,0.0,0.0,0.0,0.0,0.0,0.0,0.0,0.0,0.0,0.9109,0.9296,1.1478,1.2129,1.1204,1.1142,1.0493,0.9133,0.9628,0.7473,0.0,0.0,0.0,0.0,0.0,0.0,0.0,0.0,0.0,0.0,0.0,0.0,0.0,0.0,0.0,0.0,0.0,0.0,0.0,0.0,0.0,0.0,0.0,0.0,0.0,0.0,0.0,0.0,0.7292,0.7514,0.7338,0.0,0.0,0.0,0.0,0.0,0.0,0.0,0.0,0.0,0.0,0.6402,0.4323,0.4009,0.0,0.0,0.0638,-0.0189,-0.1443,-0.2178,-0.2875,-0.3624,-0.4118,0.0,0.0,0.0,0.0,0.0,0.0,0.0,0.0,0.0,0.0,0.0,0.0,0.0,0.0,0.0,0.0,0.0,0.0,0.0,0.0,0.0,0.0,0.0,0.0,0.0,0.0,0.0,0.0,0.0,0.0,0.0,0.0,0.0,0.0,0.0,0.0,0.0,0.0,0.0,0.0,0.0,0.0,0.0,0.0,0.0,0.0,0.0,0.0,0.0,0.0,0.0,0.0,0.8819,0.8898,1.0897,1.1461,1.0514,1.0387,0.9648,0.8341,0.8935,0.7419,0.0,0.0,0.0,0.0,0.0,0.0,0.0,0.0,0.0,0.0,0.0,0.0,0.0,0.0,0.0,0.0,0.0,0.0,0.0,0.0,0.0,0.0,0.0,0.0,0.0,0.0,0.0,0.0,0.7259,0.7305,0.6798,0.0,0.0,0.0,0.0,0.0,0.0,0.0,0.0,0.0,0.0,0.5938,0.422,0.3675,0.2724,0.0826,0.0063,-0.0687,-0.1911,-0.2688,-0.3306,-0.3777,0.0,0.0,0.0,0.0,0.0,0.0,0.0,0.0,0.0,0.0,0.0,0.0,0.0,0.0,0.0,0.0,0.0,0.0,0.0,0.0,0.0,0.0,0.0,0.0,0.0,0.0,0.0,0.0,0.0,0.0,1.2148,0.0,0.0,0.0,0.0,0.0,0.0,0.0,0.0,0.0,0.0,0.0,0.0,0.0,0.0,0.0,0.0,0.0,0.0,0.0,0.0,0.0,0.0,0.8867,0.8256,1.0484,1.1028,0.9852,0.9588,0.9241,0.8773,0.8601,0.6887,0.3381,0.0,0.0,0.0,0.0,0.0,0.0,0.0,0.0,0.0,0.0,0.0,0.0,0.0,0.0,0.0,0.0,0.0,0.0,0.0,0.0,0.0,0.0,0.0,0.0,0.0,0.0,0.5638,0.6214,0.6567,0.0,0.0,0.0,0.0,0.0,0.0,0.0,0.0,0.0,0.0,0.6312,0.5487,0.4488,0.3557,0.2337,0.0802,-0.0481,-0.1429,-0.2019,-0.2707,-0.3509,0.0,0.0,0.0,0.0,0.0,0.0,0.0,0.0,0.0,0.0,0.0,0.0,0.0,0.0,0.0,0.0,0.0,0.0,0.0,0.0,0.0,0.0,0.0,0.0,0.0,0.0,0.0,1.3866,1.3432,0.0,0.0,0.0,0.0,0.0,0.0,0.0,0.0,0.0,0.0,0.0,1.5077,1.5261,0.0,0.0,0.0,0.0,0.0,0.0,0.0,0.0,0.0,0.0,0.0,0.0,0.8436,0.8431,1.0043,1.0547,0.9686,0.9332,0.8566,0.7446,0.8094,0.6814,0.3342,0.0,0.0,0.0,0.0,0.0,0.0,0.0,0.0,0.0,0.0,0.0,0.0,0.0,0.0,0.0,0.0,0.0,0.0,0.0,0.0,0.0,0.0,0.0,0.0,0.0,0.6004,0.0,0.0,0.0,0.0,0.0,0.0,0.0,0.0,0.0,0.0,0.0,0.7674,0.7577,0.6453,0.5312,0.4518,0.3313,0.1859,0.0,0.0,0.0,0.0,0.0,0.0,0.0,0.0,0.0,0.0,0.0,0.0,0.0,0.0,-0.7849,-0.7865,-0.7917,-0.8032,-0.8255,0.0,0.0,0.0,0.0,0.0,0.0,0.0,0.0,0.0,0.0,0.0,0.0,0.0,0.0,0.0,0.0,1.517,0.0,0.0,0.0,0.0,0.0,0.0,0.0,0.0,1.6109,1.6413,1.6044,1.6297,1.5972,0.0,1.4874,1.3829,0.0,0.0,0.0,0.0,0.0,0.0,0.0,0.0,0.8456,0.8516,0.9922,1.0198,0.9239,0.8892,0.8088,0.6836,0.7341,0.667,0.4605,0.3399,0.2051,0.0,0.0,0.0,0.0,0.0,0.0,0.0,0.0,0.0,0.0,0.0,0.0,0.0,0.0,0.0,0.0,0.0,0.0,0.0,0.0,0.0,0.0,0.0,0.6114,0.0,0.0,0.0,0.0,0.0,0.0,0.0,0.0,0.0,0.7564,0.79,0.8033,0.7813,0.6276,0.4879,0.4098,0.0,0.0,0.0,0.0,0.0,0.0,0.0,-0.4088,-0.4226,-0.4846,-0.5282,-0.5344,-0.6264,-0.7019,-0.7112,0.0,0.0,-0.8308,-0.8515,-0.8745,-0.886,-0.9211,-0.9669,-1.0236,-1.0812,-1.1386,0.0,0.0,0.0,0.0,0.0,0.0,0.0,0.0,1.629,1.6268,0.0,1.5539,0.0,0.0,0.0,0.0,0.0,0.0,0.0,0.0,1.8279,1.8313,1.7189,1.6749,1.6535,1.646,1.5611,1.5227,1.5168,1.3529,0.0,0.0,0.0,0.0,0.0,0.0,0.9008,0.8725,1.0099,1.0068,0.8604,0.8261,0.7762,0.6983,0.6556,0.6553,0.6894,0.4771,0.3342,0.2898,0.0234,0.0,0.0,0.0,0.0,0.0,0.0,0.0,0.0,0.0,0.0,0.0,0.0,0.0,0.0,0.0,0.0,0.0,0.0,0.0,0.0,0.5504,0.0,0.0,0.0,0.0,0.0,0.0,0.0,0.0,0.0,0.0,0.8165,0.7828,0.7621,0.7576,0.0,0.0,0.0,0.0,0.0782,-0.0227,-0.1066,-0.1857,-0.2769,-0.3405,-0.4029,-0.4636,0.0,0.0,-0.5366,-0.6313,-0.7014,-0.685,-0.8099,-0.8998,-0.8587,-0.902,-0.9366,-0.9138,-0.9911,-1.0753,-1.1088,-1.1431,-1.1748,1.7324,0.0,0.0,0.0,0.0,1.5148,1.6126,1.7775,1.8323,1.8312,1.8008,1.8101,0.0,0.0,0.0,0.0,0.0,0.0,1.6367,1.6089,1.6804,1.7167,1.7274,1.7109,1.706,1.7049,1.6814,1.6792,1.6928,1.6058,1.3711,1.0082,0.0,0.0,0.0,0.0,0.9718,0.9512,1.036,1.019,0.8929,0.8614,0.8308,0.7972,0.7192,0.7118,0.7675,0.6443,0.5105,0.3789,0.2264,0.0,0.0,0.0,0.0,0.0,0.0,0.0,0.0,0.0,0.0,0.0,0.0,0.0,0.0,0.0,0.0,0.0,0.0,0.0,0.4208,0.5407,0.6136,0.0,0.0,0.0,0.0,0.0,0.0,0.0,0.0,0.0,0.841,0.8222,0.7957,0.0,0.0,0.4274,0.3687,0.2565,0.1312,-0.006,0.0,0.0,0.0,-0.3009,-0.3472,-0.4268,-0.4928,-0.5367,-0.5493,-0.6567,-0.7326,-0.7341,-0.88,-0.9825,-0.9077,-0.8991,-0.9357,-0.9802,-1.0287,-1.0891,-1.1881,-1.2366,-1.2783,1.9981,1.8288,1.6861,1.6453,1.6774,1.6537,1.7519,1.9273,1.9436,1.9442,1.9396,1.95,1.8808,1.7522,1.7221,0.0,0.0,0.0,1.6887,1.6574,1.7014,1.7295,1.7484,1.744,1.744,1.7434,1.7038,1.6976,1.7301,1.6424,1.444,1.1576,0.0,0.0,0.8506,0.9731,1.0198,0.9941,1.0544,1.0351,0.9329,0.8825,0.8574,0.8461,0.7507,0.7375,0.8125,0.7488,0.6672,0.5714,0.4809,0.3507,0.0,0.0,0.0,0.0,0.0,0.0,0.0,0.0,0.0,0.0,0.0,0.3959,0.3069,0.0,0.0,0.0,0.5151,0.5169,0.5653,0.6572,0.0,0.0,0.0,0.0,0.0,0.0,0.0,0.8218,0.8996,0.9311,0.8615,0.8072,0.7588,0.6969,0.5655,0.4411,0.3607,0.0,0.1406,0.0307,-0.0427,-0.1218,-0.2109,-0.2592,-0.3181,-0.4169,-0.4946,-0.5555,-0.5896,-0.6754,-0.7467,-0.7976,-0.9008,-0.9786,-0.9469,-0.9145,-0.921,-1.011,-1.0604,-1.1163,-1.2174,-1.2494,-1.2858,2.1928,2.0715,1.8089,1.7386,1.8049,1.8043,1.8742,1.9855,1.9874,1.9874,1.9925,1.9996,1.9534,1.8615,1.7922,0.0,0.0,1.8211,1.8223,1.8147,1.8363,1.8164,1.775,1.7761,1.7706,1.7706,1.6735,1.6436,1.6768,1.5496,1.4324,1.3367,1.3205,1.211,1.0282,1.0633,1.0646,1.0124,1.0647,1.0539,0.9698,0.91,0.8794,0.8754,0.7795,0.7713,0.8568,0.8208,0.8063,0.825,0.7708,0.7186,0.6832,0.0,0.0,0.0,0.0,0.0,0.0,0.0,0.0,0.0,0.0,0.0,0.0,0.0,0.0,0.0,0.7685,0.0,0.8265,0.8484,0.0,0.0,0.0,0.7981,0.8603,0.9092,0.9438,0.9572,0.0,0.0,0.8801,0.0,0.6789,0.63,0.5494,0.4491,0.3262,0.2201,0.1275,0.0742,-0.0302,-0.1188,-0.1669,-0.231,-0.309,-0.4124,-0.5004,-0.5628,-0.617,-0.6726,-0.744,-0.8189,-0.8801,-0.9172,-0.9821,-0.927,-0.9151,-1.0077,-1.0759,-1.1365,-1.1992,-1.2185,-1.2301,2.0974,2.033,1.9655,1.9327,1.9211,1.9211,1.9676,2.0451,2.0464,2.0529,2.0648,2.0655,2.0442,2.0034,1.9943,1.9686,1.9342,1.8998,1.8637,1.8357,1.8067,1.7941,1.7975,1.8001,1.7995,1.7993,1.7771,1.7373,1.6941,1.6277,1.5204,1.3817,1.335,1.2575,1.1454,1.1496,1.1461,1.1217,1.1321,1.103,1.0462,1.0323,1.0259,1.0179,0.9769,0.9818,1.0428,1.0021,0.9686,0.9566,0.969,0.9235,0.8022,0.7148,0.0,0.0,0.0,0.0,0.0,0.0,0.0,0.0,0.0,0.6054,0.4262,0.0,0.694,0.0,0.8956,0.9422,0.8226,0.8725,0.0,0.0,0.8536,0.8624,0.9957,0.9917,0.9954,1.0311,1.0162,0.97,0.9023,0.7857,0.6824,0.6118,0.5229,0.4418,0.3702,0.2801,0.1973,0.1179,0.0125,-0.0813,-0.128,-0.2309,-0.314,-0.339,-0.4121,-0.498,-0.5837,-0.6392,-0.6905,-0.7747,-0.8845,-0.9367,-0.9172,-0.9242,-0.9533,-0.9903,-1.034,-1.0972,-1.1872,-1.2247,-1.2544,2.0884,2.0449,2.0449,2.012,1.9656,1.961,1.9895,2.0282,2.0341,2.0412,2.0536,2.0641,2.0617,2.0524,2.0662,2.0334,1.9637,1.9337,1.8863,1.8338,1.8182,1.8159,1.8328,1.8327,1.8333,1.8323,1.811,1.7652,1.6971,1.6271,1.536,1.432,1.3629,1.3065,1.256,1.1926,1.1259,1.0657,1.0987,1.11,1.0995,1.1115,1.0844,1.0286,1.0273,1.0249,1.016,0.9952,0.9737,0.9547,0.9475,0.9259,0.8675,0.7946,0.7524,0.0,0.0,0.0,0.0,0.0,0.0,0.0,0.0,0.0,0.0,0.0,0.7968,0.0,0.953,0.0,0.8732,0.9349,0.9809,0.9663,0.9548,0.9771,1.0503,1.0692,1.0909,1.11,1.0563,1.0047,0.9606,0.8093,0.6773,0.623,0.5298,0.4515,0.4016,0.3054,0.2108,0.1637,0.0441,-0.056,-0.1073,-0.2388,-0.3308,-0.3363,-0.3936,-0.4897,-0.6133,-0.6356,-0.6763,-0.8012,-0.8595,-0.8938,-0.9095,-0.9037,-0.9204,-0.9839,-1.0087,-1.0557,-1.1341,-1.1766,-1.2046,2.1087,2.0618,2.0665,2.0368,1.9798,1.9708,1.9714,1.9856,1.9933,2.0048,2.0086,2.041,2.0518,2.0568,2.0662,2.0277,1.9527,1.9423,1.9022,1.8307,1.8512,1.8619,1.8667,1.8667,1.8673,1.8673,1.8176,1.7639,1.7003,1.5945,1.5153,1.462,1.3805,1.3355,1.3315,1.2113,1.0947,0.9867,1.0475,1.0971,1.124,1.1539,1.1086,0.9952,1.0312,1.0165,0.9402,0.9458,0.9448,0.9291,0.8924,0.8912,0.9433,0.8742,0.839,0.0,0.8043,0.0,0.0,0.0,0.0,0.0,0.0,0.0,0.0,0.8749,0.9136,0.8566,0.9816,1.0426,0.9691,1.0237,1.0591,1.0376,1.0774,1.0941,1.0759,1.1369,1.1743,1.1747,1.0909,1.0272,1.0075,0.8156,0.667,0.6425,0.5499,0.4693,0.4253,0.3061,0.2051,0.1983,0.0684,-0.0597,-0.1375,-0.2483,-0.3323,-0.3406,-0.3924,-0.4954,-0.6336,-0.6311,-0.6706,-0.817,-0.8096,-0.8009,-0.9123,-0.8631,-0.8579,-0.964,-0.9887,-1.0127,-1.0675,-1.1102,-1.123,2.047,2.0013,2.0431,2.0373,1.9978,1.9939,1.9939,1.9984,1.9984,2.0144,2.041,2.0599,2.0725,2.0845,2.0845,2.0612,2.0163,1.9759,1.9408,1.9164,1.8774,1.8727,1.8934,1.8934,1.8993,1.9058,1.8512,1.7784,1.6997,1.6066,1.4993,1.367,1.3331,1.2815,1.2181,0.0,0.0,0.0,1.1486,1.1244,1.095,1.1794,1.1694,1.0579,1.1497,0.0,1.1228,1.1568,1.1688,1.1445,1.1702,0.0,0.0,0.0,0.0,0.0,0.0,0.0,0.0,0.0,0.0,0.0,0.8482,0.8381,0.7696,0.8758,0.9629,1.0076,1.0719,1.12,1.1337,1.1127,1.1152,1.1392,1.103,1.0937,1.1677,1.1556,1.1369,1.1365,1.0787,1.0145,0.9643,0.7904,0.6726,0.6614,0.5488,0.4669,0.454,0.3287,0.2355,0.2175,0.0534,-0.097,-0.174,-0.2529,-0.2993,-0.291,-0.3407,-0.4282,-0.5353,-0.553,-0.5805,-0.7145,-0.7054,-0.7004,-0.7635,-0.7714,-0.796,-0.8635,-0.9267,-0.9945,-1.0492,-1.0897,-1.1118,2.0832,0.0,2.064,2.0553,0.0,2.0182,2.0131,2.0188,2.0246,2.036,2.0618,2.0725,2.0831,2.0894,2.0924,2.0799,2.0459,2.0003,1.9708,1.946,1.904,1.8887,1.8993,1.9052,1.9111,1.9164,1.8722,1.8013,1.7109,1.6289,1.5236,1.3962,1.369,1.3338,1.2922,1.3007,1.2813,1.2239,1.216,1.2001,1.1934,1.3192,1.3384,1.2346,0.0,0.0,0.0,0.0,0.0,0.0,0.0,0.0,0.0,0.0,0.0,1.1467,1.0764,1.0205,0.9967,0.9925,0.9899,0.9895,0.9873,0.9528,0.8731,0.9482,1.0329,1.1085,1.1487,1.1806,1.2089,1.156,1.1174,1.1041,1.0989,1.1055,1.1233,1.1553,1.1685,1.1432,1.1052,1.0601,0.997,0.8358,0.7193,0.6987,0.5804,0.4809,0.4677,0.3486,0.2302,0.1511,0.0058,-0.1177,-0.1624,-0.2433,-0.3117,-0.3276,-0.357,-0.4286,-0.5368,-0.5441,-0.5711,-0.6602,-0.6647,-0.6621,-0.7341,-0.7354,-0.7447,-0.8281,-0.8751,-0.9125,-0.9639,-1.0267,-1.0764,2.1506,2.1417,2.1175,2.0986,2.0858,2.0603,2.061,2.0703,0.0,0.0,0.0,2.0875,2.0938,2.0994,2.1003,2.0885,2.0616,2.0295,1.9946,1.961,1.9303,1.9099,1.9052,1.9176,1.9275,1.9251,1.8861,1.8232,1.7353,1.652,1.5593,1.4708,1.4328,1.4145,1.4062,1.3858,1.3471,1.2782,1.2691,1.2771,1.2987,1.4333,1.4601,1.3674,1.419,1.4212,1.3544,1.3042,1.2683,1.2572,1.2667,1.2642,1.2418,1.2285,1.2414,1.2789,1.2316,1.2106,1.2335,1.1702,1.1396,1.1604,1.1059,1.0524,1.0153,1.0522,1.109,1.1868,1.2182,1.2425,1.2605,1.1981,1.1296,1.0717,1.0979,1.1104,1.0843,1.1538,1.2058,1.1802,1.1556,1.1115,1.0285,0.8754,0.7586,0.7175,0.6002,0.5074,0.4792,0.3521,0.205,0.0585,-0.0512,-0.1231,-0.151,-0.2349,-0.3221,-0.3582,-0.3855,-0.437,-0.5249,-0.545,-0.5663,-0.6253,-0.6253,-0.6485,-0.7083,-0.6929,-0.6969,-0.8037,-0.8157,-0.8225,-0.8754,-0.9491,-1.008,2.1948,2.1609,2.2088,2.184,2.1182,2.1513,2.1792,2.1948,2.12,2.0838,2.0881,2.0954,2.1046,2.1138,2.118,2.1026,2.0809,2.0696,2.0308,0.0,1.9656,1.9512,1.9164,1.9322,1.942,1.9469,1.8633,1.8163,1.7981,1.6751,1.5789,1.5291,1.4914,1.464,1.4373,1.4471,1.4376,1.4005,1.3286,1.2877,1.2751,1.3395,1.3443,1.2845,1.3658,1.3972,1.3706,1.3963,1.3973,1.3706,1.4071,1.4306,1.44,1.3853,1.3764,1.4141,1.3361,1.2797,1.272,1.235,1.2004,1.1619,1.1247,1.0975,1.094,1.1344,1.1856,1.2363,1.2785,1.3147,1.3143,1.2585,1.2093,1.1919,1.1403,1.134,1.1977,1.1984,1.2108,1.2528,1.2104,1.1285,1.0239,0.8751,0.752,0.6856,0.5978,0.5143,0.4367,0.3373,0.1922,0.0341,-0.0562,-0.1064,-0.1454,-0.2404,-0.2973,-0.3034,-0.357,-0.4065,-0.4515,-0.4678,-0.4864,-0.5166,-0.5601,-0.5797,-0.5656,-0.6066,-0.664,-0.7128,-0.7453,-0.7849,-0.8536,-0.8973,-0.9181,2.2694,2.2519,2.2558,2.2374,2.2028,2.2,2.2146,2.2456,2.2675,2.2213,2.1395,2.1471,2.1423,2.1235,2.1284,2.1271,2.1111,2.1042,2.0845,2.0497,2.0434,2.0352,2.0163,2.0022,1.9971,1.9965,1.8833,1.8154,1.7836,1.6759,1.595,1.5527,1.55,1.5406,1.5283,1.5238,1.5193,1.5209,1.4586,1.4182,1.4088,1.4869,1.5229,1.5084,1.5531,1.5875,1.5969,1.5675,1.5464,1.5465,1.5345,1.5269,1.5107,1.4783,1.4587,1.477,1.407,1.3649,1.3588,1.292,1.2367,1.1875,1.1619,1.1494,1.1494,1.1915,1.2093,1.1984,1.2593,1.2899,1.2593,1.1969,1.1666,1.1988,1.167,1.1787,1.2466,1.272,1.2777,1.283,1.2409,1.1729,1.0947,0.9134,0.7881,0.7365,0.622,0.5031,0.43,0.3652,0.273,0.1345,0.0224,-0.0505,-0.084,-0.1734,-0.2516,-0.307,-0.3389,-0.3853,-0.4415,-0.464,-0.4745,-0.4917,-0.5391,-0.5775,-0.5712,-0.6204,-0.675,-0.7402,-0.7343,-0.7731,-0.8154,-0.8453,-0.8715,2.3356,2.3348,2.3076,2.2979,2.2927,2.2402,2.2462,2.2978,2.3896,2.352,2.2292,2.2123,2.1807,2.1465,2.1465,2.1458,2.1465,2.1437,2.1376,2.1286,2.1237,2.114,2.1042,2.0746,2.0544,2.0243,1.9165,1.8297,1.7638,1.6879,1.6269,1.5896,1.5938,1.6038,1.602,1.5888,1.5894,1.6032,1.578,1.5552,1.5427,1.6248,1.6757,1.7008,1.7032,1.7321,1.7701,1.7025,1.6736,1.6973,1.6467,1.5951,1.5633,1.5371,1.5156,1.4975,1.4492,1.4189,1.4125,1.3459,1.2858,1.2601,1.2413,1.2282,1.2347,1.2757,1.263,1.1911,1.247,1.2773,1.2351,1.1911,1.167,1.2042,1.2224,1.2524,1.3009,1.3377,1.3498,1.3195,1.2781,1.2158,1.1075,0.9448,0.805,0.7288,0.6182,0.5104,0.4537,0.4068,0.3461,0.257,0.1175,0.0168,0.0,-0.0943,-0.1994,-0.3002,-0.3212,-0.3656,-0.4325,-0.4736,-0.4789,-0.4781,-0.5287,-0.564,-0.6075,-0.6183,-0.6607,-0.7267,-0.7234,-0.7222,-0.7738,-0.808,-0.8327,2.3494,2.361,2.366,2.3746,2.3746,2.2868,2.3054,2.3978,2.4224,2.3983,2.3348,2.254,2.2177,2.2084,2.1848,2.18,2.18,2.199,2.1942,2.1657,2.1698,2.1547,2.1272,2.1424,2.1009,2.0139,1.962,1.8854,1.7907,1.7348,1.6928,1.6582,1.6201,1.6058,1.612,1.6324,1.6374,1.6275,1.646,1.638,1.5988,1.6149,1.6311,1.6467,1.6486,1.6751,1.7363,1.7252,1.7406,1.7701,1.709,1.6601,1.6379,1.5652,1.5152,1.5029,1.4492,1.4125,1.401,1.3756,1.3743,1.3974,1.3846,1.373,1.379,1.4255,1.3961,1.2777,1.2903,1.3139,1.3009,1.3264,1.3268,1.2948,1.3373,1.3846,1.385,1.3906,1.3923,1.3881,1.3268,1.2258,1.0601,0.9223,0.783,0.644,0.597,0.5561,0.5195,0.4627,0.4184,0.3518,0.2124,0.1007,0.078,-0.038,-0.1407,-0.2154,-0.2666,-0.3199,-0.3849,-0.4335,-0.4613,-0.4409,-0.4883,-0.5335,-0.5114,-0.5034,-0.5643,-0.6414,-0.6579,-0.6678,-0.734,-0.7788,-0.7901,2.3812,2.3839,2.3882,2.3982,2.4032,2.3572,2.3701,2.4257,2.4395,2.4338,2.4067,2.3465,2.3009,2.2642,2.2427,2.2434,2.2642,2.2716,2.2656,2.2551,2.2747,2.2694,2.2459,2.2221,2.1681,2.0854,2.0209,1.9307,1.8296,1.7613,1.7253,1.7186,1.7067,1.7018,1.7054,1.7018,1.706,1.7124,1.707,1.6909,1.6625,1.6423,1.6399,1.6473,1.6804,1.7077,1.7213,1.7261,1.747,1.7839,1.7272,1.6863,1.6821,1.6384,1.5936,1.5498,1.5201,1.4951,1.4569,1.4638,1.4628,1.4501,1.4437,1.4382,1.4282,1.4519,1.4277,1.3674,1.3855,1.3786,1.2944,1.3304,1.3674,1.3726,1.3965,1.4213,1.4533,1.4231,1.3997,1.4043,1.3204,1.2307,1.1187,0.9623,0.79,0.6385,0.5891,0.5784,0.5675,0.5014,0.4351,0.3788,0.2587,0.1702,0.1328,0.0586,-0.0474,-0.1284,-0.1877,-0.2465,-0.3128,-0.3705,-0.3999,-0.3976,-0.4523,-0.4845,-0.4719,-0.5075,-0.5578,-0.5929,-0.621,-0.646,-0.6702,-0.7353,-0.7646,2.4024,2.4032,2.4059,2.4158,2.4208,2.4124,2.4165,2.4351,2.4513,2.4554,2.4482,2.4245,2.3929,2.3478,2.3143,2.3091,2.3384,2.3421,2.3501,2.36,2.3794,2.3724,2.3414,2.2937,2.2185,2.1312,2.0507,1.9545,1.8576,1.8038,1.7808,1.7868,1.7848,1.7882,1.7916,1.774,1.7645,1.772,1.7578,1.7455,1.7208,1.697,1.6759,1.6602,1.6923,1.7174,1.7258,1.7321,1.7593,1.8157,1.7606,1.7294,1.7451,1.7207,1.6765,1.6171,1.5946,1.5753,1.5439,1.5575,1.5526,1.5323,1.5264,1.5206,1.5172,1.5118,1.4991,1.4746,1.5026,1.4669,1.3239,1.3472,1.4016,1.4319,1.451,1.4765,1.5083,1.4532,1.4001,1.381,1.2847,1.1888,1.1047,0.9419,0.7739,0.6698,0.6154,0.5884,0.5775,0.5064,0.4236,0.3843,0.2967,0.2142,0.1597,0.089,0.0153,-0.0779,-0.1627,-0.2055,-0.2706,-0.3378,-0.3634,-0.3821,-0.41,-0.4336,-0.4509,-0.5,-0.5362,-0.5528,-0.5858,-0.6111,-0.6124,-0.6932,-0.735,2.4074,2.4174,2.4261,2.4268,2.4302,2.4274,2.4379,2.4498,2.4564,2.4597,2.4597,2.4686,2.4734,2.4613,2.3894,2.3694,2.3891,2.4105,2.4313,2.4502,2.4527,2.4289,2.3884,2.3302,2.2341,2.1165,2.0473,1.9617,1.8683,1.8616,1.8696,1.8772,1.8461,1.8351,1.839,1.8254,1.8016,1.7915,1.8055,1.8022,1.7801,1.7747,1.7338,1.6686,1.6553,1.6835,1.7287,1.7407,1.7862,1.8871,1.8258,1.807,1.849,1.7907,1.7418,1.7096,1.659,1.642,1.6595,1.6446,1.64,1.6575,1.657,1.6632,1.6462,1.6467,1.6285,1.5879,1.6218,1.5796,1.4373,1.4551,1.4855,1.4909,1.5298,1.5551,1.5609,1.4663,1.3809,1.3279,1.236,1.1099,0.9447,0.8194,0.7544,0.6983,0.6534,0.61,0.5719,0.4835,0.4117,0.3681,0.3088,0.228,0.1475,0.0975,0.0,-0.0914,-0.1405,-0.1942,-0.2921,-0.3678,-0.3634,-0.3661,-0.3842,-0.4109,-0.4361,-0.4585,-0.4737,-0.4994,-0.5371,-0.5583,-0.5704,-0.6339,-0.6883,2.4227,2.4276,2.431,2.4351,2.44,2.4331,2.4405,2.4605,2.4797,2.4829,2.4782,2.4862,2.4934,2.4942,2.4622,2.4614,2.4767,2.4695,2.4759,2.4958,2.4981,2.4823,2.4472,2.3628,2.2886,2.2087,2.1045,2.0101,1.925,1.893,1.8893,1.8997,1.8891,1.8836,1.8829,1.856,1.8443,1.8599,1.8496,1.8347,1.8273,1.8233,1.7941,1.738,1.7067,1.6903,1.6823,1.7181,1.7733,1.848,1.8567,1.8684,1.8779,1.819,1.7699,1.7545,1.7379,1.7329,1.7385,1.7462,1.7357,1.7245,1.7251,1.7094,1.6869,1.6756,1.6699,1.6581,1.6575,1.6275,1.5979,1.5853,1.5916,1.5753,1.5821,1.5899,1.5647,1.4742,1.3857,1.3212,1.1813,1.0114,0.9315,0.841,0.7726,0.6939,0.6539,0.6161,0.567,0.5005,0.4255,0.351,0.3018,0.2486,0.1402,0.1172,0.0606,-0.0337,-0.1016,-0.1581,-0.2415,-0.3261,-0.3386,-0.3599,-0.3743,-0.3741,-0.3975,-0.4158,-0.4335,-0.4549,-0.4908,-0.5142,-0.5299,-0.595,-0.6633,2.4359,2.4359,2.4385,2.4434,2.4515,2.4453,2.4502,2.4694,2.4917,2.4957,2.4902,2.4974,2.5013,2.5092,2.5084,2.5248,2.544,2.5177,2.5208,2.5513,2.5513,2.5271,2.4676,2.3814,2.3062,2.2433,2.1431,2.049,1.9927,1.9637,1.95,1.9493,1.9391,1.931,1.9273,1.9035,1.9004,1.9087,1.8905,1.8798,1.8745,1.87,1.8514,1.8082,1.7747,1.731,1.6791,1.7163,1.7633,1.8191,1.8676,1.9064,1.9165,1.8727,1.8417,1.8273,1.817,1.8121,1.8007,1.8078,1.7975,1.7695,1.7584,1.7423,1.7145,1.6982,1.6987,1.6931,1.6869,1.6807,1.674,1.6735,1.657,1.6239,1.6119,1.6056,1.5894,1.4809,1.3767,1.275,1.1142,0.9872,0.9268,0.8741,0.7961,0.6972,0.665,0.627,0.5725,0.4953,0.425,0.3294,0.2746,0.208,0.1137,0.0659,0.0184,-0.0661,-0.1271,-0.1684,-0.2159,-0.2886,-0.3333,-0.3578,-0.3612,-0.3524,-0.3572,-0.3799,-0.401,-0.4236,-0.4438,-0.4679,-0.5036,-0.5506,-0.6218,2.4498,2.4531,2.4589,2.4622,2.4614,2.457,2.4664,2.4831,2.5005,2.5123,2.5146,2.5076,2.5232,2.5286,2.5402,2.5546,2.5787,2.5712,2.5778,2.6104,2.6066,2.5491,2.4583,2.3751,2.2828,2.1927,2.1383,2.0934,2.0589,2.0563,2.0486,2.0254,1.9909,1.976,1.9788,1.966,1.9479,1.9361,1.9369,1.9354,1.9295,1.9139,1.8905,1.863,1.8468,1.8088,1.7328,1.7434,1.7806,1.8289,1.8781,1.9284,1.9678,1.954,1.9506,1.9257,1.9005,1.8732,1.8554,1.835,1.8193,1.8084,1.7871,1.7761,1.7651,1.744,1.7273,1.7273,1.7217,1.7145,1.7011,1.6949,1.6797,1.6483,1.6296,1.6171,1.5866,1.4844,1.3394,1.2017,1.0656,0.9895,0.9614,0.9054,0.8209,0.7512,0.6974,0.6431,0.5812,0.4783,0.3783,0.3244,0.261,0.1785,0.0896,0.0,-0.0603,-0.1258,-0.1738,-0.2169,-0.2676,-0.3324,-0.3428,-0.3639,-0.3592,-0.3509,-0.3691,-0.3878,-0.401,-0.4196,-0.4266,-0.4365,-0.4892,-0.537,-0.582,2.4823,2.4662,2.5198,2.5137,2.4728,2.4644,2.485,2.5283,2.5602,2.5762,2.5799,2.5844,2.5832,2.5832,2.5969,2.5985,2.5926,2.6181,2.6304,2.6156,2.5776,2.5352,2.4776,2.3522,2.2346,2.1537,2.1492,2.137,2.1111,2.0909,2.0736,2.0595,2.0315,2.0177,2.0204,1.9909,1.9795,1.9874,1.9508,1.9332,1.942,1.9325,1.9176,1.9064,1.8822,1.8722,1.889,1.8662,1.8773,1.9264,1.9527,1.9756,1.9773,1.9753,1.9668,1.9565,1.9408,1.9257,1.9058,1.8899,1.8732,1.8512,1.8344,1.8187,1.7981,1.7761,1.7601,1.7551,1.7312,1.7067,1.7011,1.6909,1.6802,1.6699,1.6591,1.6405,1.597,1.4608,1.31,1.1963,1.0909,1.0293,0.9814,0.9204,0.857,0.7664,0.7125,0.664,0.5905,0.4951,0.4031,0.3579,0.2634,0.1689,0.0874,-0.0045,-0.0912,-0.1465,-0.1986,-0.2456,-0.2993,-0.3349,-0.3483,-0.3571,-0.3524,-0.3568,-0.3792,-0.3924,-0.4056,-0.4056,-0.4072,-0.4372,-0.4838,-0.522,-0.566,2.5338,2.5184,2.5689,2.5697,2.5251,2.4924,2.5134,2.5754,2.6388,2.648,2.6262,2.6255,2.6272,2.6297,2.6428,2.647,2.6418,2.6758,2.6791,2.6522,2.5732,2.5196,2.4688,2.3212,2.2186,2.1683,2.1797,2.1759,2.1501,2.1285,2.1111,2.0966,2.0828,2.0803,2.0844,2.0648,2.0581,2.0486,2.007,1.9823,1.9775,1.953,1.9508,1.966,1.9398,1.9566,2.02,1.9883,1.9818,2.0134,2.0352,2.039,2.0201,2.0099,1.9952,1.9656,1.9558,1.9512,1.9269,1.917,1.921,1.9034,1.8928,1.8821,1.8655,1.8494,1.8333,1.8278,1.7941,1.7595,1.749,1.724,1.7088,1.6992,1.6874,1.6637,1.6053,1.4699,1.3556,1.2644,1.1632,1.0755,1.0123,0.9614,0.8932,0.7972,0.7492,0.6895,0.6137,0.5334,0.4551,0.3602,0.232,0.1516,0.0991,-0.0045,-0.1163,-0.1703,-0.2194,-0.2591,-0.3081,-0.3258,-0.3391,-0.3437,-0.3434,-0.3525,-0.3704,-0.3838,-0.397,-0.3926,-0.3926,-0.423,-0.4618,-0.5007,-0.5468,2.6013,2.6041,2.6148,2.6139,2.5975,2.5433,2.5595,2.6208,2.7042,2.7028,2.6478,2.6514,2.659,2.6725,2.6849,2.6939,2.7141,2.7267,2.7281,2.6968,2.6122,2.5105,2.3967,2.2803,2.222,2.2148,2.2217,2.2106,2.1819,2.1738,2.17,2.144,2.1401,2.1515,2.1485,2.1683,2.1378,2.0934,2.0836,2.0622,2.0361,1.9866,1.9866,2.0462,2.012,2.0304,2.1049,2.103,2.0856,2.0806,2.1077,2.1026,2.0868,2.0696,2.0409,1.9901,1.9759,1.9714,1.9571,1.9519,1.9519,1.9753,1.9482,1.9384,1.9592,1.9377,1.9273,1.9226,1.8886,1.856,1.8352,1.7946,1.7584,1.7273,1.6982,1.6627,1.6177,1.5054,1.4077,1.3542,1.2407,1.1112,1.058,1.0075,0.9343,0.8597,0.8153,0.7274,0.6285,0.5441,0.4636,0.3478,0.2131,0.1179,0.0536,-0.0892,-0.1962,-0.2448,-0.2803,-0.3067,-0.3123,-0.3213,-0.3301,-0.3301,-0.3391,-0.3483,-0.3615,-0.3794,-0.3968,-0.4012,-0.4056,-0.4144,-0.4528,-0.5082,-0.5644,2.6324,2.6148,2.6725,2.6657,2.6237,2.6488,2.6614,2.6683,2.7252,2.7382,2.7221,2.7276,2.7213,2.7261,2.75,2.7522,2.7391,2.7695,2.7725,2.7294,2.6179,2.4637,2.3303,2.2587,2.2291,2.2319,2.233,2.2245,2.2152,2.1953,2.1811,2.1773,2.1601,2.1532,2.1598,2.1688,2.1501,2.1198,2.1007,2.082,2.0597,2.0326,2.0292,2.0522,2.0571,2.09,2.1611,2.1942,2.1839,2.1303,2.1049,2.1163,2.1363,2.1308,2.117,2.0975,2.0924,2.0888,2.0696,2.0503,2.0403,2.0359,2.0194,1.9971,2.0074,1.9856,1.9695,1.9643,1.9423,1.9202,1.8992,1.8519,1.7941,1.7373,1.7032,1.6506,1.5695,1.4706,1.3874,1.3104,1.2485,1.1827,1.1204,1.069,1.0167,0.9441,0.8539,0.7587,0.6431,0.5378,0.4492,0.3304,0.203,0.0948,-0.0178,-0.1647,-0.2716,-0.3197,-0.3499,-0.3703,-0.3505,-0.3214,-0.3213,-0.3213,-0.3437,-0.3573,-0.3704,-0.3836,-0.3966,-0.4184,-0.436,-0.4576,-0.5108,-0.5681,-0.612,2.6833,2.6691,2.716,2.707,2.6757,2.7166,2.727,2.7166,2.7433,2.7587,2.7596,2.7638,2.76,2.7561,2.7853,2.7873,2.7675,2.7735,2.7638,2.7264,2.586,2.4354,2.3137,2.2694,2.265,2.265,2.2624,2.2587,2.2479,2.2268,2.2186,2.2138,2.1966,2.1928,2.2076,2.2039,2.1915,2.1718,2.1491,2.1368,2.1181,2.091,2.1047,2.1213,2.1291,2.1415,2.1835,2.1999,2.1918,2.1713,2.1454,2.1276,2.1285,2.1439,2.1465,2.1419,2.1525,2.1636,2.1656,2.1513,2.1479,2.1431,2.1197,2.1113,2.1168,2.0881,2.0646,2.0653,2.0238,1.9984,1.9676,1.9038,1.8346,1.7935,1.7512,1.6883,1.6039,1.5159,1.4323,1.3576,1.2841,1.217,1.1615,1.1103,1.0558,0.9868,0.8764,0.761,0.6439,0.5339,0.4109,0.2859,0.1298,-0.0087,-0.2081,-0.3795,-0.5729,-0.6107,-0.5568,-0.5488,-0.4432,-0.3835,-0.3345,-0.339,-0.3527,-0.3706,-0.388,-0.4098,-0.4272,-0.4489,-0.4751,-0.5448,-0.6168,-0.6616,-0.7002,2.7345,2.7399,2.7399,2.7438,2.7465,2.7444,2.7439,2.7496,2.7426,2.7521,2.7595,2.7584,2.7569,2.776,2.7968,2.81,2.8192,2.7651,2.7211,2.6619,2.5503,2.4174,2.3333,2.3051,2.3001,2.3026,2.3075,2.2951,2.2764,2.2694,2.2641,2.2525,2.2497,2.2569,2.2543,2.2615,2.2482,2.2192,2.2062,2.1973,2.1799,2.1519,2.1625,2.2023,2.1903,2.1828,2.1936,2.1894,2.1797,2.2192,2.195,2.158,2.1158,2.1506,2.1642,2.1682,2.2008,2.22,2.245,2.2472,2.2465,2.2629,2.2402,2.2377,2.2399,2.2042,2.1725,2.1677,2.1237,2.0795,2.039,1.9496,1.8961,1.8703,1.8369,1.7778,1.6955,1.6003,1.5134,1.4479,1.3259,1.2445,1.1755,1.117,1.0537,1.007,0.8838,0.7395,0.6174,0.5049,0.3671,0.2252,0.0519,-0.1359,-0.3716,-0.6172,-0.8257,-0.9603,-0.8636,-0.7891,-0.6173,-0.5205,-0.4053,-0.3654,-0.3834,-0.4056,-0.4274,-0.4447,-0.4798,-0.4792,-0.5053,-0.6433,-0.7756,-0.801,-0.8322,2.7474,2.7474,2.7465,2.7496,2.7505,2.7522,2.7526,2.7482,2.6819,2.6956,2.7417,2.7104,2.7278,2.7904,2.8064,2.8318,2.8379,2.768,2.6977,2.5688,2.5293,2.4441,2.3714,2.3321,2.3116,2.3149,2.3124,2.3082,2.2991,2.2901,2.2833,2.2859,2.2721,2.2649,2.272,2.2738,2.2553,2.2248,2.222,2.2181,2.2076,2.1953,2.2019,2.2358,2.2276,2.2203,2.2239,2.2551,2.2625,2.2341,2.2106,2.228,2.264,2.2438,2.2569,2.3073,2.2903,2.2991,2.3445,2.3419,2.3355,2.3413,2.3231,2.298,2.3032,2.2785,2.2466,2.2196,2.182,2.1424,2.1057,2.0488,1.9965,1.9505,1.8909,1.8195,1.7155,1.63,1.5345,1.4233,1.3533,1.2992,1.2417,1.1271,1.0626,1.0104,0.8746,0.7158,0.5758,0.45,0.2372,0.0412,-0.2086,-0.4498,-0.7523,-0.9725,-1.129,-1.2385,-1.1547,-1.0302,-0.855,-0.6874,-0.5854,-0.4919,-0.4232,-0.4567,-0.5359,-0.5701,-0.6215,-0.5812,-0.5929,-0.7822,-0.9319,-0.9491,-1.0661,2.6969,2.7033,2.7025,2.7033,2.7002,2.6734,2.6542,2.6475,2.6072,2.621,2.6709,2.6637,2.7039,2.7611,2.8058,2.8278,2.7819,2.6968,2.6103,2.5299,2.4832,2.4347,2.4044,2.3719,2.3535,2.3468,2.3468,2.3418,2.3294,2.3209,2.3179,2.314,2.2993,2.2935,2.2893,2.2859,2.2747,2.2509,2.2419,2.24,2.2364,2.2373,2.2463,2.2579,2.2604,2.2609,2.2886,2.3138,2.3337,2.3287,2.3226,2.3209,2.3522,2.345,2.3705,2.3877,2.3848,2.3686,2.4021,2.3979,2.3958,2.4455,2.421,2.4236,2.4104,2.3811,2.3362,2.3098,2.2704,2.2214,2.1967,2.1595,2.1088,2.0568,1.9985,1.9133,1.7891,1.6659,1.5465,1.4281,1.3509,1.3138,1.2456,1.157,1.0644,1.0097,0.8595,0.6907,0.4308,0.2754,-0.0263,-0.2652,-0.5306,-0.816,-1.143,-1.3486,-1.457,-1.4866,-1.4145,-1.2711,-1.1025,-0.9367,-0.7793,-0.6969,-0.6247,-0.6478,-0.7134,-0.7386,-0.8172,-0.9,-0.9711,-1.0507,-1.1398,-1.2481,-1.3946,2.6243,2.6343,2.6372,2.6428,2.637,2.5798,2.5552,2.5508,2.5297,2.5526,2.5805,2.6339,2.6497,2.7085,2.7641,2.7649,2.6982,2.6164,2.5432,2.5046,2.4519,2.4243,2.4104,2.4056,2.3987,2.3887,2.3825,2.3744,2.3653,2.3579,2.3477,2.3392,2.3332,2.3233,2.3157,2.3086,2.2977,2.2782,2.2668,2.2677,2.2721,2.2756,2.2808,2.2885,2.2877,2.2962,2.3273,2.3656,2.4052,2.4486,2.4983,2.476,2.4364,2.4088,2.4486,2.4157,2.4265,2.437,2.4551,2.451,2.4702,2.5553,2.5335,2.5319,2.5325,2.4894,2.4376,2.3979,2.3555,2.312,2.3084,2.2743,2.2412,2.1983,2.1506,2.0401,1.8947,1.7322,1.6163,1.4602,1.3968,1.3621,1.2895,1.2026,1.1034,0.9942,0.8362,0.6363,0.3697,0.0653,-0.2455,-0.4818,-0.7271,-0.9887,-1.3096,-1.5576,-1.6854,-1.6468,-1.5972,-1.4951,-1.3427,-1.2151,-1.0635,-0.9284,-0.8752,-0.8891,-0.9211,-0.9777,-1.0792,-1.2208,-1.2315,-1.1941,-1.335,-1.5459,-1.6618,2.5567,2.5603,2.5826,2.593,2.5921,2.577,2.5637,2.5594,2.4913,2.5097,2.5656,2.5258,2.5715,2.6395,2.6504,2.6365,2.6194,2.5662,2.5236,2.4828,2.4413,2.4275,2.4266,2.4266,2.4238,2.4154,2.4048,2.397,2.397,2.3849,2.378,2.3674,2.3517,2.3405,2.3341,2.3197,2.3126,2.3036,2.2876,2.2833,2.285,2.2893,2.2952,2.3086,2.3044,2.3153,2.3406,2.4164,2.483,2.5105,2.6483,2.7011,2.6596,2.5483,2.5054,2.513,2.5104,2.5071,2.5112,2.5438,2.5713,2.5964,2.5983,2.5955,2.5947,2.5717,2.5362,2.4815,2.437,2.3979,2.4187,2.4017,2.3804,2.3542,2.2854,2.177,2.0456,1.9189,1.763,1.5849,1.4988,1.4179,1.3421,1.2337,1.0946,0.9433,0.7685,0.5185,0.2236,-0.1278,-0.493,-0.7006,-0.8828,-1.1515,-1.4333,-1.6593,-1.8182,-1.7432,-1.6989,-1.6883,-1.565,-1.4852,-1.3625,-1.2052,-1.1139,-1.1007,-1.1456,-1.2083,-1.2627,-1.3474,-1.3246,-1.2958,-1.4648,-1.6365,-1.6702,2.497,2.5063,2.5269,2.538,2.5351,2.4913,2.4742,2.4748,2.4311,2.4374,2.4753,2.4874,2.5225,2.5865,2.6288,2.6303,2.6154,2.5342,2.5119,2.4953,2.4659,2.4383,2.4411,2.4402,2.4486,2.4467,2.4346,2.4248,2.4356,2.4293,2.4201,2.4211,2.4033,2.3866,2.3729,2.3593,2.3408,2.3259,2.3131,2.3107,2.3179,2.3218,2.3298,2.3344,2.3465,2.3729,2.4466,2.5028,2.5994,2.6748,2.7753,2.8224,2.7984,2.7432,2.6542,2.633,2.6036,2.5832,2.5824,2.6076,2.6138,2.6622,2.685,2.7054,2.7077,2.699,2.6593,2.6201,2.5967,2.5754,2.5942,2.5704,2.5595,2.5302,2.4617,2.3614,2.2471,2.1408,1.9645,1.7565,1.5865,1.4914,1.4136,1.2781,1.0967,0.9066,0.6947,0.3791,0.0358,-0.4044,-0.8403,-1.0829,-1.276,-1.4235,-1.598,-1.6738,-1.8013,-1.7477,-1.7234,-1.7161,-1.6855,-1.5601,-1.521,-1.4499,-1.3871,-1.29,-1.3607,-1.4176,-1.4469,-1.4753,-1.5114,-1.5519,-1.6204,-1.6976,-1.7161,2.4409,2.4545,2.4711,2.4841,2.4819,2.416,2.3917,2.3952,2.3867,2.3926,2.4113,2.465,2.5021,2.5362,2.5796,2.6179,2.6329,2.4995,2.4965,2.5142,2.4834,2.4538,2.454,2.458,2.4623,2.47,2.471,2.4584,2.4568,2.4584,2.4657,2.4568,2.4467,2.4328,2.4136,2.3849,2.3683,2.3553,2.3414,2.3459,2.3592,2.3699,2.3792,2.3858,2.4008,2.4638,2.5362,2.6236,2.7032,2.7838,2.8549,2.8953,2.896,2.8941,2.8511,2.7665,2.7058,2.6872,2.6712,2.6826,2.7038,2.7478,2.7834,2.804,2.8099,2.8008,2.7933,2.7706,2.7406,2.7343,2.7288,2.7433,2.7255,2.697,2.644,2.5759,2.4708,2.3637,2.2551,2.021,1.7391,1.5345,1.4291,1.2272,1.023,0.5699,0.3455,-0.0116,-0.3737,-0.8627,-1.2675,-1.5343,-1.7167,-1.7847,-1.8038,-1.6588,-1.6985,-1.63,-1.6214,-1.6184,-1.6113,-1.5722,-1.5479,-1.5109,-1.5041,-1.4325,-1.5293,-1.5869,-1.5851,-1.6171,-1.7199,-1.7441,-1.6997,-1.6933,-1.7113,2.3862,2.4028,2.4291,2.4386,2.4404,2.4256,2.4247,2.4229,2.4116,2.4136,2.4247,2.4358,2.4606,2.4827,2.4905,2.4994,2.4932,2.4885,2.4754,2.4911,2.4751,2.4676,2.4676,2.4753,2.476,2.4842,2.4949,2.4903,2.4813,2.4749,2.4713,2.4682,2.4543,2.438,2.4337,2.403,2.3777,2.3744,2.3601,2.362,2.3852,2.3959,2.4054,2.4303,2.4819,2.5375,2.5864,2.6876,2.7909,2.8362,2.9055,2.9419,2.9497,2.9502,2.9493,2.9111,2.8605,2.794,2.7693,2.7894,2.8149,2.842,2.8653,2.8699,2.8771,2.8649,2.8521,2.8312,2.8049,2.8061,2.827,2.8219,2.823,2.816,2.7863,2.7335,2.654,2.5134,2.4128,2.199,1.8887,1.5941,1.395,1.1664,0.9091,0.4219,-0.0241,-0.343,-0.7189,-1.1445,-1.453,-1.6591,-1.7068,-1.7647,-1.712,-1.6122,-1.5414,-1.4814,-1.497,-1.503,-1.4868,-1.4763,-1.4963,-1.4694,-1.474,-1.4955,-1.527,-1.579,-1.6578,-1.6872,-1.6963,-1.6913,-1.6775,-1.6847,-1.6855,2.4146,2.4128,2.432,2.4444,2.4513,2.4453,2.4453,2.4487,2.4373,2.4355,2.4399,2.4426,2.4478,2.4584,2.4642,2.4701,2.4682,2.4682,2.4713,2.4744,2.4759,2.4778,2.4822,2.4837,2.4874,2.4964,2.5041,2.5082,2.5012,2.4989,2.4949,2.4808,2.4664,2.4575,2.4543,2.421,2.4125,2.4098,2.4099,2.4183,2.4324,2.4424,2.4488,2.4573,2.5459,2.6048,2.6754,2.7603,2.8655,2.9156,2.972,2.992,2.998,2.999,2.9972,2.9948,2.9601,2.921,2.8983,2.9178,2.9221,2.927,2.9397,2.9664,2.9687,2.9576,2.9469,2.9525,2.9342,2.9259,2.9307,2.9426,2.9477,2.9379,2.883,2.8568,2.7814,2.6521,2.5039,2.2741,2.0222,1.6811,1.3484,1.0829,0.8251,0.4398,0.046,-0.2591,-0.6999,-1.1933,-1.447,-1.6308,-1.6182,-1.5775,-1.4832,-1.3825,-1.3201,-1.2783,-1.3299,-1.3333,-1.3405,-1.3425,-1.3703,-1.3703,-1.3472,-1.3949,-1.474,-1.5452,-1.5998,-1.6173,-1.632,-1.6165,-1.6018,-1.6056,-1.6103,2.4493,2.4414,2.451,2.461,2.4682,2.4578,2.4603,2.4657,2.4578,2.4545,2.4545,2.4545,2.4545,2.4561,2.4642,2.4682,2.4682,2.4682,2.4744,2.4789,2.4813,2.4832,2.4884,2.4921,2.499,2.5091,2.511,2.5141,2.5187,2.5177,2.5098,2.4974,2.4813,2.4746,2.4673,2.4495,2.4374,2.4474,2.4544,2.4629,2.4771,2.4839,2.504,2.546,2.6155,2.7036,2.784,2.8727,2.9599,2.9958,3.018,3.0306,3.0374,3.037,3.0354,3.0326,3.014,3.0017,2.9831,2.9821,2.9863,2.9886,2.9933,3.0139,3.017,3.0311,3.0193,2.992,2.9863,2.989,3.0043,2.9929,2.9708,2.9485,2.9272,2.9226,2.8841,2.721,2.5633,2.3669,2.0662,1.6479,1.322,1.0161,0.7213,0.4144,0.1092,-0.191,-0.672,-1.2063,-1.3308,-1.4779,-1.4571,-1.3845,-1.2879,-1.1866,-1.1152,-1.0929,-1.1424,-1.173,-1.1816,-1.223,-1.2634,-1.2513,-1.2206,-1.2639,-1.3258,-1.4346,-1.5316,-1.5093,-1.4975,-1.5153,-1.5168,-1.5227,-1.5293,2.4682,2.4682,2.4667,2.4692,2.4682,2.4682,2.4682,2.4682,2.4692,2.4667,2.4657,2.4667,2.4667,2.4682,2.4682,2.4682,2.4682,2.4682,2.4759,2.4789,2.4827,2.4879,2.4957,2.5041,2.5085,2.5132,2.5166,2.5201,2.521,2.521,2.5189,2.5137,2.4925,2.4879,2.4823,2.4695,2.4751,2.484,2.4884,2.499,2.5137,2.5315,2.5656,2.6504,2.7364,2.8259,2.9033,2.9794,3.0287,3.0493,3.051,3.055,3.0599,3.0606,3.0583,3.0467,3.0436,3.0263,3.0065,3.0095,3.0184,3.0237,3.0273,3.022,3.0069,3.0029,2.9865,2.9582,2.9514,2.9409,2.9387,2.9335,2.9146,2.8943,2.8691,2.851,2.812,2.7417,2.5827,2.4325,2.0938,1.6388,1.3039,1.0005,0.6898,0.3867,0.0367,-0.2697,-0.7028,-1.1528,-1.166,-1.2294,-1.2454,-1.1917,-1.1049,-1.0215,-0.9502,-0.9522,-0.9947,-1.0181,-1.0321,-1.08,-1.1237,-1.1169,-1.0903,-1.1326,-1.1761,-1.2572,-1.3202,-1.3452,-1.3644,-1.3938,-1.4137,-1.4151,-1.4299,2.4682,2.4682,2.4682,2.4682,2.4682,2.4682,2.4682,2.4682,2.4682,2.4682,2.4682,2.4682,2.4682,2.4682,2.4682,2.4682,2.4698,2.4734,2.4784,2.4879,2.494,2.5035,2.5127,2.5184,2.5216,2.5225,2.5249,2.5236,2.521,2.5212,2.521,2.5134,2.5003,2.4929,2.4874,2.5045,2.5243,2.5447,2.5333,2.5273,2.5966,2.6082,2.6525,2.7486,2.8278,2.887,2.9377,3.015,3.0501,3.064,3.0645,3.0673,3.0679,3.0679,3.0564,3.039,3.037,3.0162,3.0006,3.0108,3.0287,3.0228,3.0227,3.0127,2.9775,2.9621,2.943,2.9198,2.8874,2.8686,2.8688,2.8465,2.8216,2.8055,2.7803,2.7547,2.6925,2.6134,2.4955,2.2985,1.959,1.559,1.2655,0.9874,0.6775,0.3598,0.0052,-0.3496,-0.7107,-0.9772,-0.968,-0.973,-0.9903,-0.9949,-0.9123,-0.8459,-0.7898,-0.8205,-0.8535,-0.8731,-0.8947,-0.9094,-0.9435,-0.9449,-0.9658,-0.9993,-1.0338,-1.0732,-1.1359,-1.2266,-1.2663,-1.287,-1.2979,-1.3101,-1.3304,2.4682,2.4707,2.4744,2.4744,2.4707,2.4682,2.4682,2.4682,2.4682,2.4682,2.4682,2.4682,2.4682,2.4682,2.4682,2.4682,2.4713,2.4764,2.4837,2.4944,2.5044,2.5184,2.5261,2.5302,2.5292,2.5312,2.5312,2.5292,2.5246,2.5239,2.5261,2.523,2.5153,2.5185,2.551,2.5714,2.6098,2.6384,2.6372,2.6186,2.6995,2.7105,2.7502,2.8366,2.8989,2.946,2.9848,3.0417,3.0626,3.0691,3.0691,3.0677,3.0643,3.0559,3.0394,3.0224,3.0046,2.988,2.9783,2.9886,3.0103,3.0011,2.9746,2.9608,2.9358,2.8914,2.8487,2.8316,2.8039,2.7887,2.7834,2.7585,2.6981,2.6658,2.6112,2.5744,2.4894,2.4056,2.2886,2.1368,1.7913,1.4866,1.2513,0.9752,0.6501,0.3735,0.1348,-0.1557,-0.4129,-0.6203,-0.6846,-0.6979,-0.7272,-0.7301,-0.7259,-0.6979,-0.6865,-0.7153,-0.744,-0.7501,-0.7687,-0.79,-0.8076,-0.8245,-0.8456,-0.8642,-0.8951,-0.9323,-1.0343,-1.1505,-1.1662,-1.1709,-1.201,-1.2123,-1.2325,2.4707,2.4713,2.4832,2.4828,2.4698,2.4689,2.4717,2.4698,2.4682,2.4682,2.4682,2.4682,2.4707,2.4698,2.4713,2.4713,2.4749,2.4808,2.4879,2.4987,2.5132,2.523,2.5302,2.5351,2.5369,2.5341,2.5351,2.536,2.5311,2.5341,2.5369,2.5456,2.5495,2.5842,2.6494,2.7325,2.7759,2.7846,2.7842,2.7791,2.7973,2.8084,2.8579,2.9245,2.9537,2.9951,3.0381,3.0591,3.0731,3.07,3.0671,3.0597,3.0461,3.0326,3.0153,2.9966,2.9769,2.9565,2.9339,2.9495,2.9466,2.9466,2.9129,2.8767,2.8321,2.7808,2.7322,2.7145,2.6851,2.685,2.6811,2.6572,2.5808,2.5317,2.4778,2.4124,2.3326,2.228,2.1186,2.0133,1.7247,1.4261,1.2148,0.9681,0.6281,0.3765,0.2087,0.0055,-0.2036,-0.3254,-0.4244,-0.4796,-0.5179,-0.5736,-0.593,-0.5871,-0.5864,-0.6149,-0.6384,-0.6478,-0.6877,-0.7337,-0.7387,-0.724,-0.7547,-0.7994,-0.7923,-0.7886,-0.8997,-1.0031,-1.0402,-1.0575,-1.0879,-1.1084,-1.1127,2.477,2.4713,2.4932,2.4906,2.4729,2.4799,2.4784,2.4707,2.4682,2.4698,2.4682,2.4682,2.4729,2.4759,2.4774,2.4794,2.4856,2.5022,2.5096,2.5111,2.5253,2.535,2.5412,2.5439,2.5466,2.5458,2.5456,2.543,2.537,2.5405,2.5405,2.5463,2.5911,2.6734,2.7104,2.7489,2.7422,2.8396,2.8397,2.8264,2.8845,2.9018,2.9396,3.0229,3.0242,3.0413,3.0713,3.0751,3.0712,3.0654,3.061,3.0433,3.0235,3.0081,2.9884,2.9603,2.9313,2.894,2.8515,2.829,2.8149,2.8302,2.8291,2.779,2.7283,2.6702,2.6278,2.5878,2.5628,2.557,2.5384,2.5072,2.4555,2.4387,2.3891,2.3169,2.2291,2.0974,1.9776,1.8863,1.6718,1.4461,1.227,1.0474,0.7381,0.4915,0.3292,0.1434,-0.0607,-0.1442,-0.2276,-0.2884,-0.3437,-0.4165,-0.4587,-0.4739,-0.4881,-0.5171,-0.5434,-0.559,-0.6044,-0.6516,-0.6591,-0.6389,-0.6862,-0.7346,-0.7272,-0.7342,-0.7776,-0.844,-0.8804,-0.9173,-0.9477,-0.9547,-0.9582,2.4856,2.4808,2.5009,2.4975,2.4828,2.4874,2.4832,2.4759,2.4759,2.4779,2.4799,2.4823,2.4837,2.487,2.4884,2.4888,2.4958,2.5111,2.523,2.5262,2.5388,2.5439,2.5488,2.5527,2.5519,2.5529,2.5536,2.5512,2.5448,2.5464,2.548,2.564,2.612,2.6856,2.7452,2.7868,2.8392,2.9299,2.9392,2.937,2.974,2.9942,3.0151,3.0575,3.072,3.0732,3.0755,3.0729,3.0648,3.0554,3.0395,3.0208,3.0014,2.9791,2.9577,2.9217,2.8697,2.8314,2.7846,2.7442,2.7334,2.7217,2.7139,2.6708,2.6126,2.5614,2.5311,2.4925,2.4521,2.4351,2.4269,2.3891,2.3441,2.326,2.2615,2.1871,2.0762,1.9428,1.866,1.7751,1.6677,1.4488,1.2492,1.0878,0.8788,0.6643,0.4664,0.2806,0.0942,0.0,-0.0781,-0.1448,-0.2115,-0.2947,-0.3558,-0.3821,-0.3981,-0.4169,-0.4403,-0.4703,-0.4817,-0.5196,-0.5358,-0.558,-0.5949,-0.6314,-0.6622,-0.6829,-0.694,-0.7038,-0.7207,-0.7585,-0.7972,-0.8211,-0.8325,2.4906,2.4919,2.5049,2.5091,2.5006,2.4936,2.4869,2.4823,2.4898,2.4955,2.5016,2.5063,2.5051,2.5022,2.5024,2.5039,2.5072,2.5169,2.5243,2.5341,2.5464,2.5485,2.5524,2.5561,2.5554,2.5547,2.5554,2.5551,2.5527,2.5541,2.5576,2.5634,2.5909,2.6861,2.7822,2.8699,2.9424,3.003,3.0312,3.0288,3.0447,3.0581,3.0614,3.077,3.0736,3.0703,3.0667,3.061,3.0487,3.0334,3.0119,2.9969,2.9765,2.9504,2.9202,2.8721,2.8058,2.7654,2.7251,2.6903,2.6412,2.605,2.5419,2.5134,2.5006,2.4745,2.444,2.4168,2.3806,2.3669,2.3468,2.2841,2.2215,2.1709,2.1108,2.0168,1.9042,1.8167,1.7567,1.6791,1.5873,1.4231,1.2458,1.0858,0.9452,0.7967,0.6035,0.4581,0.2767,0.1001,0.0223,-0.0501,-0.1169,-0.1893,-0.2393,-0.2893,-0.3113,-0.3336,-0.3604,-0.3787,-0.3891,-0.4017,-0.4439,-0.4746,-0.499,-0.5279,-0.5664,-0.5786,-0.5752,-0.5821,-0.5872,-0.6474,-0.6999,-0.7314,-0.7576,2.5118,2.5065,2.5293,2.5303,2.5139,2.501,2.5015,2.5091,2.5124,2.5126,2.5138,2.5171,2.5183,2.5202,2.5194,2.5244,2.5303,2.5369,2.5412,2.547,2.5517,2.5561,2.5583,2.5595,2.5579,2.5579,2.5582,2.5575,2.5581,2.56,2.5604,2.5639,2.6126,2.7118,2.8053,2.9002,2.982,3.0458,3.0741,3.0759,3.0753,3.075,3.0735,3.0713,3.0643,3.0597,3.0529,3.0337,3.0203,3.0081,2.9842,2.9607,2.9186,2.9023,2.8777,2.7818,2.7344,2.6993,2.6598,2.5831,2.5319,2.4989,2.4253,2.4127,2.4142,2.4067,2.3653,2.3377,2.3039,2.2817,2.2555,2.2004,2.1486,2.1004,2.0388,1.9523,1.8489,1.7841,1.7185,1.627,1.5364,1.4039,1.2275,1.0997,0.9631,0.8513,0.7309,0.5907,0.4491,0.272,0.1226,0.0501,-0.0111,-0.078,-0.1616,-0.2172,-0.2281,-0.2446,-0.2718,-0.2897,-0.2963,-0.3142,-0.3596,-0.3957,-0.4223,-0.4482,-0.4736,-0.4816,-0.4847,-0.4614,-0.4677,-0.5389,-0.5996,-0.6368,-0.6783,2.5245,2.5206,2.5357,2.5357,2.5274,2.5187,2.5235,2.533,2.5284,2.5255,2.5293,2.5331,2.5359,2.5331,2.535,2.5395,2.543,2.5464,2.5503,2.5547,2.5579,2.5595,2.5601,2.5604,2.56,2.56,2.561,2.5596,2.56,2.5609,2.56,2.5683,2.6467,2.7341,2.8187,2.9003,2.9851,3.0425,3.0763,3.076,3.0737,3.0707,3.0677,3.0607,3.0508,3.0452,3.0311,3.0064,2.9971,2.9804,2.9551,2.9226,2.8786,2.8542,2.8067,2.7158,2.6539,2.6214,2.5839,2.5128,2.4688,2.4338,2.3666,2.3486,2.3363,2.3267,2.2942,2.2678,2.2249,2.186,2.1561,2.1265,2.0897,2.0531,1.9876,1.9218,1.8472,1.7769,1.6869,1.5903,1.4802,1.3535,1.2227,1.0942,0.9875,0.8881,0.7862,0.6732,0.5538,0.4216,0.2671,0.1506,0.1004,0.0391,-0.0446,-0.1115,-0.1171,-0.1339,-0.173,-0.1855,-0.1975,-0.225,-0.2687,-0.3085,-0.3443,-0.3657,-0.3876,-0.392,-0.3912,-0.3741,-0.367,-0.4104,-0.485,-0.5588,-0.604,2.5244,2.5321,2.5328,2.5372,2.5408,2.541,2.5473,2.5579,2.5405,2.5371,2.5432,2.5528,2.5517,2.5449,2.5478,2.5485,2.5503,2.5527,2.5547,2.5601,2.5599,2.5604,2.5605,2.56,2.5601,2.561,2.56,2.5601,2.5601,2.5616,2.5638,2.5672,2.6478,2.7344,2.8177,2.9013,2.9853,3.0588,3.0735,3.071,3.0648,3.0624,3.0601,3.0502,3.0414,3.0317,3.0087,2.9922,2.9839,2.9495,2.9184,2.8897,2.8382,2.7809,2.7198,2.6632,2.5931,2.5566,2.5205,2.4648,2.4313,2.4078,2.3767,2.3231,2.2875,2.2709,2.2456,2.2109,2.1718,2.1389,2.1091,2.0733,2.037,1.9908,1.9301,1.8608,1.7895,1.713,1.6291,1.5428,1.4587,1.3326,1.2201,1.1005,1.0069,0.9143,0.8352,0.7385,0.647,0.5376,0.4056,0.2621,0.1954,0.1396,0.0838,0.0279,0.0168,-0.0112,-0.0672,-0.0825,-0.0897,-0.1317,-0.1809,-0.2162,-0.2458,-0.2755,-0.2981,-0.3027,-0.3084,-0.3029,-0.297,-0.3003,-0.366,-0.4678,-0.5191,2.4851,2.5454,2.5502,2.5551,2.5551,2.5548,2.556,2.5601,2.5557,2.5525,2.5548,2.5589,2.5589,2.5551,2.5561,2.5567,2.5567,2.5564,2.557,2.5589,2.5605,2.5604,2.5603,2.5603,2.5608,2.5603,2.5609,2.562,2.5644,2.5664,2.5693,2.5771,2.6494,2.7305,2.8162,2.8982,2.9715,3.0633,3.0521,3.0467,3.0428,3.0401,3.0363,3.0275,3.0193,3.0042,2.9806,2.9606,2.937,2.9064,2.8841,2.8368,2.771,2.6993,2.653,2.6112,2.5457,2.5067,2.4712,2.4248,2.3859,2.3516,2.315,2.2663,2.2349,2.227,2.203,2.163,2.123,2.0901,2.0503,2.0093,1.9683,1.9174,1.8661,1.7929,1.7207,1.6482,1.5705,1.5003,1.4271,1.33,1.2187,1.1272,1.0291,0.9556,0.8973,0.8187,0.734,0.6362,0.5214,0.3946,0.2845,0.229,0.179,0.1343,0.1008,0.0617,0.0056,0.0055,0.0054,-0.0429,-0.1025,-0.1188,-0.1457,-0.1851,-0.2086,-0.21,-0.2162,-0.222,-0.2436,-0.2462,-0.3013,-0.4001,-0.4326,2.4533,2.5011,2.5434,2.5601,2.5601,2.5601,2.5601,2.5601,2.5601,2.5601,2.5601,2.5601,2.5601,2.5601,2.5601,2.5607,2.5607,2.56,2.56,2.5595,2.5605,2.56,2.5608,2.5621,2.5637,2.5641,2.5644,2.5672,2.5743,2.563,2.5641,2.5854,2.6505,2.7263,2.8082,2.8705,2.9409,3.0511,3.0198,2.996,2.996,2.9996,3.0036,2.9984,2.9857,2.968,2.9428,2.9193,2.8934,2.8535,2.8201,2.7651,2.7057,2.653,2.6021,2.5527,2.4973,2.4542,2.4207,2.3794,2.3348,2.3083,2.2663,2.2303,2.1697,2.1513,2.1119,2.072,2.0188,1.9805,1.9475,1.9109,1.8555,1.8021,1.7617,1.7078,1.6678,1.6228,1.5546,1.4953,1.4308,1.3674,1.2707,1.2008,1.1082,1.0295,0.9677,0.8708,0.794,0.7288,0.6173,0.522,0.4177,0.307,0.2347,0.1901,0.1511,0.112,0.0729,0.0278,-0.0,-0.0055,-0.0273,-0.0603,-0.0881,-0.1055,-0.1231,-0.1403,-0.1379,-0.1426,-0.1732,-0.1995,-0.2675,-0.319,-0.3445,2.4257,2.4568,2.5294,2.5601,2.5601,2.5601,2.5601,2.5601,2.5601,2.5601,2.5607,2.5603,2.5607,2.5601,2.5603,2.5603,2.56,2.5603,2.5605,2.561,2.5603,2.5621,2.5648,2.5663,2.5674,2.5895,2.6089,2.6008,2.597,2.6057,2.6222,2.612,2.6527,2.7212,2.783,2.8052,2.8473,2.965,2.9737,2.9113,2.9197,2.9441,2.9497,2.9497,2.9373,2.9195,2.8968,2.8739,2.8529,2.803,2.7512,2.6993,2.6598,2.6181,2.5676,2.5145,2.4679,2.4188,2.3724,2.3304,2.3053,2.2783,2.2363,2.1813,2.1203,2.0601,2.0206,1.9703,1.9174,1.8869,1.8536,1.8261,1.7699,1.7146,1.6791,1.6426,1.6139,1.5851,1.5371,1.4834,1.4282,1.3744,1.313,1.2489,1.1841,1.1083,1.0242,0.9231,0.8393,0.7842,0.7057,0.6334,0.5582,0.441,0.3234,0.2568,0.2234,0.179,0.1343,0.0504,0.0056,0.0388,0.0332,-0.0278,-0.0504,-0.0617,-0.0729,-0.0897,-0.0823,-0.0806,-0.1172,-0.1539,-0.1906,-0.2384,-0.254,2.4088,2.5382,2.5547,2.5601,2.5601,2.5601,2.5601,2.5601,2.5601,2.5601,2.5608,2.561,2.561,2.5607,2.5605,2.5667,2.5812,2.5756,2.5649,2.5605,2.567,2.5683,2.5742,2.5868,2.5732,2.6157,2.678,2.7113,2.6733,2.7047,2.7383,2.7334,2.6666,2.7351,2.8472,2.8318,2.7873,2.9069,2.9193,2.8544,2.8851,2.8953,2.8767,2.8584,2.8261,2.8492,2.8599,2.846,2.7984,2.7443,2.6946,2.6505,2.6216,2.5974,2.5505,2.4958,2.4444,2.4029,2.3566,2.3142,2.2933,2.2692,2.2203,2.1348,2.0644,1.9754,1.9288,1.8697,1.8304,1.8261,1.8044,1.7995,1.76,1.6933,1.6451,1.6066,1.573,1.5376,1.4956,1.45,1.4069,1.3614,1.3171,1.2676,1.2269,1.1587,1.0992,1.0006,0.9289,0.8636,0.787,0.7295,0.6724,0.5626,0.4386,0.3565,0.3067,0.2569,0.1957,0.1287,0.0952,0.1232,0.1008,0.028,-0.0112,-0.028,-0.0336,-0.0449,-0.0387,-0.0434,-0.075,-0.1118,0.0,-0.161,-0.1803]}]]